| time (UTC) | temp C | wind direction | speed KPH | gust KPH | rain 1hr cm | rain 24hr cm | rain mn cm | humidity % | barometer mb |
| 20260905024747 | 27 | 37 | 4.8 | 4.8 | 0.00 | 0.00 | 0.00 | 69 | 1012.6 |
| 20260905024717 | 27 | 35 | 4.8 | 4.8 | 0.00 | 0.00 | 0.00 | 69 | 1012.6 |
| 20260905024616 | 27 | 37 | 4.8 | 4.8 | 0.00 | 0.00 | 0.00 | 69 | 1012.6 |
| 20260905024444 | 27 | 37 | 4.8 | 9.7 | 0.00 | 0.00 | 0.00 | 69 | 1012.6 |
| 20260905024401 | 27 | 38 | 6.4 | 9.7 | 0.00 | 0.00 | 0.00 | 70 | 1012.6 |
| 20260905024240 | 27 | 38 | 8.0 | 9.7 | 0.00 | 0.00 | 0.00 | 70 | 1012.7 |
| 20260905024138 | 27 | 37 | 8.0 | 9.7 | 0.00 | 0.00 | 0.00 | 69 | 1012.7 |
| 20260905024041 | 27 | 38 | 8.0 | 9.7 | 0.00 | 0.00 | 0.00 | 69 | 1012.7 |
| 20260905023941 | 27 | 38 | 8.0 | 9.7 | 0.00 | 0.00 | 0.00 | 69 | 1012.7 |
| 20260905023839 | 27 | 38 | 6.4 | 8.0 | 0.00 | 0.00 | 0.00 | 69 | 1012.7 |
| 20260905023738 | 27 | 37 | 6.4 | 8.0 | 0.00 | 0.00 | 0.00 | 69 | 1012.7 |
| 20260905023656 | 27 | 37 | 6.4 | 8.0 | 0.00 | 0.00 | 0.00 | 69 | 1012.7 |
| 20260905023555 | 27 | 37 | 6.4 | 8.0 | 0.00 | 0.00 | 0.00 | 69 | 1012.7 |
| 20260905023451 | 27 | 37 | 8.0 | 8.0 | 0.00 | 0.00 | 0.00 | 69 | 1012.7 |
| 20260905023329 | 27 | 37 | 6.4 | 8.0 | 0.00 | 0.00 | 0.00 | 69 | 1012.7 |
| 20260905023231 | 27 | 38 | 4.8 | 8.0 | 0.00 | 0.00 | 0.00 | 69 | 1012.7 |
| 20260905023202 | 27 | 37 | 4.8 | 8.0 | 0.00 | 0.00 | 0.00 | 69 | 1012.7 |
| 20260905023038 | 27 | 38 | 4.8 | 8.0 | 0.00 | 0.00 | 0.00 | 69 | 1012.7 |
| 20260905022937 | 27 | 32 | 3.2 | 8.0 | 0.00 | 0.00 | 0.00 | 69 | 1012.7 |
| 20260905022834 | 27 | 37 | 4.8 | 8.0 | 0.00 | 0.00 | 0.00 | 69 | 1012.7 |
| 20260905022733 | 27 | 37 | 4.8 | 8.0 | 0.00 | 0.00 | 0.00 | 69 | 1012.6 |
| 20260905022633 | 27 | 38 | 6.4 | 8.0 | 0.00 | 0.00 | 0.00 | 69 | 1012.6 |
| 20260905022535 | 27 | 35 | 4.8 | 8.0 | 0.00 | 0.00 | 0.00 | 69 | 1012.6 |
| 20260905022433 | 27 | 34 | 3.2 | 8.0 | 0.00 | 0.00 | 0.00 | 69 | 1012.6 |
| 20260905022331 | 27 | 34 | 3.2 | 8.0 | 0.00 | 0.00 | 0.00 | 69 | 1012.6 |
| 20260905022230 | 27 | 34 | 4.8 | 8.0 | 0.00 | 0.00 | 0.00 | 69 | 1012.6 |
| 20260905022129 | 27 | 34 | 3.2 | 8.0 | 0.00 | 0.00 | 0.00 | 68 | 1012.6 |
| 20260905022048 | 27 | 32 | 3.2 | 8.0 | 0.00 | 0.00 | 0.00 | 69 | 1012.6 |
| 20260905021945 | 27 | 34 | 4.8 | 8.0 | 0.00 | 0.00 | 0.00 | 69 | 1012.6 |
| 20260905021904 | 27 | 34 | 4.8 | 8.0 | 0.00 | 0.00 | 0.00 | 69 | 1012.6 |
| 20260905021801 | 27 | 24 | 4.8 | 8.0 | 0.00 | 0.00 | 0.00 | 69 | 1012.6 |
| 20260905021714 | 27 | 30 | 4.8 | 8.0 | 0.00 | 0.00 | 0.00 | 69 | 1012.6 |
| 20260905021531 | 27 | 27 | 4.8 | 6.4 | 0.00 | 0.00 | 0.00 | 68 | 1012.6 |
| 20260905021450 | 27 | 28 | 4.8 | 6.4 | 0.00 | 0.00 | 0.00 | 68 | 1012.6 |
| 20260905021327 | 27 | 28 | 4.8 | 8.0 | 0.00 | 0.00 | 0.00 | 69 | 1012.6 |
| 20260905021245 | 27 | 28 | 3.2 | 8.0 | 0.00 | 0.00 | 0.00 | 69 | 1012.7 |
| 20260905021204 | 27 | 28 | 3.2 | 8.0 | 0.00 | 0.00 | 0.00 | 69 | 1012.7 |
| 20260905021040 | 27 | 28 | 3.2 | 8.0 | 0.00 | 0.00 | 0.00 | 69 | 1012.7 |
| 20260905020939 | 27 | 28 | 3.2 | 8.0 | 0.00 | 0.00 | 0.00 | 68 | 1012.7 |
| 20260905020837 | 27 | 27 | 3.2 | 8.0 | 0.00 | 0.00 | 0.00 | 68 | 1012.7 |
| 20260905020738 | 27 | 28 | 4.8 | 8.0 | 0.00 | 0.00 | 0.00 | 68 | 1012.7 |
| 20260905020637 | 27 | 27 | 4.8 | 8.0 | 0.00 | 0.00 | 0.00 | 68 | 1012.7 |
| 20260905020556 | 27 | 28 | 6.4 | 8.0 | 0.00 | 0.00 | 0.00 | 67 | 1012.7 |
| 20260905020432 | 27 | 25 | 6.4 | 8.0 | 0.00 | 0.00 | 0.00 | 67 | 1012.7 |
| 20260905020331 | 27 | 27 | 4.8 | 8.0 | 0.00 | 0.00 | 0.00 | 67 | 1012.7 |
| 20260905020238 | 27 | 27 | 4.8 | 8.0 | 0.00 | 0.00 | 0.00 | 68 | 1012.7 |
| 20260905020148 | 27 | 28 | 4.8 | 8.0 | 0.00 | 0.00 | 0.00 | 67 | 1012.7 |
| 20260905020026 | 27 | 27 | 4.8 | 8.0 | 0.00 | 0.00 | 0.00 | 67 | 1012.7 |
| 20260905015949 | 27 | 27 | 4.8 | 8.0 | 0.00 | 0.00 | 0.00 | 67 | 1012.7 |
| 20260905015826 | 27 | 28 | 4.8 | 8.0 | 0.00 | 0.00 | 0.00 | 66 | 1012.7 |
| 20260905015725 | 27 | 27 | 4.8 | 8.0 | 0.00 | 0.00 | 0.00 | 66 | 1012.5 |
| 20260905015643 | 27 | 25 | 4.8 | 8.0 | 0.00 | 0.00 | 0.00 | 66 | 1012.5 |
| 20260905015541 | 27 | 28 | 4.8 | 8.0 | 0.00 | 0.00 | 0.00 | 65 | 1012.5 |
| 20260905015439 | 27 | 25 | 6.4 | 8.0 | 0.00 | 0.00 | 0.00 | 66 | 1012.5 |
| 20260905015336 | 27 | 28 | 6.4 | 8.0 | 0.00 | 0.00 | 0.00 | 66 | 1012.5 |
| 20260905015236 | 27 | 28 | 6.4 | 8.0 | 0.00 | 0.00 | 0.00 | 66 | 1012.5 |
| 20260905015137 | 27 | 24 | 4.8 | 8.0 | 0.00 | 0.00 | 0.00 | 66 | 1012.5 |
| 20260905015036 | 27 | 28 | 6.4 | 8.0 | 0.00 | 0.00 | 0.00 | 66 | 1012.5 |
| 20260905014934 | 27 | 28 | 6.4 | 8.0 | 0.00 | 0.00 | 0.00 | 66 | 1012.5 |
| 20260905014851 | 27 | 28 | 4.8 | 8.0 | 0.00 | 0.00 | 0.00 | 66 | 1012.5 |
| 20260905014729 | 27 | 28 | 4.8 | 8.0 | 0.00 | 0.00 | 0.00 | 66 | 1012.5 |
| 20260905014659 | 27 | 25 | 6.4 | 8.0 | 0.00 | 0.00 | 0.00 | 66 | 1012.5 |
| 20260905014537 | 27 | 27 | 6.4 | 8.0 | 0.00 | 0.00 | 0.00 | 66 | 1012.5 |
| 20260905014440 | 27 | 27 | 6.4 | 8.0 | 0.00 | 0.00 | 0.00 | 67 | 1012.5 |
| 20260905014339 | 27 | 28 | 6.4 | 8.0 | 0.00 | 0.00 | 0.00 | 67 | 1012.5 |
| 20260905014258 | 27 | 27 | 6.4 | 8.0 | 0.00 | 0.00 | 0.00 | 67 | 1012.5 |
| 20260905014136 | 27 | 24 | 6.4 | 8.0 | 0.00 | 0.00 | 0.00 | 68 | 1012.5 |
| 20260905014038 | 27 | 25 | 4.8 | 8.0 | 0.00 | 0.00 | 0.00 | 68 | 1012.5 |
| 20260905013957 | 27 | 27 | 6.4 | 8.0 | 0.00 | 0.00 | 0.00 | 68 | 1012.5 |
| 20260905013834 | 27 | 24 | 6.4 | 9.7 | 0.00 | 0.00 | 0.00 | 68 | 1012.5 |
| 20260905013735 | 27 | 24 | 4.8 | 9.7 | 0.00 | 0.00 | 0.00 | 67 | 1012.5 |
| 20260905013637 | 27 | 27 | 4.8 | 9.7 | 0.00 | 0.00 | 0.00 | 68 | 1012.5 |
| 20260905013536 | 27 | 24 | 3.2 | 9.7 | 0.00 | 0.00 | 0.00 | 68 | 1012.5 |
| 20260905013435 | 27 | 24 | 3.2 | 9.7 | 0.00 | 0.00 | 0.00 | 68 | 1012.5 |
| 20260905013334 | 27 | 25 | 4.8 | 9.7 | 0.00 | 0.00 | 0.00 | 68 | 1012.5 |
| 20260905013241 | 27 | 23 | 4.8 | 9.7 | 0.00 | 0.00 | 0.00 | 67 | 1012.5 |
| 20260905013151 | 27 | 24 | 4.8 | 9.7 | 0.00 | 0.00 | 0.00 | 67 | 1012.5 |
| 20260905013027 | 27 | 25 | 6.4 | 9.7 | 0.00 | 0.00 | 0.00 | 67 | 1012.5 |
| 20260905012929 | 27 | 25 | 8.0 | 9.7 | 0.00 | 0.00 | 0.00 | 67 | 1012.5 |
| 20260905012828 | 27 | 25 | 8.0 | 9.7 | 0.00 | 0.00 | 0.00 | 66 | 1012.5 |
| 20260905012727 | 27 | 24 | 8.0 | 9.7 | 0.00 | 0.00 | 0.00 | 66 | 1012.4 |
| 20260905012626 | 27 | 23 | 6.4 | 9.7 | 0.00 | 0.00 | 0.00 | 66 | 1012.4 |
| 20260905012548 | 27 | 23 | 6.4 | 9.7 | 0.00 | 0.00 | 0.00 | 65 | 1012.4 |
| 20260905012425 | 27 | 24 | 8.0 | 9.7 | 0.00 | 0.00 | 0.00 | 65 | 1012.4 |
| 20260905012343 | 27 | 23 | 8.0 | 9.7 | 0.00 | 0.00 | 0.00 | 65 | 1012.4 |
| 20260905012225 | 27 | 23 | 8.0 | 9.7 | 0.00 | 0.00 | 0.00 | 65 | 1012.4 |
| 20260905012143 | 27 | 23 | 6.4 | 9.7 | 0.00 | 0.00 | 0.00 | 65 | 1012.4 |
| 20260905012042 | 27 | 23 | 4.8 | 9.7 | 0.00 | 0.00 | 0.00 | 65 | 1012.4 |
| 20260905011940 | 27 | 23 | 4.8 | 9.7 | 0.00 | 0.00 | 0.00 | 65 | 1012.4 |
| 20260905011839 | 27 | 23 | 6.4 | 9.7 | 0.00 | 0.00 | 0.00 | 65 | 1012.4 |
| 20260905011757 | 27 | 23 | 6.4 | 9.7 | 0.00 | 0.00 | 0.00 | 65 | 1012.4 |
| 20260905011727 | 27 | 23 | 6.4 | 9.7 | 0.00 | 0.00 | 0.00 | 64 | 1012.4 |
| 20260905011541 | 27 | 23 | 6.4 | 9.7 | 0.00 | 0.00 | 0.00 | 64 | 1012.4 |
| 20260905011424 | 27 | 24 | 4.8 | 9.7 | 0.00 | 0.00 | 0.00 | 64 | 1012.4 |
| 20260905011343 | 27 | 23 | 4.8 | 9.7 | 0.00 | 0.00 | 0.00 | 64 | 1012.4 |
| 20260905011240 | 27 | 21 | 4.8 | 9.7 | 0.00 | 0.00 | 0.00 | 64 | 1012.5 |
| 20260905011139 | 27 | 23 | 6.4 | 9.7 | 0.00 | 0.00 | 0.00 | 64 | 1012.5 |
| 20260905011037 | 27 | 23 | 4.8 | 9.7 | 0.00 | 0.00 | 0.00 | 64 | 1012.5 |
| 20260905010934 | 27 | 21 | 6.4 | 9.7 | 0.00 | 0.00 | 0.00 | 64 | 1012.5 |
| 20260905010832 | 27 | 23 | 4.8 | 9.7 | 0.00 | 0.00 | 0.00 | 64 | 1012.5 |
| 20260905010731 | 27 | 20 | 4.8 | 9.7 | 0.00 | 0.00 | 0.00 | 64 | 1012.5 |
| 20260905010635 | 27 | 21 | 6.4 | 9.7 | 0.00 | 0.00 | 0.00 | 64 | 1012.5 |
| 20260905010532 | 27 | 23 | 6.4 | 9.7 | 0.00 | 0.00 | 0.00 | 64 | 1012.5 |
| 20260905010430 | 27 | 23 | 8.0 | 9.7 | 0.00 | 0.00 | 0.00 | 64 | 1012.5 |
| 20260905010328 | 27 | 23 | 4.8 | 9.7 | 0.00 | 0.00 | 0.00 | 64 | 1012.5 |
| 20260905010237 | 27 | 20 | 8.0 | 9.7 | 0.00 | 0.00 | 0.00 | 65 | 1012.5 |
| 20260905010148 | 27 | 17 | 8.0 | 9.7 | 0.00 | 0.00 | 0.00 | 65 | 1012.5 |
| 20260905010024 | 27 | 13 | 4.8 | 9.7 | 0.00 | 0.00 | 0.00 | 65 | 1012.5 |
| 20260905005927 | 27 | 14 | 4.8 | 9.7 | 0.00 | 0.00 | 0.00 | 65 | 1012.5 |
| 20260905005824 | 27 | 14 | 6.4 | 9.7 | 0.00 | 0.00 | 0.00 | 65 | 1012.5 |
| 20260905005743 | 27 | 14 | 6.4 | 9.7 | 0.00 | 0.00 | 0.00 | 65 | 1012.5 |
| 20260905005640 | 27 | 14 | 4.8 | 9.7 | 0.00 | 0.00 | 0.00 | 65 | 1012.5 |
| 20260905005540 | 27 | 11 | 6.4 | 9.7 | 0.00 | 0.00 | 0.00 | 64 | 1012.5 |
| 20260905005439 | 27 | 13 | 4.8 | 9.7 | 0.00 | 0.00 | 0.00 | 64 | 1012.5 |
| 20260905005338 | 27 | 14 | 4.8 | 9.7 | 0.00 | 0.00 | 0.00 | 64 | 1012.5 |
| 20260905005257 | 27 | 14 | 6.4 | 9.7 | 0.00 | 0.00 | 0.00 | 65 | 1012.5 |
| 20260905005139 | 27 | 14 | 4.8 | 9.7 | 0.00 | 0.00 | 0.00 | 65 | 1012.5 |
| 20260905005037 | 27 | 14 | 6.4 | 9.7 | 0.00 | 0.00 | 0.00 | 65 | 1012.5 |
| 20260905004937 | 27 | 13 | 6.4 | 9.7 | 0.00 | 0.00 | 0.00 | 65 | 1012.5 |
| 20260905004836 | 27 | 8 | 6.4 | 9.7 | 0.00 | 0.00 | 0.00 | 64 | 1012.5 |
| 20260905004734 | 27 | 13 | 6.4 | 9.7 | 0.00 | 0.00 | 0.00 | 64 | 1012.5 |
| 20260905004704 | 27 | 13 | 4.8 | 9.7 | 0.00 | 0.00 | 0.00 | 64 | 1012.5 |
| 20260905004543 | 27 | 13 | 6.4 | 9.7 | 0.00 | 0.00 | 0.00 | 64 | 1012.5 |
| 20260905004441 | 27 | 11 | 6.4 | 9.7 | 0.00 | 0.00 | 0.00 | 64 | 1012.5 |
| 20260905004404 | 27 | 10 | 6.4 | 9.7 | 0.00 | 0.00 | 0.00 | 64 | 1012.5 |
| 20260905004301 | 27 | 11 | 6.4 | 9.7 | 0.00 | 0.00 | 0.00 | 64 | 1012.5 |
| 20260905004158 | 27 | 10 | 6.4 | 9.7 | 0.00 | 0.00 | 0.00 | 64 | 1012.5 |
| 20260905004036 | 27 | 11 | 8.0 | 9.7 | 0.00 | 0.00 | 0.00 | 64 | 1012.5 |
| 20260905003934 | 27 | 10 | 8.0 | 9.7 | 0.00 | 0.00 | 0.00 | 64 | 1012.5 |
| 20260905003853 | 27 | 11 | 8.0 | 9.7 | 0.00 | 0.00 | 0.00 | 64 | 1012.5 |
| 20260905003730 | 27 | 10 | 8.0 | 9.7 | 0.00 | 0.00 | 0.00 | 64 | 1012.5 |
| 20260905003629 | 27 | 11 | 8.0 | 9.7 | 0.00 | 0.00 | 0.00 | 64 | 1012.5 |
| 20260905003531 | 27 | 7 | 6.4 | 8.0 | 0.00 | 0.00 | 0.00 | 64 | 1012.5 |
| 20260905003430 | 27 | 8 | 6.4 | 8.0 | 0.00 | 0.00 | 0.00 | 64 | 1012.5 |
| 20260905003328 | 27 | 8 | 4.8 | 8.0 | 0.00 | 0.00 | 0.00 | 64 | 1012.5 |
| 20260905003238 | 27 | 7 | 6.4 | 8.0 | 0.00 | 0.00 | 0.00 | 64 | 1012.5 |
| 20260905003147 | 27 | 7 | 8.0 | 8.0 | 0.00 | 0.00 | 0.00 | 64 | 1012.5 |
| 20260905003027 | 27 | 7 | 6.4 | 8.0 | 0.00 | 0.00 | 0.00 | 64 | 1012.5 |
| 20260905002925 | 27 | 7 | 4.8 | 8.0 | 0.00 | 0.00 | 0.00 | 65 | 1012.5 |
| 20260905002826 | 27 | 7 | 4.8 | 8.0 | 0.00 | 0.00 | 0.00 | 65 | 1012.5 |
| 20260905002745 | 27 | 6 | 4.8 | 8.0 | 0.00 | 0.00 | 0.00 | 65 | 1012.4 |
| 20260905002643 | 27 | 6 | 4.8 | 8.0 | 0.00 | 0.00 | 0.00 | 65 | 1012.4 |
| 20260905002543 | 27 | 8 | 4.8 | 8.0 | 0.00 | 0.00 | 0.00 | 65 | 1012.4 |
| 20260905002442 | 27 | 7 | 4.8 | 8.0 | 0.00 | 0.00 | 0.00 | 65 | 1012.4 |
| 20260905002339 | 27 | 7 | 4.8 | 8.0 | 0.00 | 0.00 | 0.00 | 65 | 1012.4 |
| 20260905002239 | 27 | 7 | 4.8 | 6.4 | 0.00 | 0.00 | 0.00 | 65 | 1012.4 |
| 20260905002135 | 27 | 7 | 4.8 | 6.4 | 0.00 | 0.00 | 0.00 | 65 | 1012.4 |
| 20260905002053 | 27 | 7 | 4.8 | 6.4 | 0.00 | 0.00 | 0.00 | 65 | 1012.4 |
| 20260905001935 | 27 | 7 | 4.8 | 6.4 | 0.00 | 0.00 | 0.00 | 65 | 1012.4 |
| 20260905001833 | 27 | 6 | 4.8 | 6.4 | 0.00 | 0.00 | 0.00 | 65 | 1012.4 |
| 20260905001743 | 27 | 7 | 3.2 | 6.4 | 0.00 | 0.00 | 0.00 | 65 | 1012.4 |
| 20260905001652 | 27 | 8 | 4.8 | 6.4 | 0.00 | 0.00 | 0.00 | 65 | 1012.4 |
| 20260905001529 | 27 | 3 | 4.8 | 6.4 | 0.00 | 0.00 | 0.00 | 64 | 1012.4 |
| 20260905001428 | 28 | 7 | 4.8 | 6.4 | 0.00 | 0.00 | 0.00 | 64 | 1012.4 |
| 20260905001326 | 28 | 7 | 4.8 | 8.0 | 0.00 | 0.00 | 0.00 | 64 | 1012.4 |
| 20260905001230 | 28 | 6 | 4.8 | 8.0 | 0.00 | 0.00 | 0.00 | 64 | 1012.4 |
| 20260905001129 | 28 | 7 | 4.8 | 8.0 | 0.00 | 0.00 | 0.00 | 64 | 1012.4 |
| 20260905001028 | 28 | 7 | 4.8 | 8.0 | 0.00 | 0.00 | 0.00 | 64 | 1012.4 |
| 20260905000925 | 28 | 7 | 4.8 | 8.0 | 0.00 | 0.00 | 0.00 | 64 | 1012.4 |
| 20260905000844 | 28 | 7 | 4.8 | 8.0 | 0.00 | 0.00 | 0.00 | 64 | 1012.4 |
| 20260905000802 | 28 | 7 | 4.8 | 8.0 | 0.00 | 0.00 | 0.00 | 64 | 1012.4 |
| 20260905000700 | 28 | 6 | 4.8 | 8.0 | 0.00 | 0.00 | 0.00 | 64 | 1012.4 |
| 20260905000557 | 28 | 7 | 4.8 | 9.7 | 0.00 | 0.00 | 0.00 | 64 | 1012.4 |
| 20260905000454 | 28 | 6 | 6.4 | 9.7 | 0.00 | 0.00 | 0.00 | 64 | 1012.4 |
| 20260905000356 | 28 | 7 | 4.8 | 9.7 | 0.00 | 0.00 | 0.00 | 64 | 1012.4 |
| 20260905000234 | 28 | 7 | 4.8 | 9.7 | 0.00 | 0.00 | 0.00 | 64 | 1012.4 |
| 20260905000205 | 28 | 7 | 6.4 | 9.7 | 0.00 | 0.00 | 0.00 | 64 | 1012.4 |
| 20260905000041 | 28 | 7 | 8.0 | 9.7 | 0.00 | 0.00 | 0.00 | 65 | 1012.4 |
| 20260904235939 | 28 | 8 | 8.0 | 9.7 | 0.00 | 0.00 | 0.00 | 65 | 1012.4 |
| 20260904235837 | 28 | 7 | 6.4 | 9.7 | 0.00 | 0.00 | 0.00 | 65 | 1012.4 |
| 20260904235737 | 28 | 4 | 6.4 | 9.7 | 0.00 | 0.00 | 0.00 | 64 | 1012.4 |
| 20260904235640 | 28 | 8 | 4.8 | 8.0 | 0.00 | 0.00 | 0.00 | 64 | 1012.4 |
| 20260904235538 | 28 | 8 | 4.8 | 8.0 | 0.00 | 0.00 | 0.00 | 64 | 1012.4 |
| 20260904235456 | 28 | 8 | 4.8 | 8.0 | 0.00 | 0.00 | 0.00 | 64 | 1012.4 |
| 20260904235354 | 28 | 10 | 4.8 | 8.0 | 0.00 | 0.00 | 0.00 | 64 | 1012.4 |
| 20260904235251 | 28 | 11 | 3.2 | 8.0 | 0.00 | 0.00 | 0.00 | 64 | 1012.4 |
| 20260904235128 | 28 | 8 | 4.8 | 8.0 | 0.00 | 0.00 | 0.00 | 65 | 1012.4 |
| 20260904235048 | 28 | 10 | 3.2 | 8.0 | 0.00 | 0.00 | 0.00 | 65 | 1012.4 |
| 20260904234926 | 28 | 7 | 3.2 | 8.0 | 0.00 | 0.00 | 0.00 | 65 | 1012.4 |
| 20260904234825 | 28 | 10 | 4.8 | 8.0 | 0.00 | 0.00 | 0.00 | 65 | 1012.4 |
| 20260904234727 | 28 | 10 | 4.8 | 9.7 | 0.00 | 0.00 | 0.00 | 64 | 1012.4 |
| 20260904234656 | 28 | 7 | 3.2 | 9.7 | 0.00 | 0.00 | 0.00 | 64 | 1012.4 |
| 20260904234558 | 28 | 13 | 4.8 | 9.7 | 0.00 | 0.00 | 0.00 | 64 | 1012.4 |
| 20260904234438 | 28 | 11 | 4.8 | 9.7 | 0.00 | 0.00 | 0.00 | 64 | 1012.4 |
| 20260904234336 | 28 | 14 | 3.2 | 12.9 | 0.00 | 0.00 | 0.00 | 63 | 1012.4 |
| 20260904234235 | 28 | 10 | 4.8 | 12.9 | 0.00 | 0.00 | 0.00 | 64 | 1012.3 |
| 20260904234134 | 28 | 14 | 4.8 | 12.9 | 0.00 | 0.00 | 0.00 | 64 | 1012.3 |
| 20260904234036 | 28 | 16 | 4.8 | 12.9 | 0.00 | 0.00 | 0.00 | 64 | 1012.3 |
| 20260904233954 | 28 | 14 | 6.4 | 12.9 | 0.00 | 0.00 | 0.00 | 64 | 1012.3 |
| 20260904233831 | 28 | 10 | 6.4 | 12.9 | 0.00 | 0.00 | 0.00 | 64 | 1012.3 |
| 20260904233729 | 28 | 11 | 4.8 | 12.9 | 0.00 | 0.00 | 0.00 | 64 | 1012.3 |
| 20260904233629 | 28 | 10 | 4.8 | 12.9 | 0.00 | 0.00 | 0.00 | 64 | 1012.3 |
| 20260904233527 | 28 | 13 | 8.0 | 12.9 | 0.00 | 0.00 | 0.00 | 64 | 1012.3 |
| 20260904233447 | 28 | 14 | 4.8 | 12.9 | 0.00 | 0.00 | 0.00 | 64 | 1012.3 |
| 20260904233345 | 28 | 17 | 6.4 | 12.9 | 0.00 | 0.00 | 0.00 | 64 | 1012.3 |
| 20260904233239 | 28 | 16 | 6.4 | 12.9 | 0.00 | 0.00 | 0.00 | 64 | 1012.3 |
| 20260904233148 | 28 | 18 | 6.4 | 12.9 | 0.00 | 0.00 | 0.00 | 64 | 1012.3 |
| 20260904233025 | 28 | 21 | 8.0 | 12.9 | 0.00 | 0.00 | 0.00 | 64 | 1012.3 |
| 20260904232942 | 28 | 21 | 8.0 | 12.9 | 0.00 | 0.00 | 0.00 | 64 | 1012.3 |
| 20260904232841 | 28 | 23 | 8.0 | 12.9 | 0.00 | 0.00 | 0.00 | 63 | 1012.3 |
| 20260904232739 | 28 | 23 | 11.3 | 12.9 | 0.00 | 0.00 | 0.00 | 63 | 1012.2 |
| 20260904232637 | 28 | 31 | 11.3 | 12.9 | 0.00 | 0.00 | 0.00 | 63 | 1012.2 |
| 20260904232536 | 28 | 4 | 8.0 | 12.9 | 0.00 | 0.00 | 0.00 | 63 | 1012.2 |
| 20260904232459 | 28 | 360 | 6.4 | 12.9 | 0.00 | 0.00 | 0.00 | 63 | 1012.2 |
| 20260904232356 | 28 | 14 | 8.0 | 12.9 | 0.00 | 0.00 | 0.00 | 63 | 1012.2 |
| 20260904232233 | 28 | 1 | 9.7 | 12.9 | 0.00 | 0.00 | 0.00 | 63 | 1012.2 |
| 20260904232132 | 28 | 325 | 9.7 | 12.9 | 0.00 | 0.00 | 0.00 | 63 | 1012.2 |
| 20260904232030 | 28 | 353 | 9.7 | 12.9 | 0.00 | 0.00 | 0.00 | 62 | 1012.2 |
| 20260904231929 | 28 | 325 | 9.7 | 12.9 | 0.00 | 0.00 | 0.00 | 62 | 1012.2 |
| 20260904231828 | 29 | 350 | 6.4 | 12.9 | 0.00 | 0.00 | 0.00 | 62 | 1012.2 |
| 20260904231743 | 29 | 346 | 8.0 | 12.9 | 0.00 | 0.00 | 0.00 | 62 | 1012.2 |
| 20260904231651 | 29 | 360 | 8.0 | 12.9 | 0.00 | 0.00 | 0.00 | 62 | 1012.2 |
| 20260904231530 | 29 | 360 | 9.7 | 12.9 | 0.00 | 0.00 | 0.00 | 62 | 1012.2 |
| 20260904231449 | 29 | 1 | 4.8 | 12.9 | 0.00 | 0.00 | 0.00 | 62 | 1012.2 |
| 20260904231326 | 29 | 3 | 9.7 | 16.1 | 0.00 | 0.00 | 0.00 | 62 | 1012.2 |
| 20260904231243 | 29 | 4 | 8.0 | 16.1 | 0.00 | 0.00 | 0.00 | 63 | 1012.3 |
| 20260904231140 | 29 | 360 | 6.4 | 16.1 | 0.00 | 0.00 | 0.00 | 63 | 1012.3 |
| 20260904231039 | 29 | 3 | 4.8 | 17.7 | 0.00 | 0.00 | 0.00 | 63 | 1012.3 |
| 20260904230941 | 29 | 4 | 4.8 | 17.7 | 0.00 | 0.00 | 0.00 | 63 | 1012.3 |
| 20260904230859 | 29 | 3 | 4.8 | 17.7 | 0.00 | 0.00 | 0.00 | 62 | 1012.3 |
| 20260904230756 | 29 | 4 | 6.4 | 17.7 | 0.00 | 0.00 | 0.00 | 62 | 1012.3 |
| 20260904230635 | 29 | 6 | 8.0 | 17.7 | 0.00 | 0.00 | 0.00 | 62 | 1012.3 |
| 20260904230534 | 29 | 35 | 11.3 | 17.7 | 0.00 | 0.00 | 0.00 | 62 | 1012.3 |
| 20260904230433 | 29 | 360 | 9.7 | 17.7 | 0.00 | 0.00 | 0.00 | 62 | 1012.3 |
| 20260904230330 | 29 | 360 | 11.3 | 17.7 | 0.00 | 0.00 | 0.00 | 62 | 1012.3 |
| 20260904230300 | 29 | 360 | 11.3 | 17.7 | 0.00 | 0.00 | 0.00 | 62 | 1012.3 |
| 20260904230149 | 29 | 326 | 9.7 | 17.7 | 0.00 | 0.00 | 0.00 | 62 | 1012.3 |
| 20260904230029 | 29 | 346 | 3.2 | 9.7 | 0.00 | 0.00 | 0.00 | 62 | 1012.3 |
| 20260904225927 | 29 | 346 | 6.4 | 9.7 | 0.00 | 0.00 | 0.00 | 62 | 1012.3 |
| 20260904225824 | 29 | 342 | 6.4 | 9.7 | 0.00 | 0.00 | 0.00 | 62 | 1012.3 |
| 20260904225743 | 29 | 343 | 6.4 | 9.7 | 0.00 | 0.00 | 0.00 | 62 | 1011.8 |
| 20260904225642 | 29 | 340 | 3.2 | 8.0 | 0.00 | 0.00 | 0.00 | 61 | 1011.8 |
| 20260904225540 | 29 | 342 | 3.2 | 8.0 | 0.00 | 0.00 | 0.00 | 61 | 1011.8 |
| 20260904225437 | 29 | 342 | 4.8 | 8.0 | 0.00 | 0.00 | 0.00 | 61 | 1011.8 |
| 20260904225339 | 29 | 336 | 3.2 | 9.7 | 0.00 | 0.00 | 0.00 | 61 | 1011.8 |
| 20260904225238 | 29 | 336 | 3.2 | 11.3 | 0.00 | 0.00 | 0.00 | 61 | 1011.8 |
| 20260904225136 | 29 | 336 | 4.8 | 11.3 | 0.00 | 0.00 | 0.00 | 61 | 1011.8 |
| 20260904225032 | 29 | 336 | 4.8 | 11.3 | 0.00 | 0.00 | 0.00 | 61 | 1011.8 |
| 20260904224930 | 29 | 335 | 4.8 | 11.3 | 0.00 | 0.00 | 0.00 | 60 | 1011.8 |
| 20260904224827 | 29 | 336 | 4.8 | 11.3 | 0.00 | 0.00 | 0.00 | 60 | 1011.8 |
| 20260904224736 | 29 | 332 | 3.2 | 11.3 | 0.00 | 0.00 | 0.00 | 60 | 1011.8 |
| 20260904224645 | 29 | 333 | 1.6 | 11.3 | 0.00 | 0.00 | 0.00 | 62 | 1011.8 |
| 20260904224528 | 30 | 330 | 3.2 | 11.3 | 0.00 | 0.00 | 0.00 | 62 | 1011.8 |
| 20260904224425 | 30 | 322 | 8.0 | 11.3 | 0.00 | 0.00 | 0.00 | 61 | 1011.8 |
| 20260904224324 | 30 | 37 | 3.2 | 8.0 | 0.00 | 0.00 | 0.00 | 61 | 1011.8 |
| 20260904224242 | 30 | 37 | 1.6 | 8.0 | 0.00 | 0.00 | 0.00 | 62 | 1012.1 |
| 20260904224140 | 30 | 35 | 0.0 | 8.0 | 0.00 | 0.00 | 0.00 | 62 | 1012.1 |
| 20260904224040 | 30 | 35 | 0.0 | 8.0 | 0.00 | 0.00 | 0.00 | 62 | 1012.1 |
| 20260904223940 | 30 | 35 | 1.6 | 8.0 | 0.00 | 0.00 | 0.00 | 62 | 1012.1 |
| 20260904223858 | 30 | 38 | 1.6 | 8.0 | 0.00 | 0.00 | 0.00 | 62 | 1012.1 |
| 20260904223740 | 30 | 37 | 1.6 | 8.0 | 0.00 | 0.00 | 0.00 | 62 | 1012.1 |
| 20260904223638 | 30 | 37 | 4.8 | 8.0 | 0.00 | 0.00 | 0.00 | 62 | 1012.1 |
| 20260904223536 | 30 | 35 | 4.8 | 8.0 | 0.00 | 0.00 | 0.00 | 62 | 1012.1 |
| 20260904223433 | 29 | 35 | 3.2 | 8.0 | 0.00 | 0.00 | 0.00 | 61 | 1012.1 |
| 20260904223331 | 29 | 37 | 3.2 | 8.0 | 0.00 | 0.00 | 0.00 | 61 | 1012.1 |
| 20260904223250 | 29 | 38 | 3.2 | 8.0 | 0.00 | 0.00 | 0.00 | 62 | 1012.1 |
| 20260904223159 | 29 | 37 | 3.2 | 8.0 | 0.00 | 0.00 | 0.00 | 62 | 1012.1 |
| 20260904223039 | 29 | 35 | 3.2 | 8.0 | 0.00 | 0.00 | 0.00 | 63 | 1012.1 |
| 20260904222942 | 29 | 37 | 3.2 | 8.0 | 0.00 | 0.00 | 0.00 | 63 | 1012.1 |
| 20260904222902 | 29 | 37 | 3.2 | 8.0 | 0.00 | 0.00 | 0.00 | 62 | 1012.1 |
| 20260904222740 | 29 | 37 | 3.2 | 8.0 | 0.00 | 0.00 | 0.00 | 62 | 1012.0 |
| 20260904222638 | 29 | 37 | 3.2 | 8.0 | 0.00 | 0.00 | 0.00 | 62 | 1012.0 |
| 20260904222557 | 29 | 37 | 4.8 | 8.0 | 0.00 | 0.00 | 0.00 | 62 | 1012.0 |
| 20260904222434 | 29 | 37 | 4.8 | 8.0 | 0.00 | 0.00 | 0.00 | 62 | 1012.0 |
| 20260904222336 | 29 | 38 | 3.2 | 4.8 | 0.00 | 0.00 | 0.00 | 62 | 1012.0 |
| 20260904222238 | 29 | 35 | 3.2 | 4.8 | 0.00 | 0.00 | 0.00 | 62 | 1012.0 |
| 20260904222138 | 29 | 37 | 3.2 | 4.8 | 0.00 | 0.00 | 0.00 | 62 | 1012.0 |
| 20260904222035 | 29 | 37 | 3.2 | 4.8 | 0.00 | 0.00 | 0.00 | 62 | 1012.0 |
| 20260904221933 | 29 | 35 | 3.2 | 4.8 | 0.00 | 0.00 | 0.00 | 61 | 1012.0 |
| 20260904221832 | 29 | 32 | 1.6 | 4.8 | 0.00 | 0.00 | 0.00 | 61 | 1012.0 |
| 20260904221742 | 29 | 37 | 3.2 | 4.8 | 0.00 | 0.00 | 0.00 | 61 | 1012.0 |
| 20260904221651 | 29 | 37 | 1.6 | 4.8 | 0.00 | 0.00 | 0.00 | 61 | 1012.0 |
| 20260904221532 | 29 | 37 | 0.0 | 3.2 | 0.00 | 0.00 | 0.00 | 61 | 1012.0 |
| 20260904221451 | 29 | 34 | 0.0 | 1.6 | 0.00 | 0.00 | 0.00 | 62 | 1012.0 |
| 20260904221327 | 29 | 38 | 0.0 | 0.0 | 0.00 | 0.00 | 0.00 | 62 | 1012.0 |
| 20260904221245 | 29 | 38 | 0.0 | 0.0 | 0.00 | 0.00 | 0.00 | 62 | 1012.0 |
| 20260904221143 | 29 | 35 | 0.0 | 0.0 | 0.00 | 0.00 | 0.00 | 61 | 1012.0 |
| 20260904221042 | 28 | 34 | 0.0 | 0.0 | 0.00 | 0.00 | 0.00 | 63 | 1012.0 |
| 20260904220921 | 28 | 37 | 0.0 | 3.2 | 0.00 | 0.00 | 0.00 | 63 | 1012.0 |
| 20260904220843 | 28 | 37 | 0.0 | 3.2 | 0.00 | 0.00 | 0.00 | 65 | 1012.0 |
| 20260904220724 | 28 | 34 | 0.0 | 3.2 | 0.00 | 0.00 | 0.00 | 65 | 1012.0 |
| 20260904220626 | 28 | 37 | 0.0 | 3.2 | 0.00 | 0.00 | 0.00 | 65 | 1012.0 |
| 20260904220544 | 28 | 37 | 0.0 | 3.2 | 0.00 | 0.00 | 0.00 | 64 | 1012.0 |
| 20260904220503 | 28 | 37 | 0.0 | 4.8 | 0.00 | 0.00 | 0.00 | 64 | 1012.0 |
| 20260904220340 | 28 | 37 | 0.0 | 4.8 | 0.00 | 0.00 | 0.00 | 64 | 1012.0 |
| 20260904220238 | 28 | 37 | 0.0 | 4.8 | 0.00 | 0.00 | 0.00 | 63 | 1012.0 |
| 20260904220209 | 28 | 34 | 1.6 | 4.8 | 0.00 | 0.00 | 0.00 | 63 | 1012.0 |
| 20260904220045 | 28 | 37 | 1.6 | 4.8 | 0.00 | 0.00 | 0.00 | 63 | 1012.0 |
| 20260904215941 | 28 | 37 | 1.6 | 4.8 | 0.00 | 0.00 | 0.00 | 63 | 1012.0 |
| 20260904215824 | 28 | 38 | 3.2 | 4.8 | 0.00 | 0.00 | 0.00 | 63 | 1012.0 |
| 20260904215743 | 28 | 37 | 3.2 | 4.8 | 0.00 | 0.00 | 0.00 | 63 | 1011.8 |
| 20260904215641 | 28 | 35 | 3.2 | 4.8 | 0.00 | 0.00 | 0.00 | 63 | 1011.8 |
| 20260904215541 | 28 | 37 | 3.2 | 4.8 | 0.00 | 0.00 | 0.00 | 63 | 1011.8 |
| 20260904215439 | 28 | 35 | 3.2 | 4.8 | 0.00 | 0.00 | 0.00 | 63 | 1011.8 |
| 20260904215338 | 28 | 37 | 3.2 | 4.8 | 0.00 | 0.00 | 0.00 | 63 | 1011.8 |
| 20260904215237 | 28 | 35 | 3.2 | 4.8 | 0.00 | 0.00 | 0.00 | 63 | 1011.8 |
| 20260904215140 | 28 | 37 | 3.2 | 4.8 | 0.00 | 0.00 | 0.00 | 63 | 1011.8 |
| 20260904215039 | 28 | 35 | 1.6 | 4.8 | 0.00 | 0.00 | 0.00 | 64 | 1011.8 |
| 20260904214937 | 28 | 38 | 1.6 | 4.8 | 0.00 | 0.00 | 0.00 | 63 | 1011.8 |
| 20260904214835 | 28 | 38 | 1.6 | 4.8 | 0.00 | 0.00 | 0.00 | 63 | 1011.8 |
| 20260904214734 | 28 | 38 | 3.2 | 4.8 | 0.00 | 0.00 | 0.00 | 64 | 1011.8 |
| 20260904214703 | 28 | 37 | 3.2 | 8.0 | 0.00 | 0.00 | 0.00 | 64 | 1011.8 |
| 20260904214601 | 28 | 38 | 3.2 | 8.0 | 0.00 | 0.00 | 0.00 | 64 | 1011.8 |
| 20260904214424 | 28 | 37 | 3.2 | 8.0 | 0.00 | 0.00 | 0.00 | 64 | 1011.8 |
| 20260904214325 | 28 | 37 | 3.2 | 9.7 | 0.00 | 0.00 | 0.00 | 64 | 1011.8 |
| 20260904214244 | 28 | 38 | 3.2 | 9.7 | 0.00 | 0.00 | 0.00 | 63 | 1011.8 |
| 20260904214141 | 28 | 37 | 3.2 | 9.7 | 0.00 | 0.00 | 0.00 | 63 | 1011.8 |
| 20260904214040 | 28 | 37 | 3.2 | 9.7 | 0.00 | 0.00 | 0.00 | 63 | 1011.8 |
| 20260904213938 | 28 | 38 | 3.2 | 9.7 | 0.00 | 0.00 | 0.00 | 63 | 1011.8 |
| 20260904213838 | 28 | 37 | 4.8 | 9.7 | 0.00 | 0.00 | 0.00 | 63 | 1011.8 |
| 20260904213739 | 28 | 32 | 4.8 | 9.7 | 0.00 | 0.00 | 0.00 | 63 | 1011.8 |
| 20260904213637 | 28 | 37 | 6.4 | 9.7 | 0.00 | 0.00 | 0.00 | 63 | 1011.8 |
| 20260904213536 | 28 | 38 | 6.4 | 9.7 | 0.00 | 0.00 | 0.00 | 62 | 1011.8 |
| 20260904213435 | 28 | 37 | 6.4 | 9.7 | 0.00 | 0.00 | 0.00 | 63 | 1011.8 |
| 20260904213332 | 28 | 35 | 6.4 | 9.7 | 0.00 | 0.00 | 0.00 | 63 | 1011.8 |
| 20260904213241 | 28 | 34 | 8.0 | 9.7 | 0.00 | 0.00 | 0.00 | 63 | 1011.8 |
| 20260904213152 | 28 | 35 | 8.0 | 9.7 | 0.00 | 0.00 | 0.00 | 63 | 1011.8 |
| 20260904213033 | 28 | 37 | 6.4 | 9.7 | 0.00 | 0.00 | 0.00 | 63 | 1011.8 |
| 20260904212930 | 28 | 35 | 4.8 | 9.7 | 0.00 | 0.00 | 0.00 | 63 | 1011.8 |
| 20260904212830 | 28 | 37 | 8.0 | 9.7 | 0.00 | 0.00 | 0.00 | 63 | 1011.8 |
| 20260904212749 | 28 | 35 | 6.4 | 8.0 | 0.00 | 0.00 | 0.00 | 63 | 1011.9 |
| 20260904212646 | 28 | 34 | 6.4 | 8.0 | 0.00 | 0.00 | 0.00 | 62 | 1011.9 |
| 20260904212604 | 28 | 35 | 6.4 | 8.0 | 0.00 | 0.00 | 0.00 | 63 | 1011.9 |
| 20260904212441 | 28 | 31 | 4.8 | 6.4 | 0.00 | 0.00 | 0.00 | 63 | 1011.9 |
| 20260904212338 | 28 | 35 | 4.8 | 4.8 | 0.00 | 0.00 | 0.00 | 63 | 1011.9 |
| 20260904212241 | 28 | 34 | 4.8 | 4.8 | 0.00 | 0.00 | 0.00 | 63 | 1011.9 |
| 20260904212139 | 28 | 37 | 3.2 | 4.8 | 0.00 | 0.00 | 0.00 | 63 | 1011.9 |
| 20260904212058 | 28 | 32 | 3.2 | 4.8 | 0.00 | 0.00 | 0.00 | 63 | 1011.9 |
| 20260904211936 | 28 | 34 | 3.2 | 4.8 | 0.00 | 0.00 | 0.00 | 62 | 1011.9 |
| 20260904211833 | 28 | 35 | 1.6 | 4.8 | 0.00 | 0.00 | 0.00 | 62 | 1011.9 |
| 20260904211744 | 28 | 34 | 3.2 | 4.8 | 0.00 | 0.00 | 0.00 | 62 | 1011.9 |
| 20260904211652 | 28 | 31 | 3.2 | 4.8 | 0.00 | 0.00 | 0.00 | 62 | 1011.9 |
| 20260904211530 | 28 | 34 | 4.8 | 4.8 | 0.00 | 0.00 | 0.00 | 62 | 1011.9 |
| 20260904211432 | 28 | 34 | 4.8 | 4.8 | 0.00 | 0.00 | 0.00 | 61 | 1011.9 |
| 20260904211330 | 28 | 30 | 4.8 | 4.8 | 0.00 | 0.00 | 0.00 | 61 | 1011.9 |
| 20260904211248 | 28 | 35 | 3.2 | 4.8 | 0.00 | 0.00 | 0.00 | 61 | 1011.8 |
| 20260904211145 | 28 | 34 | 3.2 | 4.8 | 0.00 | 0.00 | 0.00 | 60 | 1011.8 |
| 20260904211104 | 29 | 35 | 3.2 | 4.8 | 0.00 | 0.00 | 0.00 | 60 | 1011.8 |
| 20260904211002 | 29 | 35 | 3.2 | 4.8 | 0.00 | 0.00 | 0.00 | 60 | 1011.8 |
| 20260904210840 | 29 | 34 | 3.2 | 4.8 | 0.00 | 0.00 | 0.00 | 60 | 1011.8 |
| 20260904210737 | 29 | 34 | 3.2 | 4.8 | 0.00 | 0.00 | 0.00 | 61 | 1011.8 |
| 20260904210639 | 29 | 34 | 3.2 | 4.8 | 0.00 | 0.00 | 0.00 | 59 | 1011.8 |
| 20260904210538 | 29 | 31 | 3.2 | 4.8 | 0.00 | 0.00 | 0.00 | 60 | 1011.8 |
| 20260904210437 | 29 | 32 | 1.6 | 8.0 | 0.00 | 0.00 | 0.00 | 59 | 1011.8 |
| 20260904210334 | 29 | 34 | 1.6 | 8.0 | 0.00 | 0.00 | 0.00 | 60 | 1011.8 |
| 20260904210233 | 29 | 35 | 3.2 | 9.7 | 0.00 | 0.00 | 0.00 | 60 | 1011.8 |
| 20260904210203 | 29 | 35 | 3.2 | 9.7 | 0.00 | 0.00 | 0.00 | 60 | 1011.8 |
| 20260904210040 | 29 | 35 | 3.2 | 9.7 | 0.00 | 0.00 | 0.00 | 61 | 1011.8 |
| 20260904205942 | 29 | 34 | 3.2 | 9.7 | 0.00 | 0.00 | 0.00 | 61 | 1011.8 |
| 20260904205840 | 29 | 35 | 3.2 | 9.7 | 0.00 | 0.00 | 0.00 | 61 | 1011.8 |
| 20260904205758 | 29 | 32 | 4.8 | 9.7 | 0.00 | 0.00 | 0.00 | 61 | 1011.9 |
| 20260904205635 | 29 | 34 | 4.8 | 9.7 | 0.00 | 0.00 | 0.00 | 60 | 1011.9 |
| 20260904205534 | 29 | 32 | 4.8 | 9.7 | 0.00 | 0.00 | 0.00 | 61 | 1011.9 |
| 20260904205432 | 29 | 34 | 6.4 | 9.7 | 0.00 | 0.00 | 0.00 | 63 | 1011.9 |
| 20260904205331 | 29 | 32 | 6.4 | 9.7 | 0.00 | 0.00 | 0.00 | 62 | 1011.9 |
| 20260904205234 | 29 | 31 | 6.4 | 9.7 | 0.00 | 0.00 | 0.00 | 62 | 1011.9 |
| 20260904205135 | 29 | 31 | 8.0 | 9.7 | 0.00 | 0.00 | 0.00 | 61 | 1011.9 |
| 20260904205053 | 29 | 38 | 8.0 | 9.7 | 0.00 | 0.00 | 0.00 | 61 | 1011.9 |
| 20260904204930 | 29 | 42 | 6.4 | 9.7 | 0.00 | 0.00 | 0.00 | 61 | 1011.9 |
| 20260904204828 | 29 | 47 | 4.8 | 8.0 | 0.00 | 0.00 | 0.00 | 61 | 1011.9 |
| 20260904204746 | 29 | 45 | 3.2 | 8.0 | 0.00 | 0.00 | 0.00 | 61 | 1011.9 |
| 20260904204654 | 29 | 47 | 4.8 | 8.0 | 0.00 | 0.00 | 0.00 | 61 | 1011.9 |
| 20260904204533 | 29 | 45 | 3.2 | 8.0 | 0.00 | 0.00 | 0.00 | 60 | 1011.9 |
| 20260904204451 | 29 | 45 | 4.8 | 8.0 | 0.00 | 0.00 | 0.00 | 61 | 1011.9 |
| 20260904204332 | 29 | 45 | 4.8 | 11.3 | 0.00 | 0.00 | 0.00 | 60 | 1011.9 |
| 20260904204231 | 29 | 45 | 6.4 | 11.3 | 0.00 | 0.00 | 0.00 | 59 | 1012.2 |
| 20260904204148 | 29 | 47 | 6.4 | 11.3 | 0.00 | 0.00 | 0.00 | 60 | 1012.2 |
| 20260904204024 | 29 | 44 | 4.8 | 11.3 | 0.00 | 0.00 | 0.00 | 60 | 1012.2 |
| 20260904203944 | 29 | 44 | 4.8 | 11.3 | 0.00 | 0.00 | 0.00 | 60 | 1012.2 |
| 20260904203841 | 29 | 44 | 3.2 | 11.3 | 0.00 | 0.00 | 0.00 | 60 | 1012.2 |
| 20260904203740 | 29 | 42 | 4.8 | 11.3 | 0.00 | 0.00 | 0.00 | 60 | 1012.2 |
| 20260904203638 | 29 | 47 | 6.4 | 11.3 | 0.00 | 0.00 | 0.00 | 59 | 1012.2 |
| 20260904203541 | 29 | 45 | 8.0 | 14.5 | 0.00 | 0.00 | 0.00 | 60 | 1012.2 |
| 20260904203439 | 29 | 45 | 8.0 | 14.5 | 0.00 | 0.00 | 0.00 | 59 | 1012.2 |
| 20260904203358 | 29 | 45 | 6.4 | 14.5 | 0.00 | 0.00 | 0.00 | 58 | 1012.2 |
| 20260904203235 | 29 | 44 | 6.4 | 14.5 | 0.00 | 0.00 | 0.00 | 58 | 1012.2 |
| 20260904203206 | 29 | 44 | 8.0 | 14.5 | 0.00 | 0.00 | 0.00 | 58 | 1012.2 |
| 20260904203041 | 30 | 47 | 8.0 | 14.5 | 0.00 | 0.00 | 0.00 | 57 | 1012.2 |
| 20260904203001 | 30 | 45 | 8.0 | 14.5 | 0.00 | 0.00 | 0.00 | 58 | 1012.2 |
| 20260904202839 | 30 | 44 | 8.0 | 14.5 | 0.00 | 0.00 | 0.00 | 58 | 1012.2 |
| 20260904202742 | 30 | 45 | 9.7 | 14.5 | 0.00 | 0.00 | 0.00 | 57 | 1013.4 |
| 20260904202640 | 30 | 48 | 11.3 | 14.5 | 0.00 | 0.00 | 0.00 | 58 | 1013.4 |
| 20260904202538 | 30 | 48 | 11.3 | 12.9 | 0.00 | 0.00 | 0.00 | 58 | 1013.4 |
| 20260904202436 | 30 | 48 | 9.7 | 12.9 | 0.00 | 0.00 | 0.00 | 57 | 1013.4 |
| 20260904202335 | 30 | 49 | 9.7 | 12.9 | 0.00 | 0.00 | 0.00 | 58 | 1013.4 |
| 20260904202234 | 30 | 48 | 11.3 | 12.9 | 0.00 | 0.00 | 0.00 | 58 | 1013.4 |
| 20260904202151 | 30 | 51 | 11.3 | 12.9 | 0.00 | 0.00 | 0.00 | 58 | 1013.4 |
| 20260904202049 | 30 | 49 | 9.7 | 12.9 | 0.00 | 0.00 | 0.00 | 56 | 1013.4 |
| 20260904201930 | 30 | 49 | 11.3 | 12.9 | 0.00 | 0.00 | 0.00 | 57 | 1013.4 |
| 20260904201849 | 30 | 48 | 11.3 | 12.9 | 0.00 | 0.00 | 0.00 | 58 | 1013.4 |
| 20260904201738 | 30 | 47 | 9.7 | 12.9 | 0.00 | 0.00 | 0.00 | 57 | 1013.4 |
| 20260904201648 | 30 | 49 | 9.7 | 12.9 | 0.00 | 0.00 | 0.00 | 57 | 1013.4 |
| 20260904201545 | 30 | 44 | 8.0 | 12.9 | 0.00 | 0.00 | 0.00 | 57 | 1013.4 |
| 20260904201503 | 30 | 31 | 6.4 | 12.9 | 0.00 | 0.00 | 0.00 | 57 | 1013.4 |
| 20260904201342 | 30 | 44 | 8.0 | 14.5 | 0.00 | 0.00 | 0.00 | 59 | 1013.4 |
| 20260904201240 | 30 | 47 | 9.7 | 16.1 | 0.00 | 0.00 | 0.00 | 59 | 1013.6 |
| 20260904201124 | 30 | 49 | 8.0 | 16.1 | 0.00 | 0.00 | 0.00 | 59 | 1013.6 |
| 20260904201043 | 30 | 48 | 8.0 | 16.1 | 0.00 | 0.00 | 0.00 | 58 | 1013.6 |
| 20260904200943 | 30 | 49 | 9.7 | 16.1 | 0.00 | 0.00 | 0.00 | 58 | 1013.6 |
| 20260904200841 | 30 | 51 | 8.0 | 16.1 | 0.00 | 0.00 | 0.00 | 57 | 1013.6 |
| 20260904200739 | 30 | 48 | 9.7 | 16.1 | 0.00 | 0.00 | 0.00 | 57 | 1013.6 |
| 20260904200638 | 31 | 52 | 9.7 | 17.7 | 0.00 | 0.00 | 0.00 | 58 | 1013.6 |
| 20260904200535 | 31 | 61 | 9.7 | 19.3 | 0.00 | 0.00 | 0.00 | 57 | 1013.6 |
| 20260904200439 | 31 | 71 | 11.3 | 19.3 | 0.00 | 0.00 | 0.00 | 57 | 1013.6 |
| 20260904200337 | 31 | 54 | 6.4 | 19.3 | 0.00 | 0.00 | 0.00 | 56 | 1013.6 |
| 20260904200236 | 31 | 51 | 6.4 | 19.3 | 0.00 | 0.00 | 0.00 | 56 | 1013.6 |
| 20260904200146 | 31 | 54 | 12.9 | 22.5 | 0.00 | 0.00 | 0.00 | 56 | 1013.6 |
| 20260904200024 | 31 | 68 | 12.9 | 27.4 | 0.00 | 0.00 | 0.00 | 57 | 1013.6 |
| 20260904195942 | 31 | 35 | 11.3 | 27.4 | 0.00 | 0.00 | 0.00 | 57 | 1013.6 |
| 20260904195821 | 31 | 51 | 14.5 | 29.0 | 0.00 | 0.00 | 0.00 | 57 | 1013.6 |
| 20260904195726 | 31 | 48 | 14.5 | 29.0 | 0.00 | 0.00 | 0.00 | 57 | 1013.7 |
| 20260904195624 | 31 | 58 | 12.9 | 29.0 | 0.00 | 0.00 | 0.00 | 57 | 1013.7 |
| 20260904195542 | 31 | 65 | 12.9 | 29.0 | 0.00 | 0.00 | 0.00 | 58 | 1013.7 |
| 20260904195442 | 31 | 62 | 14.5 | 29.0 | 0.00 | 0.00 | 0.00 | 57 | 1013.7 |
| 20260904195359 | 31 | 61 | 14.5 | 29.0 | 0.00 | 0.00 | 0.00 | 56 | 1013.7 |
| 20260904195236 | 31 | 90 | 16.1 | 29.0 | 0.00 | 0.00 | 0.00 | 56 | 1013.7 |
| 20260904195135 | 31 | 99 | 11.3 | 29.0 | 0.00 | 0.00 | 0.00 | 56 | 1013.7 |
| 20260904195054 | 31 | 45 | 17.7 | 29.0 | 0.00 | 0.00 | 0.00 | 56 | 1013.7 |
| 20260904194935 | 31 | 41 | 16.1 | 29.0 | 0.00 | 0.00 | 0.00 | 57 | 1013.7 |
| 20260904194833 | 31 | 75 | 9.7 | 12.9 | 0.00 | 0.00 | 0.00 | 56 | 1013.7 |
| 20260904194741 | 31 | 62 | 8.0 | 12.9 | 0.00 | 0.00 | 0.00 | 57 | 1013.7 |
| 20260904194649 | 31 | 59 | 9.7 | 12.9 | 0.00 | 0.00 | 0.00 | 56 | 1013.7 |
| 20260904194528 | 31 | 54 | 3.2 | 12.9 | 0.00 | 0.00 | 0.00 | 55 | 1013.7 |
| 20260904194428 | 31 | 51 | 8.0 | 12.9 | 0.00 | 0.00 | 0.00 | 57 | 1013.7 |
| 20260904194327 | 31 | 58 | 9.7 | 12.9 | 0.00 | 0.00 | 0.00 | 56 | 1013.7 |
| 20260904194246 | 31 | 61 | 3.2 | 11.3 | 0.00 | 0.00 | 0.00 | 56 | 1013.8 |
| 20260904194127 | 31 | 69 | 4.8 | 11.3 | 0.00 | 0.00 | 0.00 | 57 | 1013.8 |
| 20260904194025 | 31 | 55 | 4.8 | 9.7 | 0.00 | 0.00 | 0.00 | 58 | 1013.8 |
| 20260904193944 | 31 | 55 | 6.4 | 9.7 | 0.00 | 0.00 | 0.00 | 58 | 1013.8 |
| 20260904193904 | 31 | 55 | 6.4 | 9.7 | 0.00 | 0.00 | 0.00 | 57 | 1013.8 |
| 20260904193741 | 31 | 55 | 4.8 | 8.0 | 0.00 | 0.00 | 0.00 | 57 | 1013.8 |
| 20260904193700 | 31 | 49 | 0.0 | 3.2 | 0.00 | 0.00 | 0.00 | 56 | 1013.8 |
| 20260904193539 | 31 | 54 | 1.6 | 3.2 | 0.00 | 0.00 | 0.00 | 55 | 1013.8 |
| 20260904193457 | 31 | 51 | 0.0 | 3.2 | 0.00 | 0.00 | 0.00 | 55 | 1013.8 |
| 20260904193339 | 31 | 52 | 0.0 | 4.8 | 0.00 | 0.00 | 0.00 | 55 | 1013.8 |
| 20260904193208 | 31 | 52 | 0.0 | 4.8 | 0.00 | 0.00 | 0.00 | 56 | 1013.8 |
| 20260904193105 | 31 | 52 | 0.0 | 4.8 | 0.00 | 0.00 | 0.00 | 57 | 1013.8 |
| 20260904193002 | 31 | 54 | 0.0 | 4.8 | 0.00 | 0.00 | 0.00 | 57 | 1013.8 |
| 20260904192840 | 32 | 54 | 0.0 | 4.8 | 0.00 | 0.00 | 0.00 | 54 | 1013.8 |
| 20260904192737 | 32 | 52 | 0.0 | 4.8 | 0.00 | 0.00 | 0.00 | 54 | 1013.8 |
| 20260904192637 | 32 | 52 | 1.6 | 8.0 | 0.00 | 0.00 | 0.00 | 55 | 1013.8 |
| 20260904192535 | 32 | 54 | 3.2 | 8.0 | 0.00 | 0.00 | 0.00 | 57 | 1013.8 |
| 20260904192438 | 32 | 52 | 4.8 | 8.0 | 0.00 | 0.00 | 0.00 | 55 | 1013.8 |
| 20260904192336 | 32 | 54 | 1.6 | 8.0 | 0.00 | 0.00 | 0.00 | 56 | 1013.8 |
| 20260904192234 | 32 | 52 | 0.0 | 8.0 | 0.00 | 0.00 | 0.00 | 55 | 1013.8 |
| 20260904192132 | 32 | 52 | 3.2 | 8.0 | 0.00 | 0.00 | 0.00 | 55 | 1013.8 |
| 20260904192028 | 32 | 51 | 3.2 | 8.0 | 0.00 | 0.00 | 0.00 | 55 | 1013.8 |
| 20260904191927 | 32 | 51 | 1.6 | 8.0 | 0.00 | 0.00 | 0.00 | 56 | 1013.8 |
| 20260904191828 | 32 | 54 | 4.8 | 9.7 | 0.00 | 0.00 | 0.00 | 55 | 1013.8 |
| 20260904191739 | 32 | 49 | 1.6 | 9.7 | 0.00 | 0.00 | 0.00 | 53 | 1013.8 |
| 20260904191646 | 32 | 51 | 1.6 | 9.7 | 0.00 | 0.00 | 0.00 | 53 | 1013.8 |
| 20260904191544 | 32 | 51 | 6.4 | 9.7 | 0.00 | 0.00 | 0.00 | 55 | 1013.8 |
| 20260904191441 | 32 | 51 | 4.8 | 9.7 | 0.00 | 0.00 | 0.00 | 56 | 1013.8 |
| 20260904191359 | 32 | 48 | 1.6 | 9.7 | 0.00 | 0.00 | 0.00 | 56 | 1013.8 |
| 20260904191238 | 32 | 48 | 3.2 | 9.7 | 0.00 | 0.00 | 0.00 | 55 | 1014.1 |
| 20260904191137 | 32 | 48 | 3.2 | 9.7 | 0.00 | 0.00 | 0.00 | 56 | 1014.1 |
| 20260904191040 | 32 | 48 | 6.4 | 9.7 | 0.00 | 0.00 | 0.00 | 57 | 1014.1 |
| 20260904190937 | 32 | 49 | 6.4 | 9.7 | 0.00 | 0.00 | 0.00 | 56 | 1014.1 |
| 20260904190836 | 32 | 48 | 4.8 | 9.7 | 0.00 | 0.00 | 0.00 | 55 | 1014.1 |
| 20260904190734 | 32 | 48 | 4.8 | 9.7 | 0.00 | 0.00 | 0.00 | 54 | 1014.1 |
| 20260904190633 | 32 | 48 | 3.2 | 9.7 | 0.00 | 0.00 | 0.00 | 55 | 1014.1 |
| 20260904190531 | 32 | 48 | 4.8 | 9.7 | 0.00 | 0.00 | 0.00 | 55 | 1014.1 |
| 20260904190430 | 32 | 16 | 3.2 | 8.0 | 0.00 | 0.00 | 0.00 | 54 | 1014.1 |
| 20260904190353 | 32 | 14 | 3.2 | 8.0 | 0.00 | 0.00 | 0.00 | 54 | 1014.1 |
| 20260904190301 | 32 | 16 | 1.6 | 8.0 | 0.00 | 0.00 | 0.00 | 54 | 1014.1 |
| 20260904190148 | 32 | 16 | 3.2 | 8.0 | 0.00 | 0.00 | 0.00 | 54 | 1014.1 |
| 20260904190024 | 32 | 18 | 4.8 | 8.0 | 0.00 | 0.00 | 0.00 | 53 | 1014.1 |
| 20260904185943 | 32 | 17 | 3.2 | 8.0 | 0.00 | 0.00 | 0.00 | 53 | 1014.1 |
| 20260904185841 | 32 | 23 | 0.0 | 4.8 | 0.00 | 0.00 | 0.00 | 54 | 1014.1 |
| 20260904185740 | 32 | 23 | 0.0 | 9.7 | 0.00 | 0.00 | 0.00 | 54 | 1014.3 |
| 20260904185658 | 32 | 21 | 0.0 | 9.7 | 0.00 | 0.00 | 0.00 | 54 | 1014.3 |
| 20260904185535 | 32 | 24 | 0.0 | 9.7 | 0.00 | 0.00 | 0.00 | 53 | 1014.3 |
| 20260904185438 | 32 | 20 | 3.2 | 9.7 | 0.00 | 0.00 | 0.00 | 53 | 1014.3 |
| 20260904185337 | 32 | 23 | 1.6 | 9.7 | 0.00 | 0.00 | 0.00 | 53 | 1014.3 |
| 20260904185235 | 32 | 23 | 1.6 | 9.7 | 0.00 | 0.00 | 0.00 | 54 | 1014.3 |
| 20260904185133 | 32 | 21 | 1.6 | 9.7 | 0.00 | 0.00 | 0.00 | 54 | 1014.3 |
| 20260904185031 | 32 | 24 | 1.6 | 9.7 | 0.00 | 0.00 | 0.00 | 54 | 1014.3 |
| 20260904184930 | 32 | 21 | 6.4 | 9.7 | 0.00 | 0.00 | 0.00 | 53 | 1014.3 |
| 20260904184833 | 32 | 21 | 4.8 | 9.7 | 0.00 | 0.00 | 0.00 | 53 | 1014.3 |
| 20260904184751 | 32 | 25 | 1.6 | 9.7 | 0.00 | 0.00 | 0.00 | 53 | 1014.3 |
| 20260904184720 | 32 | 24 | 4.8 | 9.7 | 0.00 | 0.00 | 0.00 | 52 | 1014.3 |
| 20260904184538 | 32 | 14 | 6.4 | 9.7 | 0.00 | 0.00 | 0.00 | 54 | 1014.3 |
| 20260904184436 | 32 | 13 | 3.2 | 9.7 | 0.00 | 0.00 | 0.00 | 52 | 1014.3 |
| 20260904184335 | 32 | 16 | 6.4 | 9.7 | 0.00 | 0.00 | 0.00 | 52 | 1014.3 |
| 20260904184234 | 32 | 11 | 1.6 | 4.8 | 0.00 | 0.00 | 0.00 | 53 | 1014.5 |
| 20260904184131 | 32 | 11 | 1.6 | 4.8 | 0.00 | 0.00 | 0.00 | 53 | 1014.5 |
| 20260904184036 | 32 | 10 | 0.0 | 6.4 | 0.00 | 0.00 | 0.00 | 53 | 1014.5 |
| 20260904183934 | 32 | 10 | 0.0 | 11.3 | 0.00 | 0.00 | 0.00 | 53 | 1014.5 |
| 20260904183833 | 32 | 11 | 0.0 | 11.3 | 0.00 | 0.00 | 0.00 | 52 | 1014.5 |
| 20260904183731 | 32 | 10 | 0.0 | 11.3 | 0.00 | 0.00 | 0.00 | 51 | 1014.5 |
| 20260904183652 | 32 | 8 | 0.0 | 11.3 | 0.00 | 0.00 | 0.00 | 51 | 1014.5 |
| 20260904183529 | 32 | 11 | 0.0 | 11.3 | 0.00 | 0.00 | 0.00 | 52 | 1014.5 |
| 20260904183428 | 32 | 11 | 1.6 | 11.3 | 0.00 | 0.00 | 0.00 | 52 | 1014.5 |
| 20260904183330 | 32 | 10 | 3.2 | 11.3 | 0.00 | 0.00 | 0.00 | 53 | 1014.5 |
| 20260904183248 | 32 | 10 | 4.8 | 11.3 | 0.00 | 0.00 | 0.00 | 52 | 1014.5 |
| 20260904183157 | 32 | 11 | 6.4 | 11.3 | 0.00 | 0.00 | 0.00 | 53 | 1014.5 |
| 20260904183033 | 32 | 10 | 8.0 | 11.3 | 0.00 | 0.00 | 0.00 | 52 | 1014.5 |
| 20260904182932 | 32 | 4 | 4.8 | 11.3 | 0.00 | 0.00 | 0.00 | 53 | 1014.5 |
| 20260904182829 | 32 | 325 | 0.0 | 11.3 | 0.00 | 0.00 | 0.00 | 52 | 1014.5 |
| 20260904182749 | 32 | 323 | 0.0 | 11.3 | 0.00 | 0.00 | 0.00 | 53 | 1014.6 |
| 20260904182625 | 32 | 325 | 6.4 | 11.3 | 0.00 | 0.00 | 0.00 | 53 | 1014.6 |
| 20260904182544 | 32 | 328 | 4.8 | 11.3 | 0.00 | 0.00 | 0.00 | 52 | 1014.6 |
| 20260904182426 | 32 | 17 | 1.6 | 11.3 | 0.00 | 0.00 | 0.00 | 53 | 1014.6 |
| 20260904182325 | 31 | 18 | 6.4 | 11.3 | 0.00 | 0.00 | 0.00 | 53 | 1014.6 |
| 20260904182244 | 31 | 17 | 9.7 | 11.3 | 0.00 | 0.00 | 0.00 | 53 | 1014.6 |
| 20260904182121 | 31 | 16 | 3.2 | 9.7 | 0.00 | 0.00 | 0.00 | 53 | 1014.6 |
| 20260904182023 | 31 | 44 | 6.4 | 9.7 | 0.00 | 0.00 | 0.00 | 54 | 1014.6 |
| 20260904181926 | 31 | 11 | 6.4 | 9.7 | 0.00 | 0.00 | 0.00 | 54 | 1014.6 |
| 20260904181828 | 31 | 13 | 3.2 | 9.7 | 0.00 | 0.00 | 0.00 | 53 | 1014.6 |
| 20260904181726 | 31 | 360 | 3.2 | 6.4 | 0.00 | 0.00 | 0.00 | 55 | 1014.6 |
| 20260904181659 | 31 | 360 | 1.6 | 6.4 | 0.00 | 0.00 | 0.00 | 55 | 1014.6 |
| 20260904181600 | 31 | 344 | 0.0 | 6.4 | 0.00 | 0.00 | 0.00 | 54 | 1014.6 |
| 20260904181438 | 31 | 344 | 0.0 | 8.0 | 0.00 | 0.00 | 0.00 | 55 | 1014.6 |
| 20260904181336 | 31 | 343 | 0.0 | 9.7 | 0.00 | 0.00 | 0.00 | 54 | 1014.6 |
| 20260904181238 | 31 | 344 | 1.6 | 9.7 | 0.00 | 0.00 | 0.00 | 54 | 1014.7 |
| 20260904181136 | 31 | 340 | 4.8 | 9.7 | 0.00 | 0.00 | 0.00 | 53 | 1014.7 |
| 20260904181039 | 32 | 343 | 3.2 | 9.7 | 0.00 | 0.00 | 0.00 | 53 | 1014.7 |
| 20260904180937 | 32 | 346 | 1.6 | 9.7 | 0.00 | 0.00 | 0.00 | 52 | 1014.7 |
| 20260904180834 | 32 | 344 | 3.2 | 9.7 | 0.00 | 0.00 | 0.00 | 53 | 1014.7 |
| 20260904180732 | 32 | 344 | 1.6 | 9.7 | 0.00 | 0.00 | 0.00 | 53 | 1014.7 |
| 20260904180631 | 32 | 346 | 4.8 | 12.9 | 0.00 | 0.00 | 0.00 | 52 | 1014.7 |
| 20260904180528 | 32 | 349 | 6.4 | 12.9 | 0.00 | 0.00 | 0.00 | 51 | 1014.7 |
| 20260904180428 | 32 | 35 | 0.0 | 12.9 | 0.00 | 0.00 | 0.00 | 52 | 1014.7 |
| 20260904180331 | 32 | 34 | 3.2 | 12.9 | 0.00 | 0.00 | 0.00 | 53 | 1014.7 |
| 20260904180240 | 32 | 35 | 1.6 | 12.9 | 0.00 | 0.00 | 0.00 | 53 | 1014.7 |
| 20260904180151 | 32 | 37 | 3.2 | 12.9 | 0.00 | 0.00 | 0.00 | 53 | 1014.7 |
| 20260904180047 | 32 | 32 | 3.2 | 12.9 | 0.00 | 0.00 | 0.00 | 53 | 1014.7 |
| 20260904175925 | 32 | 37 | 6.4 | 12.9 | 0.00 | 0.00 | 0.00 | 54 | 1014.7 |
| 20260904175824 | 32 | 44 | 6.4 | 12.9 | 0.00 | 0.00 | 0.00 | 55 | 1014.7 |
| 20260904175727 | 32 | 360 | 1.6 | 11.3 | 0.00 | 0.00 | 0.00 | 53 | 1014.9 |
| 20260904175625 | 32 | 352 | 4.8 | 11.3 | 0.00 | 0.00 | 0.00 | 53 | 1014.9 |
| 20260904175528 | 32 | 339 | 6.4 | 11.3 | 0.00 | 0.00 | 0.00 | 53 | 1014.9 |
| 20260904175428 | 32 | 337 | 8.0 | 11.3 | 0.00 | 0.00 | 0.00 | 53 | 1014.9 |
| 20260904175334 | 32 | 347 | 8.0 | 11.3 | 0.00 | 0.00 | 0.00 | 55 | 1014.9 |
| 20260904175230 | 32 | 20 | 1.6 | 8.0 | 0.00 | 0.00 | 0.00 | 54 | 1014.9 |
| 20260904175129 | 32 | 21 | 0.0 | 8.0 | 0.00 | 0.00 | 0.00 | 54 | 1014.9 |
| 20260904175027 | 32 | 21 | 0.0 | 8.0 | 0.00 | 0.00 | 0.00 | 54 | 1014.9 |
| 20260904174930 | 32 | 23 | 0.0 | 11.3 | 0.00 | 0.00 | 0.00 | 56 | 1014.9 |
| 20260904174829 | 32 | 23 | 0.0 | 11.3 | 0.00 | 0.00 | 0.00 | 55 | 1014.9 |
| 20260904174749 | 32 | 21 | 3.2 | 11.3 | 0.00 | 0.00 | 0.00 | 55 | 1014.9 |
| 20260904174657 | 32 | 23 | 4.8 | 11.3 | 0.00 | 0.00 | 0.00 | 54 | 1014.9 |
| 20260904174535 | 32 | 21 | 4.8 | 11.3 | 0.00 | 0.00 | 0.00 | 54 | 1014.9 |
| 20260904174435 | 32 | 20 | 4.8 | 11.3 | 0.00 | 0.00 | 0.00 | 53 | 1014.9 |
| 20260904174333 | 32 | 1 | 3.2 | 11.3 | 0.00 | 0.00 | 0.00 | 53 | 1014.9 |
| 20260904174233 | 32 | 4 | 3.2 | 11.3 | 0.00 | 0.00 | 0.00 | 53 | 1015.1 |
| 20260904174136 | 32 | 325 | 6.4 | 11.3 | 0.00 | 0.00 | 0.00 | 53 | 1015.1 |
| 20260904174034 | 32 | 322 | 3.2 | 11.3 | 0.00 | 0.00 | 0.00 | 55 | 1015.1 |
| 20260904173936 | 32 | 40 | 0.0 | 8.0 | 0.00 | 0.00 | 0.00 | 57 | 1015.1 |
| 20260904173834 | 32 | 37 | 1.6 | 8.0 | 0.00 | 0.00 | 0.00 | 57 | 1015.1 |
| 20260904173732 | 31 | 38 | 0.0 | 9.7 | 0.00 | 0.00 | 0.00 | 56 | 1015.1 |
| 20260904173631 | 31 | 38 | 0.0 | 9.7 | 0.00 | 0.00 | 0.00 | 56 | 1015.1 |
| 20260904173535 | 31 | 38 | 0.0 | 9.7 | 0.00 | 0.00 | 0.00 | 55 | 1015.1 |
| 20260904173432 | 31 | 38 | 1.6 | 9.7 | 0.00 | 0.00 | 0.00 | 57 | 1015.1 |
| 20260904173331 | 31 | 40 | 1.6 | 9.7 | 0.00 | 0.00 | 0.00 | 57 | 1015.1 |
| 20260904173241 | 31 | 40 | 3.2 | 9.7 | 0.00 | 0.00 | 0.00 | 56 | 1015.1 |
| 20260904173151 | 31 | 40 | 6.4 | 9.7 | 0.00 | 0.00 | 0.00 | 58 | 1015.1 |
| 20260904173029 | 31 | 30 | 6.4 | 9.7 | 0.00 | 0.00 | 0.00 | 56 | 1015.1 |
| 20260904172927 | 31 | 32 | 6.4 | 9.7 | 0.00 | 0.00 | 0.00 | 55 | 1015.1 |
| 20260904172831 | 31 | 17 | 4.8 | 9.7 | 0.00 | 0.00 | 0.00 | 56 | 1015.1 |
| 20260904172730 | 31 | 31 | 4.8 | 11.3 | 0.00 | 0.00 | 0.00 | 57 | 1015.3 |
| 20260904172648 | 31 | 28 | 1.6 | 11.3 | 0.00 | 0.00 | 0.00 | 58 | 1015.3 |
| 20260904172526 | 31 | 27 | 3.2 | 11.3 | 0.00 | 0.00 | 0.00 | 58 | 1015.3 |
| 20260904172425 | 31 | 30 | 3.2 | 11.3 | 0.00 | 0.00 | 0.00 | 58 | 1015.3 |
| 20260904172343 | 31 | 30 | 1.6 | 11.3 | 0.00 | 0.00 | 0.00 | 59 | 1015.3 |
| 20260904172241 | 31 | 32 | 3.2 | 11.3 | 0.00 | 0.00 | 0.00 | 60 | 1015.3 |
| 20260904172139 | 31 | 32 | 4.8 | 11.3 | 0.00 | 0.00 | 0.00 | 59 | 1015.3 |
| 20260904172042 | 31 | 34 | 8.0 | 11.3 | 0.00 | 0.00 | 0.00 | 58 | 1015.3 |
| 20260904172000 | 31 | 30 | 8.0 | 11.3 | 0.00 | 0.00 | 0.00 | 56 | 1015.3 |
| 20260904171837 | 31 | 346 | 3.2 | 8.0 | 0.00 | 0.00 | 0.00 | 56 | 1015.3 |
| 20260904171734 | 31 | 343 | 4.8 | 8.0 | 0.00 | 0.00 | 0.00 | 58 | 1015.3 |
| 20260904171703 | 31 | 337 | 3.2 | 8.0 | 0.00 | 0.00 | 0.00 | 59 | 1015.3 |
| 20260904171602 | 31 | 31 | 0.0 | 8.0 | 0.00 | 0.00 | 0.00 | 59 | 1015.3 |
| 20260904171440 | 31 | 30 | 1.6 | 8.0 | 0.00 | 0.00 | 0.00 | 58 | 1015.3 |
| 20260904171339 | 31 | 28 | 4.8 | 8.0 | 0.00 | 0.00 | 0.00 | 60 | 1015.3 |
| 20260904171258 | 31 | 30 | 3.2 | 8.0 | 0.00 | 0.00 | 0.00 | 59 | 1015.6 |
| 20260904171140 | 31 | 27 | 1.6 | 8.0 | 0.00 | 0.00 | 0.00 | 59 | 1015.6 |
| 20260904171038 | 31 | 25 | 1.6 | 8.0 | 0.00 | 0.00 | 0.00 | 58 | 1015.6 |
| 20260904170936 | 31 | 23 | 4.8 | 8.0 | 0.00 | 0.00 | 0.00 | 59 | 1015.6 |
| 20260904170836 | 30 | 24 | 6.4 | 8.0 | 0.00 | 0.00 | 0.00 | 59 | 1015.6 |
| 20260904170733 | 30 | 25 | 3.2 | 8.0 | 0.00 | 0.00 | 0.00 | 59 | 1015.6 |
| 20260904170632 | 30 | 27 | 0.0 | 8.0 | 0.00 | 0.00 | 0.00 | 59 | 1015.6 |
| 20260904170551 | 30 | 27 | 1.6 | 8.0 | 0.00 | 0.00 | 0.00 | 59 | 1015.6 |
| 20260904170449 | 30 | 27 | 4.8 | 11.3 | 0.00 | 0.00 | 0.00 | 58 | 1015.6 |
| 20260904170331 | 30 | 27 | 4.8 | 11.3 | 0.00 | 0.00 | 0.00 | 58 | 1015.6 |
| 20260904170229 | 30 | 24 | 1.6 | 11.3 | 0.00 | 0.00 | 0.00 | 58 | 1015.6 |
| 20260904170200 | 30 | 24 | 1.6 | 11.3 | 0.00 | 0.00 | 0.00 | 57 | 1015.6 |
| 20260904170036 | 30 | 24 | 3.2 | 11.3 | 0.00 | 0.00 | 0.00 | 57 | 1015.6 |
| 20260904165936 | 30 | 25 | 3.2 | 11.3 | 0.00 | 0.00 | 0.00 | 58 | 1015.6 |
| 20260904165835 | 30 | 25 | 3.2 | 11.3 | 0.00 | 0.00 | 0.00 | 58 | 1015.6 |
| 20260904165734 | 30 | 24 | 6.4 | 11.3 | 0.00 | 0.00 | 0.00 | 58 | 1015.8 |
| 20260904165636 | 30 | 24 | 6.4 | 11.3 | 0.00 | 0.00 | 0.00 | 58 | 1015.8 |
| 20260904165533 | 30 | 25 | 6.4 | 11.3 | 0.00 | 0.00 | 0.00 | 59 | 1015.8 |
| 20260904165432 | 30 | 360 | 1.6 | 8.0 | 0.00 | 0.00 | 0.00 | 57 | 1015.8 |
| 20260904165351 | 30 | 360 | 1.6 | 8.0 | 0.00 | 0.00 | 0.00 | 57 | 1015.8 |
| 20260904165226 | 30 | 360 | 3.2 | 8.0 | 0.00 | 0.00 | 0.00 | 56 | 1015.8 |
| 20260904165126 | 30 | 360 | 0.0 | 8.0 | 0.00 | 0.00 | 0.00 | 57 | 1015.8 |
| 20260904165048 | 30 | 360 | 3.2 | 8.0 | 0.00 | 0.00 | 0.00 | 59 | 1015.8 |
| 20260904164926 | 30 | 360 | 6.4 | 8.0 | 0.00 | 0.00 | 0.00 | 58 | 1015.8 |
| 20260904164828 | 30 | 360 | 4.8 | 6.4 | 0.00 | 0.00 | 0.00 | 58 | 1015.8 |
| 20260904164746 | 30 | 360 | 1.6 | 6.4 | 0.00 | 0.00 | 0.00 | 58 | 1015.8 |
| 20260904164716 | 30 | 356 | 0.0 | 4.8 | 0.00 | 0.00 | 0.00 | 58 | 1015.8 |
| 20260904164533 | 30 | 357 | 1.6 | 4.8 | 0.00 | 0.00 | 0.00 | 59 | 1015.8 |
| 20260904164431 | 30 | 357 | 3.2 | 8.0 | 0.00 | 0.00 | 0.00 | 58 | 1015.8 |
| 20260904164329 | 30 | 352 | 3.2 | 8.0 | 0.00 | 0.00 | 0.00 | 57 | 1015.8 |
| 20260904164249 | 30 | 350 | 1.6 | 9.7 | 0.00 | 0.00 | 0.00 | 57 | 1015.9 |
| 20260904164127 | 30 | 350 | 3.2 | 9.7 | 0.00 | 0.00 | 0.00 | 56 | 1015.9 |
| 20260904164026 | 30 | 349 | 3.2 | 9.7 | 0.00 | 0.00 | 0.00 | 57 | 1015.9 |
| 20260904163929 | 30 | 349 | 1.6 | 9.7 | 0.00 | 0.00 | 0.00 | 57 | 1015.9 |
| 20260904163828 | 30 | 350 | 3.2 | 9.7 | 0.00 | 0.00 | 0.00 | 57 | 1015.9 |
| 20260904163749 | 30 | 352 | 3.2 | 9.7 | 0.00 | 0.00 | 0.00 | 57 | 1015.9 |
| 20260904163647 | 30 | 349 | 4.8 | 9.7 | 0.00 | 0.00 | 0.00 | 57 | 1015.9 |
| 20260904163527 | 30 | 349 | 3.2 | 9.7 | 0.00 | 0.00 | 0.00 | 56 | 1015.9 |
| 20260904163426 | 30 | 347 | 6.4 | 9.7 | 0.00 | 0.00 | 0.00 | 58 | 1015.9 |
| 20260904163344 | 30 | 347 | 4.8 | 9.7 | 0.00 | 0.00 | 0.00 | 59 | 1015.9 |
| 20260904163242 | 30 | 344 | 0.0 | 8.0 | 0.00 | 0.00 | 0.00 | 58 | 1015.9 |
| 20260904163213 | 30 | 346 | 1.6 | 8.0 | 0.00 | 0.00 | 0.00 | 59 | 1015.9 |
| 20260904163052 | 30 | 346 | 4.8 | 8.0 | 0.00 | 0.00 | 0.00 | 58 | 1015.9 |
| 20260904162930 | 30 | 346 | 4.8 | 8.0 | 0.00 | 0.00 | 0.00 | 58 | 1015.9 |
| 20260904162828 | 30 | 346 | 3.2 | 8.0 | 0.00 | 0.00 | 0.00 | 58 | 1015.9 |
| 20260904162746 | 30 | 344 | 4.8 | 8.0 | 0.00 | 0.00 | 0.00 | 59 | 1015.9 |
| 20260904162705 | 30 | 346 | 4.8 | 8.0 | 0.00 | 0.00 | 0.00 | 59 | 1015.9 |
| 20260904162542 | 30 | 346 | 1.6 | 8.0 | 0.00 | 0.00 | 0.00 | 59 | 1015.9 |
| 20260904162439 | 30 | 344 | 0.0 | 8.0 | 0.00 | 0.00 | 0.00 | 59 | 1015.9 |
| 20260904162338 | 30 | 344 | 3.2 | 8.0 | 0.00 | 0.00 | 0.00 | 60 | 1015.9 |
| 20260904162241 | 30 | 343 | 3.2 | 8.0 | 0.00 | 0.00 | 0.00 | 61 | 1015.9 |
| 20260904162140 | 30 | 343 | 3.2 | 8.0 | 0.00 | 0.00 | 0.00 | 60 | 1015.9 |
| 20260904162037 | 30 | 343 | 4.8 | 8.0 | 0.00 | 0.00 | 0.00 | 60 | 1015.9 |
| 20260904161937 | 30 | 342 | 4.8 | 8.0 | 0.00 | 0.00 | 0.00 | 60 | 1015.9 |
| 20260904161836 | 30 | 343 | 4.8 | 8.0 | 0.00 | 0.00 | 0.00 | 62 | 1015.9 |
| 20260904161738 | 30 | 287 | 0.0 | 3.2 | 0.00 | 0.00 | 0.00 | 62 | 1015.9 |
| 20260904161647 | 30 | 284 | 0.0 | 4.8 | 0.00 | 0.00 | 0.00 | 62 | 1015.9 |
| 20260904161529 | 30 | 284 | 0.0 | 4.8 | 0.00 | 0.00 | 0.00 | 62 | 1015.9 |
| 20260904161427 | 30 | 287 | 0.0 | 4.8 | 0.00 | 0.00 | 0.00 | 62 | 1015.9 |
| 20260904161346 | 30 | 287 | 0.0 | 4.8 | 0.00 | 0.00 | 0.00 | 62 | 1015.9 |
| 20260904161225 | 30 | 285 | 1.6 | 4.8 | 0.00 | 0.00 | 0.00 | 61 | 1016.0 |
| 20260904161142 | 30 | 287 | 0.0 | 4.8 | 0.00 | 0.00 | 0.00 | 62 | 1016.0 |
| 20260904161042 | 30 | 289 | 0.0 | 6.4 | 0.00 | 0.00 | 0.00 | 62 | 1016.0 |
| 20260904160941 | 30 | 289 | 0.0 | 6.4 | 0.00 | 0.00 | 0.00 | 62 | 1016.0 |
| 20260904160844 | 30 | 289 | 1.6 | 8.0 | 0.00 | 0.00 | 0.00 | 61 | 1016.0 |
| 20260904160742 | 30 | 288 | 3.2 | 8.0 | 0.00 | 0.00 | 0.00 | 61 | 1016.0 |
| 20260904160702 | 30 | 287 | 1.6 | 8.0 | 0.00 | 0.00 | 0.00 | 62 | 1016.0 |
| 20260904160539 | 30 | 287 | 0.0 | 8.0 | 0.00 | 0.00 | 0.00 | 62 | 1016.0 |
| 20260904160436 | 30 | 291 | 0.0 | 8.0 | 0.00 | 0.00 | 0.00 | 61 | 1016.0 |
| 20260904160334 | 30 | 289 | 4.8 | 8.0 | 0.00 | 0.00 | 0.00 | 62 | 1016.0 |
| 20260904160243 | 30 | 288 | 3.2 | 8.0 | 0.00 | 0.00 | 0.00 | 62 | 1016.0 |
| 20260904160152 | 30 | 280 | 1.6 | 8.0 | 0.00 | 0.00 | 0.00 | 62 | 1016.0 |
| 20260904160028 | 30 | 282 | 4.8 | 8.0 | 0.00 | 0.00 | 0.00 | 61 | 1016.0 |
| 20260904155951 | 30 | 275 | 0.0 | 4.8 | 0.00 | 0.00 | 0.00 | 61 | 1016.0 |
| 20260904155828 | 30 | 278 | 3.2 | 4.8 | 0.00 | 0.00 | 0.00 | 61 | 1016.0 |
| 20260904155727 | 30 | 277 | 1.6 | 4.8 | 0.00 | 0.00 | 0.00 | 63 | 1015.9 |
| 20260904155644 | 30 | 272 | 1.6 | 8.0 | 0.00 | 0.00 | 0.00 | 63 | 1015.9 |
| 20260904155542 | 30 | 272 | 1.6 | 8.0 | 0.00 | 0.00 | 0.00 | 64 | 1015.9 |
| 20260904155438 | 30 | 271 | 0.0 | 8.0 | 0.00 | 0.00 | 0.00 | 63 | 1015.9 |
| 20260904155336 | 30 | 268 | 0.0 | 8.0 | 0.00 | 0.00 | 0.00 | 63 | 1015.9 |
| 20260904155234 | 30 | 274 | 0.0 | 8.0 | 0.00 | 0.00 | 0.00 | 63 | 1015.9 |
| 20260904155136 | 29 | 272 | 0.0 | 8.0 | 0.00 | 0.00 | 0.00 | 64 | 1015.9 |
| 20260904155055 | 29 | 274 | 1.6 | 8.0 | 0.00 | 0.00 | 0.00 | 64 | 1015.9 |
| 20260904154931 | 29 | 272 | 3.2 | 8.0 | 0.00 | 0.00 | 0.00 | 63 | 1015.9 |
| 20260904154854 | 29 | 272 | 4.8 | 8.0 | 0.00 | 0.00 | 0.00 | 63 | 1015.9 |
| 20260904154742 | 29 | 272 | 4.8 | 8.0 | 0.00 | 0.00 | 0.00 | 63 | 1015.9 |
| 20260904154650 | 29 | 272 | 4.8 | 8.0 | 0.00 | 0.00 | 0.00 | 64 | 1015.9 |
| 20260904154527 | 29 | 270 | 0.0 | 6.4 | 0.00 | 0.00 | 0.00 | 63 | 1015.9 |
| 20260904154446 | 29 | 268 | 0.0 | 8.0 | 0.00 | 0.00 | 0.00 | 62 | 1015.9 |
| 20260904154343 | 29 | 270 | 1.6 | 8.0 | 0.00 | 0.00 | 0.00 | 63 | 1015.9 |
| 20260904154225 | 29 | 267 | 3.2 | 8.0 | 0.00 | 0.00 | 0.00 | 63 | 1015.0 |
| 20260904154143 | 29 | 270 | 3.2 | 8.0 | 0.00 | 0.00 | 0.00 | 63 | 1015.0 |
| 20260904154041 | 29 | 270 | 1.6 | 8.0 | 0.00 | 0.00 | 0.00 | 64 | 1015.0 |
| 20260904153941 | 29 | 270 | 3.2 | 8.0 | 0.00 | 0.00 | 0.00 | 64 | 1015.0 |
| 20260904153839 | 29 | 270 | 1.6 | 8.0 | 0.00 | 0.00 | 0.00 | 64 | 1015.0 |
| 20260904153738 | 29 | 268 | 1.6 | 8.0 | 0.00 | 0.00 | 0.00 | 65 | 1015.0 |
| 20260904153636 | 29 | 268 | 3.2 | 8.0 | 0.00 | 0.00 | 0.00 | 65 | 1015.0 |
| 20260904153538 | 29 | 268 | 3.2 | 8.0 | 0.00 | 0.00 | 0.00 | 65 | 1015.0 |
| 20260904153436 | 29 | 265 | 0.0 | 6.4 | 0.00 | 0.00 | 0.00 | 65 | 1015.0 |
| 20260904153353 | 29 | 263 | 0.0 | 6.4 | 0.00 | 0.00 | 0.00 | 65 | 1015.0 |
| 20260904153231 | 29 | 267 | 1.6 | 6.4 | 0.00 | 0.00 | 0.00 | 65 | 1015.0 |
| 20260904153202 | 29 | 265 | 1.6 | 6.4 | 0.00 | 0.00 | 0.00 | 66 | 1015.0 |
| 20260904153039 | 29 | 265 | 3.2 | 6.4 | 0.00 | 0.00 | 0.00 | 66 | 1015.0 |
| 20260904152940 | 29 | 264 | 3.2 | 6.4 | 0.00 | 0.00 | 0.00 | 66 | 1015.0 |
| 20260904152843 | 28 | 267 | 3.2 | 6.4 | 0.00 | 0.00 | 0.00 | 66 | 1015.0 |
| 20260904152741 | 28 | 267 | 3.2 | 6.4 | 0.00 | 0.00 | 0.00 | 66 | 1015.0 |
| 20260904152640 | 28 | 267 | 4.8 | 6.4 | 0.00 | 0.00 | 0.00 | 67 | 1015.0 |
| 20260904152537 | 28 | 264 | 3.2 | 6.4 | 0.00 | 0.00 | 0.00 | 66 | 1015.0 |
| 20260904152437 | 28 | 258 | 3.2 | 6.4 | 0.00 | 0.00 | 0.00 | 67 | 1015.0 |
| 20260904152336 | 28 | 260 | 3.2 | 6.4 | 0.00 | 0.00 | 0.00 | 67 | 1015.0 |
| 20260904152257 | 28 | 258 | 1.6 | 6.4 | 0.00 | 0.00 | 0.00 | 68 | 1015.0 |
| 20260904152155 | 28 | 254 | 3.2 | 6.4 | 0.00 | 0.00 | 0.00 | 68 | 1015.0 |
| 20260904152036 | 28 | 260 | 3.2 | 6.4 | 0.00 | 0.00 | 0.00 | 68 | 1015.0 |
| 20260904151935 | 28 | 258 | 1.6 | 4.8 | 0.00 | 0.00 | 0.00 | 68 | 1015.0 |
| 20260904151836 | 28 | 258 | 0.0 | 4.8 | 0.00 | 0.00 | 0.00 | 68 | 1015.0 |
| 20260904151733 | 28 | 260 | 0.0 | 4.8 | 0.00 | 0.00 | 0.00 | 69 | 1015.0 |
| 20260904151703 | 28 | 258 | 0.0 | 6.4 | 0.00 | 0.00 | 0.00 | 68 | 1015.0 |
| 20260904151541 | 28 | 258 | 1.6 | 6.4 | 0.00 | 0.00 | 0.00 | 69 | 1015.0 |
| 20260904151439 | 28 | 256 | 1.6 | 6.4 | 0.00 | 0.00 | 0.00 | 69 | 1015.0 |
| 20260904151342 | 28 | 258 | 0.0 | 6.4 | 0.00 | 0.00 | 0.00 | 69 | 1015.0 |
| 20260904151243 | 28 | 260 | 0.0 | 6.4 | 0.00 | 0.00 | 0.00 | 69 | 1014.9 |
| 20260904151140 | 28 | 258 | 1.6 | 6.4 | 0.00 | 0.00 | 0.00 | 69 | 1014.9 |
| 20260904151037 | 28 | 258 | 3.2 | 6.4 | 0.00 | 0.00 | 0.00 | 69 | 1014.9 |
| 20260904150934 | 28 | 258 | 0.0 | 6.4 | 0.00 | 0.00 | 0.00 | 70 | 1014.9 |
| 20260904150833 | 28 | 258 | 3.2 | 6.4 | 0.00 | 0.00 | 0.00 | 69 | 1014.9 |
| 20260904150732 | 28 | 247 | 1.6 | 4.8 | 0.00 | 0.00 | 0.00 | 69 | 1014.9 |
| 20260904150633 | 28 | 244 | 3.2 | 4.8 | 0.00 | 0.00 | 0.00 | 69 | 1014.9 |
| 20260904150533 | 28 | 246 | 1.6 | 6.4 | 0.00 | 0.00 | 0.00 | 69 | 1014.9 |
| 20260904150431 | 28 | 246 | 1.6 | 6.4 | 0.00 | 0.00 | 0.00 | 68 | 1014.9 |
| 20260904150329 | 28 | 247 | 1.6 | 6.4 | 0.00 | 0.00 | 0.00 | 68 | 1014.9 |
| 20260904150228 | 28 | 247 | 0.0 | 6.4 | 0.00 | 0.00 | 0.00 | 69 | 1014.9 |
| 20260904150200 | 28 | 247 | 0.0 | 6.4 | 0.00 | 0.00 | 0.00 | 69 | 1014.9 |
| 20260904150037 | 28 | 247 | 1.6 | 6.4 | 0.00 | 0.00 | 0.00 | 68 | 1014.9 |
| 20260904145938 | 28 | 246 | 3.2 | 6.4 | 0.00 | 0.00 | 0.00 | 68 | 1014.9 |
| 20260904145834 | 28 | 246 | 1.6 | 6.4 | 0.00 | 0.00 | 0.00 | 68 | 1014.9 |
| 20260904145753 | 27 | 247 | 3.2 | 6.4 | 0.00 | 0.00 | 0.00 | 68 | 1014.9 |
| 20260904145631 | 27 | 246 | 3.2 | 6.4 | 0.00 | 0.00 | 0.00 | 68 | 1014.9 |
| 20260904145527 | 27 | 247 | 0.0 | 4.8 | 0.00 | 0.00 | 0.00 | 69 | 1014.9 |
| 20260904145425 | 27 | 246 | 3.2 | 4.8 | 0.00 | 0.00 | 0.00 | 68 | 1014.9 |
| 20260904145343 | 27 | 247 | 3.2 | 4.8 | 0.00 | 0.00 | 0.00 | 68 | 1014.9 |
| 20260904145241 | 27 | 247 | 3.2 | 4.8 | 0.00 | 0.00 | 0.00 | 69 | 1014.9 |
| 20260904145204 | 27 | 247 | 1.6 | 8.0 | 0.00 | 0.00 | 0.00 | 69 | 1014.9 |
| 20260904145105 | 27 | 247 | 0.0 | 8.0 | 0.00 | 0.00 | 0.00 | 70 | 1014.9 |
| 20260904145001 | 27 | 248 | 1.6 | 8.0 | 0.00 | 0.00 | 0.00 | 69 | 1014.9 |
| 20260904144840 | 27 | 246 | 3.2 | 8.0 | 0.00 | 0.00 | 0.00 | 69 | 1014.9 |
| 20260904144800 | 27 | 247 | 3.2 | 8.0 | 0.00 | 0.00 | 0.00 | 69 | 1014.9 |
| 20260904144647 | 27 | 246 | 0.0 | 8.0 | 0.00 | 0.00 | 0.00 | 69 | 1014.9 |
| 20260904144544 | 27 | 247 | 3.2 | 8.0 | 0.00 | 0.00 | 0.00 | 69 | 1014.9 |
| 20260904144504 | 27 | 246 | 3.2 | 8.0 | 0.00 | 0.00 | 0.00 | 69 | 1014.9 |
| 20260904144341 | 27 | 246 | 4.8 | 8.0 | 0.00 | 0.00 | 0.00 | 70 | 1014.9 |
| 20260904144239 | 27 | 247 | 4.8 | 8.0 | 0.00 | 0.00 | 0.00 | 70 | 1014.8 |
| 20260904144142 | 27 | 246 | 3.2 | 4.8 | 0.00 | 0.00 | 0.00 | 70 | 1014.8 |
| 20260904144100 | 27 | 246 | 1.6 | 4.8 | 0.00 | 0.00 | 0.00 | 70 | 1014.8 |
| 20260904143940 | 27 | 241 | 0.0 | 4.8 | 0.00 | 0.00 | 0.00 | 69 | 1014.8 |
| 20260904143839 | 27 | 243 | 1.6 | 4.8 | 0.00 | 0.00 | 0.00 | 69 | 1014.8 |
| 20260904143758 | 27 | 243 | 3.2 | 4.8 | 0.00 | 0.00 | 0.00 | 69 | 1014.8 |
| 20260904143635 | 27 | 241 | 0.0 | 4.8 | 0.00 | 0.00 | 0.00 | 69 | 1014.8 |
| 20260904143534 | 27 | 244 | 1.6 | 4.8 | 0.00 | 0.00 | 0.00 | 69 | 1014.8 |
| 20260904143431 | 27 | 243 | 1.6 | 4.8 | 0.00 | 0.00 | 0.00 | 68 | 1014.8 |
| 20260904143334 | 27 | 240 | 3.2 | 8.0 | 0.00 | 0.00 | 0.00 | 70 | 1014.8 |
| 20260904143233 | 27 | 243 | 3.2 | 8.0 | 0.00 | 0.00 | 0.00 | 70 | 1014.8 |
| 20260904143204 | 27 | 243 | 3.2 | 9.7 | 0.00 | 0.00 | 0.00 | 71 | 1014.8 |
| 20260904143041 | 27 | 241 | 1.6 | 11.3 | 0.00 | 0.00 | 0.00 | 71 | 1014.8 |
| 20260904142938 | 27 | 243 | 0.0 | 11.3 | 0.00 | 0.00 | 0.00 | 70 | 1014.8 |
| 20260904142837 | 27 | 243 | 0.0 | 11.3 | 0.00 | 0.00 | 0.00 | 70 | 1014.8 |
| 20260904142735 | 27 | 243 | 0.0 | 11.3 | 0.00 | 0.00 | 0.00 | 71 | 1014.9 |
| 20260904142638 | 27 | 241 | 1.6 | 11.3 | 0.00 | 0.00 | 0.00 | 71 | 1014.9 |
| 20260904142536 | 27 | 241 | 4.8 | 11.3 | 0.00 | 0.00 | 0.00 | 71 | 1014.9 |
| 20260904142435 | 27 | 241 | 6.4 | 11.3 | 0.00 | 0.00 | 0.00 | 72 | 1014.9 |
| 20260904142353 | 27 | 241 | 8.0 | 11.3 | 0.00 | 0.00 | 0.00 | 72 | 1014.9 |
| 20260904142231 | 27 | 241 | 6.4 | 11.3 | 0.00 | 0.00 | 0.00 | 72 | 1014.9 |
| 20260904142128 | 27 | 239 | 6.4 | 11.3 | 0.00 | 0.00 | 0.00 | 72 | 1014.9 |
| 20260904142050 | 27 | 246 | 4.8 | 8.0 | 0.00 | 0.00 | 0.00 | 72 | 1014.9 |
| 20260904141932 | 27 | 247 | 1.6 | 9.7 | 0.00 | 0.00 | 0.00 | 72 | 1014.9 |
| 20260904141831 | 26 | 246 | 3.2 | 9.7 | 0.00 | 0.00 | 0.00 | 72 | 1014.9 |
| 20260904141741 | 26 | 247 | 3.2 | 9.7 | 0.00 | 0.00 | 0.00 | 72 | 1014.9 |
| 20260904141649 | 26 | 243 | 0.0 | 9.7 | 0.00 | 0.00 | 0.00 | 72 | 1014.9 |
| 20260904141548 | 26 | 246 | 1.6 | 9.7 | 0.00 | 0.00 | 0.00 | 72 | 1014.9 |
| 20260904141505 | 26 | 246 | 1.6 | 9.7 | 0.00 | 0.00 | 0.00 | 72 | 1014.9 |
| 20260904141404 | 26 | 247 | 3.2 | 9.7 | 0.00 | 0.00 | 0.00 | 72 | 1014.9 |
| 20260904141242 | 26 | 246 | 1.6 | 9.7 | 0.00 | 0.00 | 0.00 | 72 | 1014.7 |
| 20260904141123 | 26 | 246 | 6.4 | 9.7 | 0.00 | 0.00 | 0.00 | 72 | 1014.7 |
| 20260904141025 | 26 | 247 | 1.6 | 8.0 | 0.00 | 0.00 | 0.00 | 71 | 1014.7 |
| 20260904140925 | 26 | 248 | 4.8 | 8.0 | 0.00 | 0.00 | 0.00 | 71 | 1014.7 |
| 20260904140843 | 26 | 246 | 4.8 | 8.0 | 0.00 | 0.00 | 0.00 | 71 | 1014.7 |
| 20260904140742 | 26 | 247 | 3.2 | 8.0 | 0.00 | 0.00 | 0.00 | 71 | 1014.7 |
| 20260904140640 | 26 | 244 | 3.2 | 8.0 | 0.00 | 0.00 | 0.00 | 71 | 1014.7 |
| 20260904140557 | 26 | 247 | 3.2 | 8.0 | 0.00 | 0.00 | 0.00 | 71 | 1014.7 |
| 20260904140435 | 26 | 247 | 3.2 | 8.0 | 0.00 | 0.00 | 0.00 | 71 | 1014.7 |
| 20260904140357 | 26 | 247 | 3.2 | 8.0 | 0.00 | 0.00 | 0.00 | 71 | 1014.7 |
| 20260904140255 | 26 | 243 | 1.6 | 8.0 | 0.00 | 0.00 | 0.00 | 71 | 1014.7 |
| 20260904140226 | 26 | 243 | 3.2 | 9.7 | 0.00 | 0.00 | 0.00 | 71 | 1014.7 |
| 20260904140040 | 26 | 247 | 6.4 | 9.7 | 0.00 | 0.00 | 0.00 | 71 | 1014.7 |
| 20260904135959 | 26 | 244 | 4.8 | 9.7 | 0.00 | 0.00 | 0.00 | 71 | 1014.7 |
| 20260904135838 | 26 | 243 | 4.8 | 9.7 | 0.00 | 0.00 | 0.00 | 71 | 1014.7 |
| 20260904135735 | 26 | 241 | 4.8 | 9.7 | 0.00 | 0.00 | 0.00 | 71 | 1014.8 |
| 20260904135634 | 26 | 240 | 3.2 | 9.7 | 0.00 | 0.00 | 0.00 | 72 | 1014.8 |
| 20260904135531 | 26 | 239 | 1.6 | 9.7 | 0.00 | 0.00 | 0.00 | 72 | 1014.8 |
| 20260904135434 | 26 | 237 | 3.2 | 11.3 | 0.00 | 0.00 | 0.00 | 72 | 1014.8 |
| 20260904135355 | 26 | 237 | 6.4 | 11.3 | 0.00 | 0.00 | 0.00 | 72 | 1014.8 |
| 20260904135232 | 26 | 241 | 4.8 | 11.3 | 0.00 | 0.00 | 0.00 | 72 | 1014.8 |
| 20260904135130 | 26 | 239 | 3.2 | 11.3 | 0.00 | 0.00 | 0.00 | 72 | 1014.8 |
| 20260904135029 | 26 | 236 | 3.2 | 11.3 | 0.00 | 0.00 | 0.00 | 72 | 1014.8 |
| 20260904134928 | 26 | 239 | 4.8 | 11.3 | 0.00 | 0.00 | 0.00 | 72 | 1014.8 |
| 20260904134828 | 26 | 239 | 3.2 | 11.3 | 0.00 | 0.00 | 0.00 | 73 | 1014.8 |
| 20260904134731 | 26 | 239 | 3.2 | 11.3 | 0.00 | 0.00 | 0.00 | 73 | 1014.8 |
| 20260904134701 | 26 | 239 | 6.4 | 11.3 | 0.00 | 0.00 | 0.00 | 73 | 1014.8 |
| 20260904134539 | 26 | 233 | 6.4 | 11.3 | 0.00 | 0.00 | 0.00 | 73 | 1014.8 |
| 20260904134441 | 26 | 236 | 4.8 | 9.7 | 0.00 | 0.00 | 0.00 | 73 | 1014.8 |
| 20260904134338 | 26 | 229 | 3.2 | 9.7 | 0.00 | 0.00 | 0.00 | 75 | 1014.8 |
| 20260904134237 | 26 | 229 | 6.4 | 11.3 | 0.00 | 0.00 | 0.00 | 75 | 1014.8 |
| 20260904134135 | 26 | 227 | 4.8 | 11.3 | 0.00 | 0.00 | 0.00 | 75 | 1014.8 |
| 20260904134033 | 26 | 230 | 4.8 | 11.3 | 0.00 | 0.00 | 0.00 | 76 | 1014.8 |
| 20260904133956 | 26 | 223 | 6.4 | 11.3 | 0.00 | 0.00 | 0.00 | 76 | 1014.8 |
| 20260904133833 | 26 | 230 | 3.2 | 11.3 | 0.00 | 0.00 | 0.00 | 76 | 1014.8 |
| 20260904133733 | 26 | 229 | 4.8 | 11.3 | 0.00 | 0.00 | 0.00 | 76 | 1014.8 |
| 20260904133631 | 26 | 230 | 6.4 | 11.3 | 0.00 | 0.00 | 0.00 | 76 | 1014.8 |
| 20260904133530 | 26 | 229 | 8.0 | 14.5 | 0.00 | 0.00 | 0.00 | 76 | 1014.8 |
| 20260904133427 | 26 | 224 | 9.7 | 14.5 | 0.00 | 0.00 | 0.00 | 76 | 1014.8 |
| 20260904133325 | 26 | 216 | 8.0 | 14.5 | 0.00 | 0.00 | 0.00 | 76 | 1014.8 |
| 20260904133225 | 26 | 198 | 1.6 | 14.5 | 0.00 | 0.00 | 0.00 | 77 | 1014.8 |
| 20260904133159 | 26 | 198 | 3.2 | 14.5 | 0.00 | 0.00 | 0.00 | 77 | 1014.8 |
| 20260904133035 | 26 | 199 | 4.8 | 14.5 | 0.00 | 0.00 | 0.00 | 77 | 1014.8 |
| 20260904132933 | 26 | 198 | 3.2 | 14.5 | 0.00 | 0.00 | 0.00 | 77 | 1014.8 |
| 20260904132851 | 26 | 206 | 4.8 | 14.5 | 0.00 | 0.00 | 0.00 | 77 | 1014.8 |
| 20260904132729 | 26 | 203 | 9.7 | 14.5 | 0.00 | 0.00 | 0.00 | 77 | 1014.8 |
| 20260904132627 | 26 | 213 | 6.4 | 12.9 | 0.00 | 0.00 | 0.00 | 77 | 1014.8 |
| 20260904132525 | 26 | 212 | 8.0 | 12.9 | 0.00 | 0.00 | 0.00 | 77 | 1014.8 |
| 20260904132428 | 26 | 219 | 8.0 | 12.9 | 0.00 | 0.00 | 0.00 | 77 | 1014.8 |
| 20260904132327 | 26 | 193 | 3.2 | 4.8 | 0.00 | 0.00 | 0.00 | 77 | 1014.8 |
| 20260904132247 | 26 | 195 | 1.6 | 4.8 | 0.00 | 0.00 | 0.00 | 77 | 1014.8 |
| 20260904132144 | 26 | 191 | 1.6 | 6.4 | 0.00 | 0.00 | 0.00 | 77 | 1014.8 |
| 20260904132042 | 26 | 191 | 1.6 | 6.4 | 0.00 | 0.00 | 0.00 | 77 | 1014.8 |
| 20260904131942 | 26 | 189 | 1.6 | 6.4 | 0.00 | 0.00 | 0.00 | 77 | 1014.8 |
| 20260904131841 | 26 | 191 | 3.2 | 6.4 | 0.00 | 0.00 | 0.00 | 77 | 1014.8 |
| 20260904131724 | 26 | 188 | 1.6 | 8.0 | 0.00 | 0.00 | 0.00 | 77 | 1014.8 |
| 20260904131654 | 26 | 188 | 3.2 | 8.0 | 0.00 | 0.00 | 0.00 | 77 | 1014.8 |
| 20260904131531 | 26 | 186 | 1.6 | 8.0 | 0.00 | 0.00 | 0.00 | 77 | 1014.8 |
| 20260904131430 | 26 | 186 | 1.6 | 8.0 | 0.00 | 0.00 | 0.00 | 77 | 1014.8 |
| 20260904131329 | 25 | 184 | 3.2 | 8.0 | 0.00 | 0.00 | 0.00 | 77 | 1014.8 |
| 20260904131248 | 25 | 185 | 3.2 | 8.0 | 0.00 | 0.00 | 0.00 | 77 | 1014.6 |
| 20260904131124 | 25 | 176 | 1.6 | 8.0 | 0.00 | 0.00 | 0.00 | 77 | 1014.6 |
| 20260904131043 | 25 | 179 | 3.2 | 8.0 | 0.00 | 0.00 | 0.00 | 77 | 1014.6 |
| 20260904130926 | 25 | 176 | 4.8 | 8.0 | 0.00 | 0.00 | 0.00 | 77 | 1014.6 |
| 20260904130844 | 25 | 175 | 1.6 | 8.0 | 0.00 | 0.00 | 0.00 | 77 | 1014.6 |
| 20260904130742 | 25 | 167 | 0.0 | 8.0 | 0.00 | 0.00 | 0.00 | 77 | 1014.6 |
| 20260904130641 | 25 | 167 | 3.2 | 8.0 | 0.00 | 0.00 | 0.00 | 77 | 1014.6 |
| 20260904130541 | 25 | 167 | 1.6 | 8.0 | 0.00 | 0.00 | 0.00 | 77 | 1014.6 |
| 20260904130459 | 25 | 165 | 3.2 | 8.0 | 0.00 | 0.00 | 0.00 | 77 | 1014.6 |
| 20260904130336 | 25 | 161 | 3.2 | 8.0 | 0.00 | 0.00 | 0.00 | 78 | 1014.6 |
| 20260904130235 | 25 | 158 | 3.2 | 8.0 | 0.00 | 0.00 | 0.00 | 78 | 1014.6 |
| 20260904130209 | 25 | 158 | 3.2 | 8.0 | 0.00 | 0.00 | 0.00 | 78 | 1014.6 |
| 20260904130025 | 25 | 157 | 1.6 | 8.0 | 0.00 | 0.00 | 0.00 | 78 | 1014.6 |
| 20260904125924 | 25 | 154 | 4.8 | 8.0 | 0.00 | 0.00 | 0.00 | 78 | 1014.6 |
| 20260904125843 | 25 | 154 | 4.8 | 8.0 | 0.00 | 0.00 | 0.00 | 78 | 1014.6 |
| 20260904125742 | 25 | 155 | 3.2 | 8.0 | 0.00 | 0.00 | 0.00 | 78 | 1014.5 |
| 20260904125641 | 25 | 155 | 4.8 | 8.0 | 0.00 | 0.00 | 0.00 | 78 | 1014.5 |
| 20260904125539 | 25 | 157 | 4.8 | 8.0 | 0.00 | 0.00 | 0.00 | 78 | 1014.5 |
| 20260904125442 | 25 | 158 | 4.8 | 8.0 | 0.00 | 0.00 | 0.00 | 78 | 1014.5 |
| 20260904125341 | 25 | 158 | 3.2 | 8.0 | 0.00 | 0.00 | 0.00 | 78 | 1014.5 |
| 20260904125240 | 25 | 157 | 4.8 | 9.7 | 0.00 | 0.00 | 0.00 | 78 | 1014.5 |
| 20260904125140 | 25 | 162 | 4.8 | 9.7 | 0.00 | 0.00 | 0.00 | 78 | 1014.5 |
| 20260904125038 | 25 | 164 | 1.6 | 11.3 | 0.00 | 0.00 | 0.00 | 78 | 1014.5 |
| 20260904124937 | 25 | 161 | 3.2 | 11.3 | 0.00 | 0.00 | 0.00 | 77 | 1014.5 |
| 20260904124836 | 25 | 193 | 3.2 | 11.3 | 0.00 | 0.00 | 0.00 | 77 | 1014.5 |
| 20260904124739 | 25 | 193 | 3.2 | 11.3 | 0.00 | 0.00 | 0.00 | 77 | 1014.5 |
| 20260904124708 | 25 | 196 | 3.2 | 11.3 | 0.00 | 0.00 | 0.00 | 77 | 1014.5 |
| 20260904124526 | 25 | 200 | 1.6 | 11.3 | 0.00 | 0.00 | 0.00 | 77 | 1014.5 |
| 20260904124443 | 25 | 200 | 4.8 | 11.3 | 0.00 | 0.00 | 0.00 | 77 | 1014.5 |
| 20260904124403 | 25 | 200 | 4.8 | 11.3 | 0.00 | 0.00 | 0.00 | 77 | 1014.5 |
| 20260904124240 | 25 | 196 | 4.8 | 11.3 | 0.00 | 0.00 | 0.00 | 77 | 1014.5 |
| 20260904124139 | 25 | 195 | 3.2 | 8.0 | 0.00 | 0.00 | 0.00 | 77 | 1014.5 |
| 20260904124037 | 25 | 193 | 1.6 | 8.0 | 0.00 | 0.00 | 0.00 | 77 | 1014.5 |
| 20260904123939 | 25 | 195 | 1.6 | 9.7 | 0.00 | 0.00 | 0.00 | 77 | 1014.5 |
| 20260904123839 | 25 | 193 | 1.6 | 9.7 | 0.00 | 0.00 | 0.00 | 77 | 1014.5 |
| 20260904123737 | 25 | 193 | 1.6 | 9.7 | 0.00 | 0.00 | 0.00 | 77 | 1014.5 |
| 20260904123636 | 25 | 193 | 3.2 | 9.7 | 0.00 | 0.00 | 0.00 | 77 | 1014.5 |
| 20260904123533 | 25 | 192 | 1.6 | 9.7 | 0.00 | 0.00 | 0.00 | 77 | 1014.5 |
| 20260904123431 | 25 | 193 | 1.6 | 9.7 | 0.00 | 0.00 | 0.00 | 77 | 1014.5 |
| 20260904123331 | 25 | 193 | 1.6 | 9.7 | 0.00 | 0.00 | 0.00 | 77 | 1014.5 |
| 20260904123255 | 25 | 192 | 4.8 | 9.7 | 0.00 | 0.00 | 0.00 | 77 | 1014.5 |
| 20260904123205 | 25 | 193 | 4.8 | 9.7 | 0.00 | 0.00 | 0.00 | 77 | 1014.5 |
| 20260904123041 | 25 | 192 | 1.6 | 9.7 | 0.00 | 0.00 | 0.00 | 77 | 1014.5 |
| 20260904122940 | 25 | 192 | 3.2 | 9.7 | 0.00 | 0.00 | 0.00 | 77 | 1014.5 |
| 20260904122838 | 25 | 188 | 3.2 | 9.7 | 0.00 | 0.00 | 0.00 | 77 | 1014.5 |
| 20260904122737 | 25 | 182 | 4.8 | 9.7 | 0.00 | 0.00 | 0.00 | 77 | 1014.3 |
| 20260904122636 | 25 | 182 | 4.8 | 9.7 | 0.00 | 0.00 | 0.00 | 77 | 1014.3 |
| 20260904122538 | 25 | 179 | 4.8 | 9.7 | 0.00 | 0.00 | 0.00 | 77 | 1014.3 |
| 20260904122436 | 25 | 174 | 3.2 | 9.7 | 0.00 | 0.00 | 0.00 | 77 | 1014.3 |
| 20260904122335 | 25 | 165 | 1.6 | 9.7 | 0.00 | 0.00 | 0.00 | 77 | 1014.3 |
| 20260904122234 | 25 | 164 | 1.6 | 9.7 | 0.00 | 0.00 | 0.00 | 77 | 1014.3 |
| 20260904122151 | 25 | 164 | 1.6 | 9.7 | 0.00 | 0.00 | 0.00 | 77 | 1014.3 |
| 20260904122030 | 25 | 162 | 1.6 | 11.3 | 0.00 | 0.00 | 0.00 | 77 | 1014.3 |
| 20260904121928 | 25 | 158 | 3.2 | 11.3 | 0.00 | 0.00 | 0.00 | 77 | 1014.3 |
| 20260904121830 | 25 | 157 | 4.8 | 11.3 | 0.00 | 0.00 | 0.00 | 77 | 1014.3 |
| 20260904121748 | 25 | 151 | 8.0 | 11.3 | 0.00 | 0.00 | 0.00 | 77 | 1014.3 |
| 20260904121717 | 25 | 151 | 6.4 | 11.3 | 0.00 | 0.00 | 0.00 | 77 | 1014.3 |
| 20260904121537 | 25 | 155 | 4.8 | 11.3 | 0.00 | 0.00 | 0.00 | 77 | 1014.3 |
| 20260904121436 | 25 | 157 | 4.8 | 11.3 | 0.00 | 0.00 | 0.00 | 77 | 1014.3 |
| 20260904121338 | 25 | 154 | 6.4 | 11.3 | 0.00 | 0.00 | 0.00 | 77 | 1014.3 |
| 20260904121236 | 25 | 158 | 8.0 | 11.3 | 0.00 | 0.00 | 0.00 | 77 | 1014.1 |
| 20260904121134 | 25 | 151 | 6.4 | 11.3 | 0.00 | 0.00 | 0.00 | 77 | 1014.1 |
| 20260904121037 | 25 | 145 | 6.4 | 11.3 | 0.00 | 0.00 | 0.00 | 77 | 1014.1 |
| 20260904120935 | 25 | 145 | 8.0 | 11.3 | 0.00 | 0.00 | 0.00 | 76 | 1014.1 |
| 20260904120853 | 25 | 148 | 4.8 | 11.3 | 0.00 | 0.00 | 0.00 | 77 | 1014.1 |
| 20260904120730 | 25 | 141 | 4.8 | 11.3 | 0.00 | 0.00 | 0.00 | 76 | 1014.1 |
| 20260904120649 | 25 | 144 | 6.4 | 11.3 | 0.00 | 0.00 | 0.00 | 76 | 1014.1 |
| 20260904120529 | 25 | 131 | 9.7 | 11.3 | 0.00 | 0.00 | 0.00 | 76 | 1014.1 |
| 20260904120430 | 25 | 155 | 6.4 | 11.3 | 0.00 | 0.00 | 0.00 | 76 | 1014.1 |
| 20260904120333 | 25 | 154 | 6.4 | 11.3 | 0.00 | 0.00 | 0.00 | 76 | 1014.1 |
| 20260904120231 | 25 | 147 | 4.8 | 11.3 | 0.00 | 0.00 | 0.00 | 76 | 1014.1 |
| 20260904120203 | 25 | 154 | 4.8 | 11.3 | 0.00 | 0.00 | 0.00 | 76 | 1014.1 |
| 20260904120040 | 25 | 151 | 6.4 | 11.3 | 0.00 | 0.00 | 0.00 | 76 | 1014.1 |
| 20260904115938 | 25 | 144 | 6.4 | 11.3 | 0.00 | 0.00 | 0.00 | 76 | 1014.1 |
| 20260904115837 | 25 | 161 | 4.8 | 11.3 | 0.00 | 0.00 | 0.00 | 76 | 1014.1 |
| 20260904115735 | 25 | 138 | 6.4 | 11.3 | 0.00 | 0.00 | 0.00 | 76 | 1014.0 |
| 20260904115634 | 25 | 161 | 4.8 | 9.7 | 0.00 | 0.00 | 0.00 | 76 | 1014.0 |
| 20260904115537 | 25 | 168 | 6.4 | 11.3 | 0.00 | 0.00 | 0.00 | 76 | 1014.0 |
| 20260904115435 | 25 | 151 | 6.4 | 11.3 | 0.00 | 0.00 | 0.00 | 76 | 1014.0 |
| 20260904115333 | 25 | 148 | 6.4 | 11.3 | 0.00 | 0.00 | 0.00 | 76 | 1014.0 |
| 20260904115232 | 25 | 150 | 8.0 | 11.3 | 0.00 | 0.00 | 0.00 | 76 | 1014.0 |
| 20260904115151 | 25 | 148 | 6.4 | 11.3 | 0.00 | 0.00 | 0.00 | 76 | 1014.0 |
| 20260904115030 | 25 | 147 | 3.2 | 11.3 | 0.00 | 0.00 | 0.00 | 76 | 1014.0 |
| 20260904114928 | 25 | 141 | 8.0 | 12.9 | 0.00 | 0.00 | 0.00 | 76 | 1014.0 |
| 20260904114831 | 25 | 145 | 3.2 | 12.9 | 0.00 | 0.00 | 0.00 | 76 | 1014.0 |
| 20260904114759 | 25 | 140 | 9.7 | 12.9 | 0.00 | 0.00 | 0.00 | 76 | 1014.0 |
| 20260904114647 | 25 | 143 | 9.7 | 12.9 | 0.00 | 0.00 | 0.00 | 76 | 1014.0 |
| 20260904114524 | 25 | 147 | 6.4 | 12.9 | 0.00 | 0.00 | 0.00 | 76 | 1014.0 |
| 20260904114443 | 25 | 144 | 4.8 | 12.9 | 0.00 | 0.00 | 0.00 | 76 | 1014.0 |
| 20260904114401 | 25 | 137 | 8.0 | 12.9 | 0.00 | 0.00 | 0.00 | 76 | 1014.0 |
| 20260904114238 | 25 | 147 | 8.0 | 12.9 | 0.00 | 0.00 | 0.00 | 75 | 1013.9 |
| 20260904114135 | 25 | 148 | 8.0 | 12.9 | 0.00 | 0.00 | 0.00 | 75 | 1013.9 |
| 20260904114033 | 25 | 150 | 6.4 | 12.9 | 0.00 | 0.00 | 0.00 | 75 | 1013.9 |
| 20260904113934 | 25 | 148 | 4.8 | 11.3 | 0.00 | 0.00 | 0.00 | 75 | 1013.9 |
| 20260904113833 | 25 | 147 | 9.7 | 11.3 | 0.00 | 0.00 | 0.00 | 75 | 1013.9 |
| 20260904113733 | 25 | 148 | 8.0 | 11.3 | 0.00 | 0.00 | 0.00 | 75 | 1013.9 |
| 20260904113652 | 25 | 154 | 8.0 | 11.3 | 0.00 | 0.00 | 0.00 | 75 | 1013.9 |
| 20260904113550 | 25 | 147 | 8.0 | 11.3 | 0.00 | 0.00 | 0.00 | 75 | 1013.9 |
| 20260904113427 | 25 | 154 | 8.0 | 12.9 | 0.00 | 0.00 | 0.00 | 75 | 1013.9 |
| 20260904113325 | 25 | 157 | 8.0 | 12.9 | 0.00 | 0.00 | 0.00 | 75 | 1013.9 |
| 20260904113226 | 25 | 152 | 8.0 | 12.9 | 0.00 | 0.00 | 0.00 | 75 | 1013.9 |
| 20260904113157 | 25 | 152 | 4.8 | 12.9 | 0.00 | 0.00 | 0.00 | 75 | 1013.9 |
| 20260904113035 | 25 | 147 | 3.2 | 12.9 | 0.00 | 0.00 | 0.00 | 75 | 1013.9 |
| 20260904112952 | 25 | 148 | 6.4 | 12.9 | 0.00 | 0.00 | 0.00 | 75 | 1013.9 |
| 20260904112830 | 25 | 151 | 6.4 | 12.9 | 0.00 | 0.00 | 0.00 | 75 | 1013.9 |
| 20260904112729 | 25 | 151 | 9.7 | 12.9 | 0.00 | 0.00 | 0.00 | 75 | 1013.9 |
| 20260904112647 | 25 | 141 | 9.7 | 12.9 | 0.00 | 0.00 | 0.00 | 75 | 1013.9 |
| 20260904112544 | 25 | 143 | 9.7 | 12.9 | 0.00 | 0.00 | 0.00 | 75 | 1013.9 |
| 20260904112424 | 25 | 147 | 8.0 | 12.9 | 0.00 | 0.00 | 0.00 | 75 | 1013.9 |
| 20260904112342 | 25 | 152 | 9.7 | 12.9 | 0.00 | 0.00 | 0.00 | 75 | 1013.9 |
| 20260904112241 | 25 | 141 | 11.3 | 12.9 | 0.00 | 0.00 | 0.00 | 75 | 1013.9 |
| 20260904112140 | 25 | 143 | 9.7 | 12.9 | 0.00 | 0.00 | 0.00 | 75 | 1013.9 |
| 20260904112037 | 25 | 131 | 8.0 | 12.9 | 0.00 | 0.00 | 0.00 | 75 | 1013.9 |
| 20260904111958 | 25 | 141 | 6.4 | 12.9 | 0.00 | 0.00 | 0.00 | 75 | 1013.9 |
| 20260904111835 | 25 | 140 | 6.4 | 12.9 | 0.00 | 0.00 | 0.00 | 75 | 1013.9 |
| 20260904111744 | 25 | 136 | 8.0 | 12.9 | 0.00 | 0.00 | 0.00 | 75 | 1013.9 |
| 20260904111656 | 25 | 145 | 8.0 | 12.9 | 0.00 | 0.00 | 0.00 | 75 | 1013.9 |
| 20260904111534 | 25 | 145 | 6.4 | 12.9 | 0.00 | 0.00 | 0.00 | 75 | 1013.9 |
| 20260904111432 | 25 | 154 | 8.0 | 11.3 | 0.00 | 0.00 | 0.00 | 75 | 1013.9 |
| 20260904111332 | 25 | 145 | 8.0 | 11.3 | 0.00 | 0.00 | 0.00 | 75 | 1013.9 |
| 20260904111231 | 25 | 145 | 6.4 | 11.3 | 0.00 | 0.00 | 0.00 | 75 | 1013.5 |
| 20260904111131 | 25 | 148 | 6.4 | 11.3 | 0.00 | 0.00 | 0.00 | 75 | 1013.5 |
| 20260904111030 | 25 | 143 | 6.4 | 11.3 | 0.00 | 0.00 | 0.00 | 75 | 1013.5 |
| 20260904110933 | 25 | 137 | 8.0 | 11.3 | 0.00 | 0.00 | 0.00 | 75 | 1013.5 |
| 20260904110831 | 25 | 136 | 8.0 | 11.3 | 0.00 | 0.00 | 0.00 | 75 | 1013.5 |
| 20260904110729 | 25 | 136 | 4.8 | 11.3 | 0.00 | 0.00 | 0.00 | 75 | 1013.5 |
| 20260904110648 | 25 | 134 | 9.7 | 11.3 | 0.00 | 0.00 | 0.00 | 75 | 1013.5 |
| 20260904110526 | 25 | 127 | 8.0 | 11.3 | 0.00 | 0.00 | 0.00 | 75 | 1013.5 |
| 20260904110428 | 25 | 137 | 6.4 | 11.3 | 0.00 | 0.00 | 0.00 | 75 | 1013.5 |
| 20260904110348 | 25 | 136 | 8.0 | 11.3 | 0.00 | 0.00 | 0.00 | 75 | 1013.5 |
| 20260904110307 | 25 | 138 | 8.0 | 11.3 | 0.00 | 0.00 | 0.00 | 75 | 1013.5 |
| 20260904110222 | 25 | 141 | 8.0 | 11.3 | 0.00 | 0.00 | 0.00 | 75 | 1013.5 |
| 20260904110057 | 25 | 137 | 9.7 | 11.3 | 0.00 | 0.00 | 0.00 | 75 | 1013.5 |
| 20260904105934 | 25 | 138 | 4.8 | 11.3 | 0.00 | 0.00 | 0.00 | 75 | 1013.5 |
| 20260904105834 | 25 | 138 | 6.4 | 11.3 | 0.00 | 0.00 | 0.00 | 75 | 1013.5 |
| 20260904105732 | 25 | 137 | 9.7 | 11.3 | 0.00 | 0.00 | 0.00 | 75 | 1013.4 |
| 20260904105631 | 25 | 124 | 8.0 | 11.3 | 0.00 | 0.00 | 0.00 | 75 | 1013.4 |
| 20260904105531 | 25 | 145 | 9.7 | 11.3 | 0.00 | 0.00 | 0.00 | 75 | 1013.4 |
| 20260904105449 | 25 | 148 | 9.7 | 11.3 | 0.00 | 0.00 | 0.00 | 75 | 1013.4 |
| 20260904105330 | 25 | 136 | 8.0 | 11.3 | 0.00 | 0.00 | 0.00 | 75 | 1013.4 |
| 20260904105230 | 25 | 137 | 6.4 | 11.3 | 0.00 | 0.00 | 0.00 | 75 | 1013.4 |
| 20260904105128 | 25 | 151 | 4.8 | 11.3 | 0.00 | 0.00 | 0.00 | 75 | 1013.4 |
| 20260904105046 | 25 | 140 | 8.0 | 11.3 | 0.00 | 0.00 | 0.00 | 75 | 1013.4 |
| 20260904104923 | 25 | 140 | 6.4 | 11.3 | 0.00 | 0.00 | 0.00 | 75 | 1013.4 |
| 20260904104825 | 25 | 134 | 8.0 | 11.3 | 0.00 | 0.00 | 0.00 | 75 | 1013.4 |
| 20260904104743 | 25 | 140 | 8.0 | 11.3 | 0.00 | 0.00 | 0.00 | 75 | 1013.4 |
| 20260904104713 | 25 | 143 | 8.0 | 11.3 | 0.00 | 0.00 | 0.00 | 75 | 1013.4 |
| 20260904104555 | 25 | 145 | 8.0 | 11.3 | 0.00 | 0.00 | 0.00 | 75 | 1013.4 |
| 20260904104433 | 25 | 144 | 6.4 | 11.3 | 0.00 | 0.00 | 0.00 | 75 | 1013.4 |
| 20260904104331 | 25 | 144 | 8.0 | 11.3 | 0.00 | 0.00 | 0.00 | 75 | 1013.4 |
| 20260904104229 | 25 | 144 | 6.4 | 11.3 | 0.00 | 0.00 | 0.00 | 75 | 1013.2 |
| 20260904104148 | 25 | 140 | 6.4 | 11.3 | 0.00 | 0.00 | 0.00 | 75 | 1013.2 |
| 20260904104025 | 25 | 140 | 6.4 | 11.3 | 0.00 | 0.00 | 0.00 | 75 | 1013.2 |
| 20260904103943 | 25 | 141 | 9.7 | 11.3 | 0.00 | 0.00 | 0.00 | 75 | 1013.2 |
| 20260904103901 | 25 | 148 | 9.7 | 11.3 | 0.00 | 0.00 | 0.00 | 75 | 1013.2 |
| 20260904103743 | 25 | 145 | 6.4 | 11.3 | 0.00 | 0.00 | 0.00 | 75 | 1013.2 |
| 20260904103641 | 25 | 145 | 6.4 | 11.3 | 0.00 | 0.00 | 0.00 | 75 | 1013.2 |
| 20260904103539 | 25 | 145 | 3.2 | 11.3 | 0.00 | 0.00 | 0.00 | 75 | 1013.2 |
| 20260904103436 | 25 | 126 | 6.4 | 11.3 | 0.00 | 0.00 | 0.00 | 74 | 1013.2 |
| 20260904103354 | 25 | 141 | 9.7 | 11.3 | 0.00 | 0.00 | 0.00 | 74 | 1013.2 |
| 20260904103243 | 25 | 138 | 4.8 | 11.3 | 0.00 | 0.00 | 0.00 | 74 | 1013.2 |
| 20260904103153 | 25 | 140 | 8.0 | 11.3 | 0.00 | 0.00 | 0.00 | 74 | 1013.2 |
| 20260904103029 | 25 | 144 | 6.4 | 11.3 | 0.00 | 0.00 | 0.00 | 74 | 1013.2 |
| 20260904102931 | 25 | 145 | 8.0 | 11.3 | 0.00 | 0.00 | 0.00 | 74 | 1013.2 |
| 20260904102829 | 25 | 143 | 8.0 | 11.3 | 0.00 | 0.00 | 0.00 | 74 | 1013.2 |
| 20260904102728 | 25 | 138 | 6.4 | 11.3 | 0.00 | 0.00 | 0.00 | 74 | 1013.2 |
| 20260904102646 | 25 | 145 | 6.4 | 11.3 | 0.00 | 0.00 | 0.00 | 74 | 1013.2 |
| 20260904102605 | 25 | 143 | 8.0 | 11.3 | 0.00 | 0.00 | 0.00 | 74 | 1013.2 |
| 20260904102442 | 25 | 147 | 9.7 | 11.3 | 0.00 | 0.00 | 0.00 | 74 | 1013.2 |
| 20260904102340 | 25 | 143 | 6.4 | 11.3 | 0.00 | 0.00 | 0.00 | 74 | 1013.2 |
| 20260904102242 | 25 | 133 | 6.4 | 11.3 | 0.00 | 0.00 | 0.00 | 74 | 1013.2 |
| 20260904102141 | 25 | 140 | 4.8 | 11.3 | 0.00 | 0.00 | 0.00 | 74 | 1013.2 |
| 20260904102040 | 25 | 148 | 8.0 | 11.3 | 0.00 | 0.00 | 0.00 | 74 | 1013.2 |
| 20260904101939 | 25 | 140 | 8.0 | 11.3 | 0.00 | 0.00 | 0.00 | 74 | 1013.2 |
| 20260904101836 | 25 | 145 | 8.0 | 11.3 | 0.00 | 0.00 | 0.00 | 74 | 1013.2 |
| 20260904101736 | 25 | 147 | 8.0 | 11.3 | 0.00 | 0.00 | 0.00 | 74 | 1013.2 |
| 20260904101706 | 25 | 143 | 6.4 | 11.3 | 0.00 | 0.00 | 0.00 | 74 | 1013.2 |
| 20260904101603 | 25 | 127 | 3.2 | 12.9 | 0.00 | 0.00 | 0.00 | 74 | 1013.2 |
| 20260904101424 | 25 | 126 | 6.4 | 12.9 | 0.00 | 0.00 | 0.00 | 74 | 1013.2 |
| 20260904101342 | 25 | 144 | 6.4 | 12.9 | 0.00 | 0.00 | 0.00 | 74 | 1013.2 |
| 20260904101242 | 25 | 145 | 8.0 | 12.9 | 0.00 | 0.00 | 0.00 | 73 | 1013.0 |
| 20260904101141 | 25 | 144 | 9.7 | 12.9 | 0.00 | 0.00 | 0.00 | 73 | 1013.0 |
| 20260904101040 | 25 | 141 | 8.0 | 12.9 | 0.00 | 0.00 | 0.00 | 73 | 1013.0 |
| 20260904100938 | 25 | 143 | 8.0 | 12.9 | 0.00 | 0.00 | 0.00 | 73 | 1013.0 |
| 20260904100836 | 25 | 150 | 6.4 | 12.9 | 0.00 | 0.00 | 0.00 | 73 | 1013.0 |
| 20260904100738 | 25 | 144 | 8.0 | 12.9 | 0.00 | 0.00 | 0.00 | 73 | 1013.0 |
| 20260904100637 | 25 | 145 | 6.4 | 12.9 | 0.00 | 0.00 | 0.00 | 73 | 1013.0 |
| 20260904100535 | 25 | 147 | 6.4 | 12.9 | 0.00 | 0.00 | 0.00 | 73 | 1013.0 |
| 20260904100433 | 25 | 151 | 8.0 | 12.9 | 0.00 | 0.00 | 0.00 | 73 | 1013.0 |
| 20260904100332 | 25 | 145 | 8.0 | 12.9 | 0.00 | 0.00 | 0.00 | 73 | 1013.0 |
| 20260904100242 | 25 | 147 | 8.0 | 12.9 | 0.00 | 0.00 | 0.00 | 73 | 1013.0 |
| 20260904100153 | 25 | 152 | 8.0 | 12.9 | 0.00 | 0.00 | 0.00 | 73 | 1013.0 |
| 20260904100035 | 25 | 151 | 6.4 | 12.9 | 0.00 | 0.00 | 0.00 | 73 | 1013.0 |
| 20260904095932 | 25 | 144 | 8.0 | 12.9 | 0.00 | 0.00 | 0.00 | 73 | 1013.0 |
| 20260904095851 | 25 | 150 | 9.7 | 12.9 | 0.00 | 0.00 | 0.00 | 73 | 1013.0 |
| 20260904095728 | 25 | 147 | 6.4 | 11.3 | 0.00 | 0.00 | 0.00 | 73 | 1012.9 |
| 20260904095646 | 25 | 150 | 6.4 | 11.3 | 0.00 | 0.00 | 0.00 | 73 | 1012.9 |
| 20260904095543 | 25 | 154 | 8.0 | 11.3 | 0.00 | 0.00 | 0.00 | 74 | 1012.9 |
| 20260904095441 | 25 | 145 | 6.4 | 11.3 | 0.00 | 0.00 | 0.00 | 73 | 1012.9 |
| 20260904095400 | 25 | 148 | 6.4 | 11.3 | 0.00 | 0.00 | 0.00 | 73 | 1012.9 |
| 20260904095238 | 25 | 138 | 9.7 | 11.3 | 0.00 | 0.00 | 0.00 | 73 | 1012.9 |
| 20260904095139 | 25 | 151 | 9.7 | 11.3 | 0.00 | 0.00 | 0.00 | 73 | 1012.9 |
| 20260904095038 | 25 | 140 | 8.0 | 11.3 | 0.00 | 0.00 | 0.00 | 73 | 1012.9 |
| 20260904094937 | 25 | 147 | 6.4 | 11.3 | 0.00 | 0.00 | 0.00 | 73 | 1012.9 |
| 20260904094855 | 25 | 143 | 6.4 | 11.3 | 0.00 | 0.00 | 0.00 | 73 | 1012.9 |
| 20260904094733 | 25 | 136 | 6.4 | 12.9 | 0.00 | 0.00 | 0.00 | 73 | 1012.9 |
| 20260904094702 | 25 | 144 | 6.4 | 12.9 | 0.00 | 0.00 | 0.00 | 73 | 1012.9 |
| 20260904094539 | 25 | 147 | 8.0 | 12.9 | 0.00 | 0.00 | 0.00 | 74 | 1012.9 |
| 20260904094441 | 25 | 160 | 8.0 | 12.9 | 0.00 | 0.00 | 0.00 | 74 | 1012.9 |
| 20260904094400 | 25 | 150 | 8.0 | 12.9 | 0.00 | 0.00 | 0.00 | 74 | 1012.9 |
| 20260904094257 | 25 | 138 | 8.0 | 12.9 | 0.00 | 0.00 | 0.00 | 74 | 1012.9 |
| 20260904094135 | 25 | 136 | 6.4 | 12.9 | 0.00 | 0.00 | 0.00 | 74 | 1012.9 |
| 20260904094033 | 25 | 151 | 4.8 | 12.9 | 0.00 | 0.00 | 0.00 | 74 | 1012.9 |
| 20260904093931 | 25 | 144 | 9.7 | 12.9 | 0.00 | 0.00 | 0.00 | 74 | 1012.9 |
| 20260904093829 | 25 | 144 | 9.7 | 12.9 | 0.00 | 0.00 | 0.00 | 74 | 1012.9 |
| 20260904093728 | 25 | 137 | 8.0 | 12.9 | 0.00 | 0.00 | 0.00 | 74 | 1012.9 |
| 20260904093648 | 25 | 133 | 8.0 | 12.9 | 0.00 | 0.00 | 0.00 | 74 | 1012.9 |
| 20260904093530 | 25 | 143 | 6.4 | 12.9 | 0.00 | 0.00 | 0.00 | 74 | 1012.9 |
| 20260904093429 | 25 | 144 | 8.0 | 12.9 | 0.00 | 0.00 | 0.00 | 74 | 1012.9 |
| 20260904093327 | 25 | 144 | 9.7 | 12.9 | 0.00 | 0.00 | 0.00 | 74 | 1012.9 |
| 20260904093237 | 25 | 140 | 9.7 | 11.3 | 0.00 | 0.00 | 0.00 | 74 | 1012.9 |
| 20260904093146 | 25 | 143 | 6.4 | 11.3 | 0.00 | 0.00 | 0.00 | 74 | 1012.9 |
| 20260904093043 | 25 | 144 | 6.4 | 11.3 | 0.00 | 0.00 | 0.00 | 74 | 1012.9 |
| 20260904092942 | 25 | 145 | 9.7 | 11.3 | 0.00 | 0.00 | 0.00 | 74 | 1012.9 |
| 20260904092846 | 25 | 144 | 4.8 | 11.3 | 0.00 | 0.00 | 0.00 | 74 | 1012.9 |
| 20260904092742 | 25 | 151 | 6.4 | 11.3 | 0.00 | 0.00 | 0.00 | 74 | 1013.8 |
| 20260904092641 | 25 | 144 | 9.7 | 11.3 | 0.00 | 0.00 | 0.00 | 74 | 1013.8 |
| 20260904092539 | 25 | 138 | 9.7 | 11.3 | 0.00 | 0.00 | 0.00 | 74 | 1013.8 |
| 20260904092458 | 25 | 140 | 8.0 | 11.3 | 0.00 | 0.00 | 0.00 | 73 | 1013.8 |
| 20260904092336 | 25 | 141 | 6.4 | 12.9 | 0.00 | 0.00 | 0.00 | 73 | 1013.8 |
| 20260904092234 | 25 | 145 | 6.4 | 14.5 | 0.00 | 0.00 | 0.00 | 73 | 1013.8 |
| 20260904092133 | 25 | 136 | 8.0 | 14.5 | 0.00 | 0.00 | 0.00 | 74 | 1013.8 |
| 20260904092035 | 25 | 107 | 9.7 | 14.5 | 0.00 | 0.00 | 0.00 | 74 | 1013.8 |
| 20260904091954 | 25 | 136 | 9.7 | 14.5 | 0.00 | 0.00 | 0.00 | 74 | 1013.8 |
| 20260904091832 | 25 | 144 | 9.7 | 14.5 | 0.00 | 0.00 | 0.00 | 74 | 1013.8 |
| 20260904091730 | 25 | 131 | 8.0 | 14.5 | 0.00 | 0.00 | 0.00 | 74 | 1013.8 |
| 20260904091659 | 25 | 140 | 6.4 | 14.5 | 0.00 | 0.00 | 0.00 | 73 | 1013.8 |
| 20260904091537 | 26 | 123 | 9.7 | 14.5 | 0.00 | 0.00 | 0.00 | 74 | 1013.8 |
| 20260904091456 | 26 | 143 | 9.7 | 16.1 | 0.00 | 0.00 | 0.00 | 73 | 1013.8 |
| 20260904091336 | 26 | 145 | 8.0 | 16.1 | 0.00 | 0.00 | 0.00 | 73 | 1013.8 |
| 20260904091259 | 26 | 128 | 9.7 | 16.1 | 0.00 | 0.00 | 0.00 | 74 | 1013.6 |
| 20260904091136 | 26 | 138 | 8.0 | 16.1 | 0.00 | 0.00 | 0.00 | 74 | 1013.6 |
| 20260904091036 | 26 | 143 | 6.4 | 16.1 | 0.00 | 0.00 | 0.00 | 74 | 1013.6 |
| 20260904090932 | 26 | 133 | 6.4 | 16.1 | 0.00 | 0.00 | 0.00 | 73 | 1013.6 |
| 20260904090832 | 26 | 144 | 9.7 | 16.1 | 0.00 | 0.00 | 0.00 | 73 | 1013.6 |
| 20260904090731 | 26 | 137 | 11.3 | 16.1 | 0.00 | 0.00 | 0.00 | 73 | 1013.6 |
| 20260904090630 | 26 | 144 | 9.7 | 16.1 | 0.00 | 0.00 | 0.00 | 73 | 1013.6 |
| 20260904090532 | 26 | 127 | 9.7 | 16.1 | 0.00 | 0.00 | 0.00 | 73 | 1013.6 |
| 20260904090430 | 26 | 133 | 9.7 | 16.1 | 0.00 | 0.00 | 0.00 | 73 | 1013.6 |
| 20260904090329 | 26 | 144 | 9.7 | 16.1 | 0.00 | 0.00 | 0.00 | 73 | 1013.6 |
| 20260904090246 | 26 | 141 | 11.3 | 16.1 | 0.00 | 0.00 | 0.00 | 73 | 1013.6 |
| 20260904090156 | 26 | 134 | 11.3 | 16.1 | 0.00 | 0.00 | 0.00 | 73 | 1013.6 |
| 20260904090032 | 26 | 143 | 11.3 | 12.9 | 0.00 | 0.00 | 0.00 | 73 | 1013.6 |
| 20260904085930 | 26 | 138 | 6.4 | 12.9 | 0.00 | 0.00 | 0.00 | 73 | 1013.6 |
| 20260904085834 | 26 | 143 | 9.7 | 12.9 | 0.00 | 0.00 | 0.00 | 73 | 1013.6 |
| 20260904085733 | 26 | 171 | 6.4 | 12.9 | 0.00 | 0.00 | 0.00 | 73 | 1013.7 |
| 20260904085631 | 26 | 136 | 8.0 | 12.9 | 0.00 | 0.00 | 0.00 | 73 | 1013.7 |
| 20260904085530 | 26 | 126 | 9.7 | 12.9 | 0.00 | 0.00 | 0.00 | 73 | 1013.7 |
| 20260904085427 | 26 | 143 | 6.4 | 12.9 | 0.00 | 0.00 | 0.00 | 73 | 1013.7 |
| 20260904085324 | 26 | 136 | 9.7 | 12.9 | 0.00 | 0.00 | 0.00 | 73 | 1013.7 |
| 20260904085243 | 26 | 143 | 9.7 | 12.9 | 0.00 | 0.00 | 0.00 | 73 | 1013.7 |
| 20260904085125 | 26 | 144 | 6.4 | 12.9 | 0.00 | 0.00 | 0.00 | 73 | 1013.7 |
| 20260904085043 | 26 | 148 | 8.0 | 12.9 | 0.00 | 0.00 | 0.00 | 73 | 1013.7 |
| 20260904084941 | 26 | 148 | 11.3 | 12.9 | 0.00 | 0.00 | 0.00 | 73 | 1013.7 |
| 20260904084840 | 26 | 138 | 8.0 | 12.9 | 0.00 | 0.00 | 0.00 | 73 | 1013.7 |
| 20260904084738 | 26 | 137 | 9.7 | 12.9 | 0.00 | 0.00 | 0.00 | 73 | 1013.7 |
| 20260904084645 | 26 | 138 | 8.0 | 12.9 | 0.00 | 0.00 | 0.00 | 73 | 1013.7 |
| 20260904084541 | 26 | 138 | 8.0 | 12.9 | 0.00 | 0.00 | 0.00 | 73 | 1013.7 |
| 20260904084440 | 26 | 155 | 4.8 | 12.9 | 0.00 | 0.00 | 0.00 | 73 | 1013.7 |
| 20260904084400 | 25 | 152 | 8.0 | 12.9 | 0.00 | 0.00 | 0.00 | 72 | 1013.7 |
| 20260904084221 | 25 | 150 | 8.0 | 12.9 | 0.00 | 0.00 | 0.00 | 73 | 1013.7 |
| 20260904084144 | 26 | 151 | 8.0 | 12.9 | 0.00 | 0.00 | 0.00 | 73 | 1013.7 |
| 20260904084102 | 25 | 148 | 8.0 | 12.9 | 0.00 | 0.00 | 0.00 | 73 | 1013.7 |
| 20260904083940 | 25 | 147 | 9.7 | 12.9 | 0.00 | 0.00 | 0.00 | 73 | 1013.7 |
| 20260904083859 | 25 | 143 | 8.0 | 12.9 | 0.00 | 0.00 | 0.00 | 73 | 1013.7 |
| 20260904083737 | 25 | 147 | 9.7 | 12.9 | 0.00 | 0.00 | 0.00 | 73 | 1013.7 |
| 20260904083635 | 25 | 148 | 6.4 | 11.3 | 0.00 | 0.00 | 0.00 | 73 | 1013.7 |
| 20260904083554 | 25 | 152 | 8.0 | 11.3 | 0.00 | 0.00 | 0.00 | 73 | 1013.7 |
| 20260904083436 | 26 | 147 | 9.7 | 11.3 | 0.00 | 0.00 | 0.00 | 73 | 1013.7 |
| 20260904083336 | 26 | 145 | 9.7 | 11.3 | 0.00 | 0.00 | 0.00 | 73 | 1013.7 |
| 20260904083207 | 26 | 145 | 8.0 | 11.3 | 0.00 | 0.00 | 0.00 | 73 | 1013.7 |
| 20260904083103 | 26 | 144 | 8.0 | 11.3 | 0.00 | 0.00 | 0.00 | 74 | 1013.7 |
| 20260904082941 | 26 | 147 | 9.7 | 11.3 | 0.00 | 0.00 | 0.00 | 74 | 1013.7 |
| 20260904082839 | 26 | 141 | 9.7 | 11.3 | 0.00 | 0.00 | 0.00 | 74 | 1013.7 |
| 20260904082737 | 26 | 148 | 8.0 | 11.3 | 0.00 | 0.00 | 0.00 | 74 | 1013.6 |
| 20260904082639 | 26 | 148 | 8.0 | 11.3 | 0.00 | 0.00 | 0.00 | 73 | 1013.6 |
| 20260904082539 | 26 | 143 | 8.0 | 11.3 | 0.00 | 0.00 | 0.00 | 74 | 1013.6 |
| 20260904082437 | 26 | 148 | 9.7 | 11.3 | 0.00 | 0.00 | 0.00 | 73 | 1013.6 |
| 20260904082336 | 26 | 150 | 6.4 | 12.9 | 0.00 | 0.00 | 0.00 | 73 | 1013.6 |
| 20260904082234 | 26 | 144 | 8.0 | 12.9 | 0.00 | 0.00 | 0.00 | 73 | 1013.6 |
| 20260904082134 | 26 | 145 | 8.0 | 12.9 | 0.00 | 0.00 | 0.00 | 73 | 1013.6 |
| 20260904082033 | 26 | 148 | 8.0 | 12.9 | 0.00 | 0.00 | 0.00 | 74 | 1013.6 |
| 20260904081956 | 26 | 134 | 8.0 | 12.9 | 0.00 | 0.00 | 0.00 | 73 | 1013.6 |
| 20260904081833 | 26 | 133 | 6.4 | 12.9 | 0.00 | 0.00 | 0.00 | 73 | 1013.6 |
| 20260904081743 | 26 | 144 | 6.4 | 12.9 | 0.00 | 0.00 | 0.00 | 73 | 1013.6 |
| 20260904081652 | 26 | 140 | 8.0 | 12.9 | 0.00 | 0.00 | 0.00 | 73 | 1013.6 |
| 20260904081529 | 26 | 143 | 9.7 | 12.9 | 0.00 | 0.00 | 0.00 | 73 | 1013.6 |
| 20260904081449 | 26 | 138 | 9.7 | 11.3 | 0.00 | 0.00 | 0.00 | 73 | 1013.6 |
| 20260904081327 | 26 | 136 | 8.0 | 11.3 | 0.00 | 0.00 | 0.00 | 73 | 1013.6 |
| 20260904081225 | 26 | 137 | 8.0 | 11.3 | 0.00 | 0.00 | 0.00 | 74 | 1013.5 |
| 20260904081125 | 26 | 141 | 8.0 | 11.3 | 0.00 | 0.00 | 0.00 | 74 | 1013.5 |
| 20260904081023 | 26 | 136 | 8.0 | 11.3 | 0.00 | 0.00 | 0.00 | 74 | 1013.5 |
| 20260904080942 | 26 | 134 | 8.0 | 11.3 | 0.00 | 0.00 | 0.00 | 74 | 1013.5 |
| 20260904080842 | 26 | 136 | 8.0 | 11.3 | 0.00 | 0.00 | 0.00 | 73 | 1013.5 |
| 20260904080740 | 26 | 134 | 8.0 | 11.3 | 0.00 | 0.00 | 0.00 | 73 | 1013.5 |
| 20260904080639 | 26 | 133 | 8.0 | 11.3 | 0.00 | 0.00 | 0.00 | 73 | 1013.5 |
| 20260904080558 | 26 | 133 | 8.0 | 11.3 | 0.00 | 0.00 | 0.00 | 73 | 1013.5 |
| 20260904080455 | 26 | 136 | 6.4 | 9.7 | 0.00 | 0.00 | 0.00 | 73 | 1013.5 |
| 20260904080336 | 26 | 137 | 6.4 | 9.7 | 0.00 | 0.00 | 0.00 | 73 | 1013.5 |
| 20260904080255 | 26 | 134 | 8.0 | 9.7 | 0.00 | 0.00 | 0.00 | 72 | 1013.5 |
| 20260904080226 | 26 | 136 | 6.4 | 11.3 | 0.00 | 0.00 | 0.00 | 72 | 1013.5 |
| 20260904080041 | 26 | 138 | 6.4 | 11.3 | 0.00 | 0.00 | 0.00 | 73 | 1013.5 |
| 20260904075939 | 26 | 138 | 4.8 | 11.3 | 0.00 | 0.00 | 0.00 | 73 | 1013.5 |
| 20260904075859 | 26 | 140 | 4.8 | 11.3 | 0.00 | 0.00 | 0.00 | 72 | 1013.5 |
| 20260904075738 | 26 | 140 | 6.4 | 11.3 | 0.00 | 0.00 | 0.00 | 72 | 1013.5 |
| 20260904075636 | 26 | 131 | 8.0 | 11.3 | 0.00 | 0.00 | 0.00 | 72 | 1013.5 |
| 20260904075539 | 26 | 141 | 6.4 | 11.3 | 0.00 | 0.00 | 0.00 | 72 | 1013.5 |
| 20260904075437 | 26 | 136 | 6.4 | 11.3 | 0.00 | 0.00 | 0.00 | 72 | 1013.5 |
| 20260904075355 | 26 | 133 | 8.0 | 11.3 | 0.00 | 0.00 | 0.00 | 72 | 1013.5 |
| 20260904075233 | 26 | 134 | 8.0 | 11.3 | 0.00 | 0.00 | 0.00 | 72 | 1013.5 |
| 20260904075132 | 26 | 137 | 6.4 | 11.3 | 0.00 | 0.00 | 0.00 | 72 | 1013.5 |
| 20260904075030 | 26 | 134 | 8.0 | 11.3 | 0.00 | 0.00 | 0.00 | 72 | 1013.5 |
| 20260904074948 | 26 | 131 | 8.0 | 11.3 | 0.00 | 0.00 | 0.00 | 72 | 1013.5 |
| 20260904074845 | 26 | 131 | 8.0 | 11.3 | 0.00 | 0.00 | 0.00 | 72 | 1013.5 |
| 20260904074728 | 26 | 126 | 8.0 | 11.3 | 0.00 | 0.00 | 0.00 | 72 | 1013.5 |
| 20260904074656 | 26 | 124 | 8.0 | 11.3 | 0.00 | 0.00 | 0.00 | 72 | 1013.5 |
| 20260904074534 | 26 | 128 | 8.0 | 11.3 | 0.00 | 0.00 | 0.00 | 72 | 1013.5 |
| 20260904074433 | 26 | 127 | 9.7 | 11.3 | 0.00 | 0.00 | 0.00 | 73 | 1013.5 |
| 20260904074331 | 26 | 128 | 9.7 | 11.3 | 0.00 | 0.00 | 0.00 | 73 | 1013.5 |
| 20260904074229 | 26 | 127 | 9.7 | 11.3 | 0.00 | 0.00 | 0.00 | 73 | 1013.6 |
| 20260904074128 | 26 | 128 | 9.7 | 11.3 | 0.00 | 0.00 | 0.00 | 73 | 1013.6 |
| 20260904074027 | 26 | 130 | 8.0 | 11.3 | 0.00 | 0.00 | 0.00 | 73 | 1013.6 |
| 20260904073949 | 26 | 128 | 8.0 | 11.3 | 0.00 | 0.00 | 0.00 | 73 | 1013.6 |
| 20260904073827 | 26 | 134 | 8.0 | 11.3 | 0.00 | 0.00 | 0.00 | 73 | 1013.6 |
| 20260904073725 | 26 | 137 | 9.7 | 11.3 | 0.00 | 0.00 | 0.00 | 73 | 1013.6 |
| 20260904073643 | 26 | 134 | 8.0 | 11.3 | 0.00 | 0.00 | 0.00 | 73 | 1013.6 |
| 20260904073541 | 26 | 128 | 8.0 | 11.3 | 0.00 | 0.00 | 0.00 | 73 | 1013.6 |
| 20260904073440 | 26 | 134 | 9.7 | 11.3 | 0.00 | 0.00 | 0.00 | 73 | 1013.6 |
| 20260904073336 | 26 | 124 | 8.0 | 11.3 | 0.00 | 0.00 | 0.00 | 73 | 1013.6 |
| 20260904073254 | 26 | 134 | 9.7 | 11.3 | 0.00 | 0.00 | 0.00 | 73 | 1013.6 |
| 20260904073224 | 26 | 138 | 8.0 | 11.3 | 0.00 | 0.00 | 0.00 | 73 | 1013.6 |
| 20260904073104 | 26 | 133 | 6.4 | 11.3 | 0.00 | 0.00 | 0.00 | 73 | 1013.6 |
| 20260904072921 | 26 | 136 | 6.4 | 11.3 | 0.00 | 0.00 | 0.00 | 73 | 1013.6 |
| 20260904072843 | 26 | 133 | 6.4 | 11.3 | 0.00 | 0.00 | 0.00 | 73 | 1013.6 |
| 20260904072741 | 26 | 131 | 9.7 | 11.3 | 0.00 | 0.00 | 0.00 | 73 | 1013.6 |
| 20260904072700 | 26 | 134 | 8.0 | 11.3 | 0.00 | 0.00 | 0.00 | 73 | 1013.6 |
| 20260904072538 | 26 | 133 | 8.0 | 11.3 | 0.00 | 0.00 | 0.00 | 73 | 1013.6 |
| 20260904072436 | 26 | 131 | 8.0 | 11.3 | 0.00 | 0.00 | 0.00 | 73 | 1013.6 |
| 20260904072339 | 26 | 131 | 6.4 | 11.3 | 0.00 | 0.00 | 0.00 | 73 | 1013.6 |
| 20260904072237 | 26 | 130 | 6.4 | 11.3 | 0.00 | 0.00 | 0.00 | 73 | 1013.6 |
| 20260904072155 | 26 | 136 | 8.0 | 12.9 | 0.00 | 0.00 | 0.00 | 73 | 1013.6 |
| 20260904072032 | 26 | 140 | 6.4 | 12.9 | 0.00 | 0.00 | 0.00 | 74 | 1013.6 |
| 20260904071930 | 26 | 138 | 8.0 | 12.9 | 0.00 | 0.00 | 0.00 | 73 | 1013.6 |
| 20260904071829 | 26 | 140 | 8.0 | 12.9 | 0.00 | 0.00 | 0.00 | 73 | 1013.6 |
| 20260904071727 | 26 | 133 | 6.4 | 12.9 | 0.00 | 0.00 | 0.00 | 73 | 1013.6 |
| 20260904071656 | 26 | 130 | 8.0 | 12.9 | 0.00 | 0.00 | 0.00 | 73 | 1013.6 |
| 20260904071538 | 26 | 140 | 9.7 | 12.9 | 0.00 | 0.00 | 0.00 | 73 | 1013.6 |
| 20260904071437 | 26 | 134 | 9.7 | 12.9 | 0.00 | 0.00 | 0.00 | 73 | 1013.6 |
| 20260904071335 | 26 | 128 | 9.7 | 12.9 | 0.00 | 0.00 | 0.00 | 73 | 1013.6 |
| 20260904071233 | 26 | 124 | 9.7 | 11.3 | 0.00 | 0.00 | 0.00 | 73 | 1013.7 |
| 20260904071152 | 26 | 127 | 9.7 | 11.3 | 0.00 | 0.00 | 0.00 | 73 | 1013.7 |
| 20260904071033 | 26 | 133 | 8.0 | 11.3 | 0.00 | 0.00 | 0.00 | 72 | 1013.7 |
| 20260904070933 | 26 | 128 | 8.0 | 11.3 | 0.00 | 0.00 | 0.00 | 72 | 1013.7 |
| 20260904070835 | 26 | 119 | 9.7 | 11.3 | 0.00 | 0.00 | 0.00 | 72 | 1013.7 |
| 20260904070734 | 26 | 124 | 8.0 | 11.3 | 0.00 | 0.00 | 0.00 | 72 | 1013.7 |
| 20260904070633 | 26 | 133 | 8.0 | 11.3 | 0.00 | 0.00 | 0.00 | 72 | 1013.7 |
| 20260904070533 | 26 | 133 | 9.7 | 11.3 | 0.00 | 0.00 | 0.00 | 72 | 1013.7 |
| 20260904070433 | 26 | 120 | 8.0 | 11.3 | 0.00 | 0.00 | 0.00 | 72 | 1013.7 |
| 20260904070352 | 26 | 128 | 9.7 | 11.3 | 0.00 | 0.00 | 0.00 | 72 | 1013.7 |
| 20260904070230 | 26 | 126 | 9.7 | 11.3 | 0.00 | 0.00 | 0.00 | 72 | 1013.7 |
| 20260904070201 | 26 | 124 | 8.0 | 11.3 | 0.00 | 0.00 | 0.00 | 71 | 1013.7 |
| 20260904070042 | 26 | 127 | 9.7 | 11.3 | 0.00 | 0.00 | 0.00 | 72 | 1013.7 |
| 20260904065939 | 26 | 126 | 9.7 | 9.7 | 0.00 | 0.00 | 0.00 | 71 | 1013.7 |
| 20260904065838 | 26 | 127 | 8.0 | 9.7 | 0.00 | 0.00 | 0.00 | 71 | 1013.7 |
| 20260904065737 | 26 | 126 | 8.0 | 11.3 | 0.00 | 0.00 | 0.00 | 71 | 1013.7 |
| 20260904065656 | 26 | 126 | 8.0 | 11.3 | 0.00 | 0.00 | 0.00 | 71 | 1013.7 |
| 20260904065533 | 26 | 128 | 6.4 | 11.3 | 0.00 | 0.00 | 0.00 | 71 | 1013.7 |
| 20260904065431 | 26 | 124 | 8.0 | 11.3 | 0.00 | 0.00 | 0.00 | 71 | 1013.7 |
| 20260904065333 | 26 | 124 | 8.0 | 11.3 | 0.00 | 0.00 | 0.00 | 71 | 1013.7 |
| 20260904065232 | 26 | 120 | 8.0 | 11.3 | 0.00 | 0.00 | 0.00 | 71 | 1013.7 |
| 20260904065130 | 26 | 121 | 6.4 | 11.3 | 0.00 | 0.00 | 0.00 | 71 | 1013.7 |
| 20260904065028 | 26 | 119 | 8.0 | 11.3 | 0.00 | 0.00 | 0.00 | 71 | 1013.7 |
| 20260904064950 | 26 | 116 | 9.7 | 11.3 | 0.00 | 0.00 | 0.00 | 71 | 1013.7 |
| 20260904064849 | 26 | 117 | 9.7 | 11.3 | 0.00 | 0.00 | 0.00 | 71 | 1013.7 |
| 20260904064727 | 26 | 116 | 8.0 | 11.3 | 0.00 | 0.00 | 0.00 | 70 | 1013.7 |
| 20260904064655 | 26 | 119 | 9.7 | 11.3 | 0.00 | 0.00 | 0.00 | 71 | 1013.7 |
| 20260904064535 | 26 | 113 | 9.7 | 11.3 | 0.00 | 0.00 | 0.00 | 70 | 1013.7 |
| 20260904064453 | 26 | 121 | 6.4 | 9.7 | 0.00 | 0.00 | 0.00 | 70 | 1013.7 |
| 20260904064331 | 26 | 126 | 6.4 | 9.7 | 0.00 | 0.00 | 0.00 | 70 | 1013.7 |
| 20260904064228 | 26 | 121 | 4.8 | 9.7 | 0.00 | 0.00 | 0.00 | 70 | 1013.7 |
| 20260904064147 | 26 | 120 | 4.8 | 9.7 | 0.00 | 0.00 | 0.00 | 69 | 1013.7 |
| 20260904064043 | 26 | 119 | 6.4 | 9.7 | 0.00 | 0.00 | 0.00 | 69 | 1013.7 |
| 20260904063942 | 26 | 117 | 4.8 | 9.7 | 0.00 | 0.00 | 0.00 | 68 | 1013.7 |
| 20260904063840 | 26 | 119 | 6.4 | 9.7 | 0.00 | 0.00 | 0.00 | 68 | 1013.7 |
| 20260904063724 | 26 | 119 | 6.4 | 9.7 | 0.00 | 0.00 | 0.00 | 68 | 1013.7 |
| 20260904063642 | 26 | 119 | 4.8 | 9.7 | 0.00 | 0.00 | 0.00 | 68 | 1013.7 |
| 20260904063540 | 26 | 116 | 4.8 | 9.7 | 0.00 | 0.00 | 0.00 | 68 | 1013.7 |
| 20260904063439 | 26 | 119 | 6.4 | 9.7 | 0.00 | 0.00 | 0.00 | 67 | 1013.7 |
| 20260904063358 | 26 | 119 | 8.0 | 9.7 | 0.00 | 0.00 | 0.00 | 67 | 1013.7 |
| 20260904063316 | 26 | 117 | 8.0 | 9.7 | 0.00 | 0.00 | 0.00 | 67 | 1013.7 |
| 20260904063205 | 26 | 116 | 6.4 | 9.7 | 0.00 | 0.00 | 0.00 | 67 | 1013.7 |
| 20260904063101 | 26 | 114 | 6.4 | 9.7 | 0.00 | 0.00 | 0.00 | 67 | 1013.7 |
| 20260904062938 | 26 | 117 | 6.4 | 9.7 | 0.00 | 0.00 | 0.00 | 67 | 1013.7 |
| 20260904062858 | 26 | 117 | 6.4 | 9.7 | 0.00 | 0.00 | 0.00 | 67 | 1013.7 |
| 20260904062739 | 26 | 117 | 8.0 | 9.7 | 0.00 | 0.00 | 0.00 | 67 | 1013.9 |
| 20260904062638 | 26 | 119 | 8.0 | 9.7 | 0.00 | 0.00 | 0.00 | 68 | 1013.9 |
| 20260904062557 | 26 | 120 | 8.0 | 9.7 | 0.00 | 0.00 | 0.00 | 68 | 1013.9 |
| 20260904062434 | 26 | 113 | 6.4 | 9.7 | 0.00 | 0.00 | 0.00 | 67 | 1013.9 |
| 20260904062333 | 26 | 112 | 8.0 | 9.7 | 0.00 | 0.00 | 0.00 | 68 | 1013.9 |
| 20260904062235 | 26 | 110 | 6.4 | 9.7 | 0.00 | 0.00 | 0.00 | 68 | 1013.9 |
| 20260904062133 | 26 | 110 | 6.4 | 9.7 | 0.00 | 0.00 | 0.00 | 68 | 1013.9 |
| 20260904062036 | 26 | 107 | 6.4 | 9.7 | 0.00 | 0.00 | 0.00 | 68 | 1013.9 |
| 20260904061934 | 26 | 106 | 4.8 | 9.7 | 0.00 | 0.00 | 0.00 | 68 | 1013.9 |
| 20260904061833 | 26 | 107 | 8.0 | 9.7 | 0.00 | 0.00 | 0.00 | 68 | 1013.9 |
| 20260904061752 | 26 | 106 | 4.8 | 9.7 | 0.00 | 0.00 | 0.00 | 68 | 1013.9 |
| 20260904061700 | 26 | 104 | 4.8 | 9.7 | 0.00 | 0.00 | 0.00 | 68 | 1013.9 |
| 20260904061538 | 26 | 102 | 4.8 | 9.7 | 0.00 | 0.00 | 0.00 | 67 | 1013.9 |
| 20260904061439 | 26 | 102 | 4.8 | 9.7 | 0.00 | 0.00 | 0.00 | 67 | 1013.9 |
| 20260904061342 | 27 | 100 | 4.8 | 9.7 | 0.00 | 0.00 | 0.00 | 66 | 1013.9 |
| 20260904061242 | 27 | 102 | 6.4 | 9.7 | 0.00 | 0.00 | 0.00 | 66 | 1014.0 |
| 20260904061140 | 27 | 100 | 6.4 | 9.7 | 0.00 | 0.00 | 0.00 | 66 | 1014.0 |
| 20260904061038 | 27 | 100 | 8.0 | 9.7 | 0.00 | 0.00 | 0.00 | 66 | 1014.0 |
| 20260904060957 | 27 | 99 | 4.8 | 8.0 | 0.00 | 0.00 | 0.00 | 65 | 1014.0 |
| 20260904060834 | 27 | 97 | 4.8 | 8.0 | 0.00 | 0.00 | 0.00 | 65 | 1014.0 |
| 20260904060733 | 27 | 97 | 4.8 | 8.0 | 0.00 | 0.00 | 0.00 | 65 | 1014.0 |
| 20260904060636 | 27 | 95 | 4.8 | 8.0 | 0.00 | 0.00 | 0.00 | 65 | 1014.0 |
| 20260904060533 | 27 | 99 | 4.8 | 8.0 | 0.00 | 0.00 | 0.00 | 65 | 1014.0 |
| 20260904060451 | 27 | 97 | 6.4 | 8.0 | 0.00 | 0.00 | 0.00 | 65 | 1014.0 |
| 20260904060330 | 27 | 97 | 6.4 | 8.0 | 0.00 | 0.00 | 0.00 | 65 | 1014.0 |
| 20260904060239 | 27 | 97 | 4.8 | 8.0 | 0.00 | 0.00 | 0.00 | 65 | 1014.0 |
| 20260904060149 | 27 | 97 | 4.8 | 8.0 | 0.00 | 0.00 | 0.00 | 65 | 1014.0 |
| 20260904060024 | 27 | 97 | 4.8 | 8.0 | 0.00 | 0.00 | 0.00 | 65 | 1014.0 |
| 20260904055922 | 27 | 97 | 4.8 | 8.0 | 0.00 | 0.00 | 0.00 | 65 | 1014.0 |
| 20260904055828 | 27 | 96 | 4.8 | 8.0 | 0.00 | 0.00 | 0.00 | 65 | 1014.0 |
| 20260904055746 | 27 | 96 | 6.4 | 8.0 | 0.00 | 0.00 | 0.00 | 65 | 1014.2 |
| 20260904055643 | 27 | 97 | 4.8 | 8.0 | 0.00 | 0.00 | 0.00 | 65 | 1014.2 |
| 20260904055541 | 27 | 96 | 4.8 | 8.0 | 0.00 | 0.00 | 0.00 | 65 | 1014.2 |
| 20260904055500 | 27 | 97 | 4.8 | 8.0 | 0.00 | 0.00 | 0.00 | 65 | 1014.2 |
| 20260904055338 | 27 | 96 | 4.8 | 8.0 | 0.00 | 0.00 | 0.00 | 65 | 1014.2 |
| 20260904055238 | 27 | 95 | 4.8 | 8.0 | 0.00 | 0.00 | 0.00 | 65 | 1014.2 |
| 20260904055137 | 26 | 96 | 4.8 | 8.0 | 0.00 | 0.00 | 0.00 | 65 | 1014.2 |
| 20260904055039 | 26 | 97 | 4.8 | 8.0 | 0.00 | 0.00 | 0.00 | 65 | 1014.2 |
| 20260904054958 | 26 | 95 | 4.8 | 8.0 | 0.00 | 0.00 | 0.00 | 65 | 1014.2 |
| 20260904054835 | 26 | 97 | 6.4 | 8.0 | 0.00 | 0.00 | 0.00 | 65 | 1014.2 |
| 20260904054743 | 26 | 97 | 4.8 | 8.0 | 0.00 | 0.00 | 0.00 | 65 | 1014.2 |
| 20260904054652 | 26 | 97 | 4.8 | 8.0 | 0.00 | 0.00 | 0.00 | 65 | 1014.2 |
| 20260904054529 | 26 | 97 | 6.4 | 8.0 | 0.00 | 0.00 | 0.00 | 65 | 1014.2 |
| 20260904054427 | 26 | 97 | 6.4 | 8.0 | 0.00 | 0.00 | 0.00 | 65 | 1014.2 |
| 20260904054345 | 26 | 96 | 4.8 | 8.0 | 0.00 | 0.00 | 0.00 | 65 | 1014.2 |
| 20260904054228 | 26 | 95 | 4.8 | 8.0 | 0.00 | 0.00 | 0.00 | 65 | 1014.2 |
| 20260904054127 | 26 | 97 | 6.4 | 8.0 | 0.00 | 0.00 | 0.00 | 65 | 1014.2 |
| 20260904054025 | 26 | 97 | 6.4 | 8.0 | 0.00 | 0.00 | 0.00 | 65 | 1014.2 |
| 20260904053943 | 26 | 96 | 6.4 | 8.0 | 0.00 | 0.00 | 0.00 | 65 | 1014.2 |
| 20260904053902 | 26 | 96 | 4.8 | 8.0 | 0.00 | 0.00 | 0.00 | 65 | 1014.2 |
| 20260904053738 | 26 | 97 | 4.8 | 8.0 | 0.00 | 0.00 | 0.00 | 65 | 1014.2 |
| 20260904053636 | 26 | 96 | 4.8 | 8.0 | 0.00 | 0.00 | 0.00 | 65 | 1014.2 |
| 20260904053537 | 26 | 96 | 4.8 | 8.0 | 0.00 | 0.00 | 0.00 | 65 | 1014.2 |
| 20260904053440 | 26 | 95 | 6.4 | 9.7 | 0.00 | 0.00 | 0.00 | 65 | 1014.2 |
| 20260904053359 | 26 | 96 | 6.4 | 9.7 | 0.00 | 0.00 | 0.00 | 65 | 1014.2 |
| 20260904053237 | 26 | 96 | 6.4 | 9.7 | 0.00 | 0.00 | 0.00 | 65 | 1014.2 |
| 20260904053207 | 26 | 96 | 6.4 | 9.7 | 0.00 | 0.00 | 0.00 | 66 | 1014.2 |
| 20260904053042 | 26 | 96 | 6.4 | 9.7 | 0.00 | 0.00 | 0.00 | 66 | 1014.2 |
| 20260904052940 | 26 | 96 | 6.4 | 9.7 | 0.00 | 0.00 | 0.00 | 66 | 1014.2 |
| 20260904052839 | 26 | 97 | 6.4 | 9.7 | 0.00 | 0.00 | 0.00 | 67 | 1014.2 |
| 20260904052738 | 26 | 96 | 6.4 | 9.7 | 0.00 | 0.00 | 0.00 | 67 | 1014.3 |
| 20260904052642 | 26 | 96 | 6.4 | 9.7 | 0.00 | 0.00 | 0.00 | 67 | 1014.3 |
| 20260904052540 | 26 | 93 | 6.4 | 9.7 | 0.00 | 0.00 | 0.00 | 67 | 1014.3 |
| 20260904052438 | 26 | 95 | 8.0 | 9.7 | 0.00 | 0.00 | 0.00 | 67 | 1014.3 |
| 20260904052334 | 26 | 95 | 8.0 | 9.7 | 0.00 | 0.00 | 0.00 | 66 | 1014.3 |
| 20260904052254 | 26 | 92 | 6.4 | 9.7 | 0.00 | 0.00 | 0.00 | 67 | 1014.3 |
| 20260904052131 | 26 | 93 | 6.4 | 9.7 | 0.00 | 0.00 | 0.00 | 67 | 1014.3 |
| 20260904052030 | 26 | 93 | 6.4 | 9.7 | 0.00 | 0.00 | 0.00 | 67 | 1014.3 |
| 20260904051949 | 26 | 93 | 4.8 | 9.7 | 0.00 | 0.00 | 0.00 | 67 | 1014.3 |
| 20260904051830 | 26 | 93 | 4.8 | 9.7 | 0.00 | 0.00 | 0.00 | 68 | 1014.3 |
| 20260904051730 | 26 | 93 | 6.4 | 9.7 | 0.00 | 0.00 | 0.00 | 68 | 1014.3 |
| 20260904051700 | 26 | 95 | 8.0 | 9.7 | 0.00 | 0.00 | 0.00 | 68 | 1014.3 |
| 20260904051537 | 26 | 95 | 8.0 | 9.7 | 0.00 | 0.00 | 0.00 | 68 | 1014.3 |
| 20260904051434 | 26 | 93 | 6.4 | 8.0 | 0.00 | 0.00 | 0.00 | 67 | 1014.3 |
| 20260904051333 | 26 | 92 | 6.4 | 8.0 | 0.00 | 0.00 | 0.00 | 66 | 1014.3 |
| 20260904051231 | 26 | 93 | 6.4 | 8.0 | 0.00 | 0.00 | 0.00 | 66 | 1014.3 |
| 20260904051133 | 26 | 92 | 8.0 | 9.7 | 0.00 | 0.00 | 0.00 | 66 | 1014.3 |
| 20260904051032 | 26 | 95 | 6.4 | 9.7 | 0.00 | 0.00 | 0.00 | 66 | 1014.3 |
| 20260904050931 | 26 | 95 | 6.4 | 9.7 | 0.00 | 0.00 | 0.00 | 66 | 1014.3 |
| 20260904050829 | 26 | 92 | 4.8 | 9.7 | 0.00 | 0.00 | 0.00 | 66 | 1014.3 |
| 20260904050727 | 26 | 93 | 4.8 | 9.7 | 0.00 | 0.00 | 0.00 | 66 | 1014.3 |
| 20260904050625 | 26 | 93 | 8.0 | 9.7 | 0.00 | 0.00 | 0.00 | 67 | 1014.3 |
| 20260904050528 | 26 | 92 | 6.4 | 9.7 | 0.00 | 0.00 | 0.00 | 67 | 1014.3 |
| 20260904050426 | 26 | 92 | 4.8 | 9.7 | 0.00 | 0.00 | 0.00 | 68 | 1014.3 |
| 20260904050328 | 26 | 95 | 6.4 | 9.7 | 0.00 | 0.00 | 0.00 | 68 | 1014.3 |
| 20260904050247 | 26 | 93 | 8.0 | 9.7 | 0.00 | 0.00 | 0.00 | 68 | 1014.3 |
| 20260904050156 | 26 | 93 | 8.0 | 9.7 | 0.00 | 0.00 | 0.00 | 68 | 1014.3 |
| 20260904050053 | 26 | 92 | 8.0 | 9.7 | 0.00 | 0.00 | 0.00 | 68 | 1014.3 |
| 20260904045932 | 26 | 93 | 6.4 | 9.7 | 0.00 | 0.00 | 0.00 | 68 | 1014.3 |
| 20260904045830 | 26 | 92 | 4.8 | 9.7 | 0.00 | 0.00 | 0.00 | 68 | 1014.3 |
| 20260904045730 | 26 | 90 | 6.4 | 9.7 | 0.00 | 0.00 | 0.00 | 68 | 1014.3 |
| 20260904045631 | 26 | 90 | 6.4 | 9.7 | 0.00 | 0.00 | 0.00 | 68 | 1014.3 |
| 20260904045530 | 26 | 90 | 6.4 | 9.7 | 0.00 | 0.00 | 0.00 | 68 | 1014.3 |
| 20260904045430 | 26 | 92 | 8.0 | 9.7 | 0.00 | 0.00 | 0.00 | 68 | 1014.3 |
| 20260904045327 | 26 | 92 | 8.0 | 9.7 | 0.00 | 0.00 | 0.00 | 68 | 1014.3 |
| 20260904045225 | 26 | 92 | 8.0 | 9.7 | 0.00 | 0.00 | 0.00 | 68 | 1014.3 |
| 20260904045143 | 26 | 90 | 6.4 | 9.7 | 0.00 | 0.00 | 0.00 | 68 | 1014.3 |
| 20260904045026 | 26 | 92 | 8.0 | 9.7 | 0.00 | 0.00 | 0.00 | 68 | 1014.3 |
| 20260904044945 | 26 | 93 | 8.0 | 9.7 | 0.00 | 0.00 | 0.00 | 68 | 1014.3 |
| 20260904044903 | 26 | 92 | 6.4 | 9.7 | 0.00 | 0.00 | 0.00 | 68 | 1014.3 |
| 20260904044741 | 26 | 93 | 6.4 | 9.7 | 0.00 | 0.00 | 0.00 | 68 | 1014.3 |
| 20260904044711 | 26 | 92 | 8.0 | 9.7 | 0.00 | 0.00 | 0.00 | 68 | 1014.3 |
| 20260904044527 | 26 | 90 | 6.4 | 9.7 | 0.00 | 0.00 | 0.00 | 68 | 1014.3 |
| 20260904044425 | 26 | 93 | 8.0 | 9.7 | 0.00 | 0.00 | 0.00 | 68 | 1014.3 |
| 20260904044342 | 26 | 93 | 8.0 | 9.7 | 0.00 | 0.00 | 0.00 | 68 | 1014.3 |
| 20260904044301 | 26 | 89 | 8.0 | 9.7 | 0.00 | 0.00 | 0.00 | 68 | 1014.2 |
| 20260904044124 | 26 | 93 | 8.0 | 9.7 | 0.00 | 0.00 | 0.00 | 68 | 1014.2 |
| 20260904044043 | 26 | 93 | 8.0 | 9.7 | 0.00 | 0.00 | 0.00 | 68 | 1014.2 |
| 20260904043940 | 26 | 89 | 8.0 | 9.7 | 0.00 | 0.00 | 0.00 | 69 | 1014.2 |
| 20260904043840 | 26 | 92 | 8.0 | 9.7 | 0.00 | 0.00 | 0.00 | 69 | 1014.2 |
| 20260904043739 | 26 | 92 | 8.0 | 9.7 | 0.00 | 0.00 | 0.00 | 70 | 1014.2 |
| 20260904043638 | 26 | 93 | 8.0 | 9.7 | 0.00 | 0.00 | 0.00 | 70 | 1014.2 |
| 20260904043536 | 26 | 93 | 6.4 | 9.7 | 0.00 | 0.00 | 0.00 | 70 | 1014.2 |
| 20260904043441 | 26 | 90 | 8.0 | 9.7 | 0.00 | 0.00 | 0.00 | 71 | 1014.2 |
| 20260904043359 | 26 | 90 | 8.0 | 9.7 | 0.00 | 0.00 | 0.00 | 71 | 1014.2 |
| 20260904043256 | 27 | 90 | 8.0 | 9.7 | 0.00 | 0.00 | 0.00 | 71 | 1014.2 |
| 20260904043205 | 27 | 92 | 8.0 | 9.7 | 0.00 | 0.00 | 0.00 | 71 | 1014.2 |
| 20260904043041 | 27 | 90 | 8.0 | 9.7 | 0.00 | 0.00 | 0.00 | 71 | 1014.2 |
| 20260904042940 | 27 | 92 | 8.0 | 8.0 | 0.00 | 0.00 | 0.00 | 70 | 1014.2 |
| 20260904042838 | 27 | 92 | 6.4 | 8.0 | 0.00 | 0.00 | 0.00 | 70 | 1014.2 |
| 20260904042738 | 27 | 92 | 6.4 | 8.0 | 0.00 | 0.00 | 0.00 | 70 | 1014.2 |
| 20260904042700 | 27 | 90 | 4.8 | 8.0 | 0.00 | 0.00 | 0.00 | 70 | 1014.2 |
| 20260904042539 | 27 | 90 | 4.8 | 9.7 | 0.00 | 0.00 | 0.00 | 69 | 1014.2 |
| 20260904042437 | 27 | 90 | 6.4 | 9.7 | 0.00 | 0.00 | 0.00 | 69 | 1014.2 |
| 20260904042356 | 27 | 90 | 4.8 | 9.7 | 0.00 | 0.00 | 0.00 | 69 | 1014.2 |
| 20260904042234 | 27 | 90 | 3.2 | 9.7 | 0.00 | 0.00 | 0.00 | 69 | 1014.2 |
| 20260904042152 | 27 | 92 | 4.8 | 9.7 | 0.00 | 0.00 | 0.00 | 68 | 1014.2 |
| 20260904042049 | 27 | 88 | 6.4 | 9.7 | 0.00 | 0.00 | 0.00 | 68 | 1014.2 |
| 20260904041926 | 27 | 90 | 6.4 | 9.7 | 0.00 | 0.00 | 0.00 | 68 | 1014.2 |
| 20260904041828 | 27 | 88 | 6.4 | 9.7 | 0.00 | 0.00 | 0.00 | 68 | 1014.2 |
| 20260904041728 | 27 | 89 | 6.4 | 9.7 | 0.00 | 0.00 | 0.00 | 68 | 1014.2 |
| 20260904041701 | 27 | 89 | 6.4 | 9.7 | 0.00 | 0.00 | 0.00 | 69 | 1014.2 |
| 20260904041540 | 27 | 89 | 4.8 | 9.7 | 0.00 | 0.00 | 0.00 | 69 | 1014.2 |
| 20260904041457 | 27 | 90 | 6.4 | 9.7 | 0.00 | 0.00 | 0.00 | 69 | 1014.2 |
| 20260904041334 | 27 | 89 | 6.4 | 9.7 | 0.00 | 0.00 | 0.00 | 68 | 1014.2 |
| 20260904041233 | 27 | 88 | 4.8 | 9.7 | 0.00 | 0.00 | 0.00 | 67 | 1014.5 |
| 20260904041152 | 27 | 90 | 4.8 | 9.7 | 0.00 | 0.00 | 0.00 | 67 | 1014.5 |
| 20260904041033 | 27 | 85 | 4.8 | 9.7 | 0.00 | 0.00 | 0.00 | 67 | 1014.5 |
| 20260904040931 | 27 | 88 | 6.4 | 9.7 | 0.00 | 0.00 | 0.00 | 69 | 1014.5 |
| 20260904040830 | 27 | 89 | 6.4 | 9.7 | 0.00 | 0.00 | 0.00 | 70 | 1014.5 |
| 20260904040729 | 27 | 89 | 6.4 | 9.7 | 0.00 | 0.00 | 0.00 | 69 | 1014.5 |
| 20260904040627 | 27 | 89 | 6.4 | 9.7 | 0.00 | 0.00 | 0.00 | 68 | 1014.5 |
| 20260904040525 | 27 | 89 | 4.8 | 9.7 | 0.00 | 0.00 | 0.00 | 68 | 1014.5 |
| 20260904040424 | 27 | 89 | 6.4 | 9.7 | 0.00 | 0.00 | 0.00 | 68 | 1014.5 |
| 20260904040326 | 27 | 88 | 4.8 | 9.7 | 0.00 | 0.00 | 0.00 | 67 | 1014.5 |
| 20260904040146 | 27 | 85 | 6.4 | 9.7 | 0.00 | 0.00 | 0.00 | 67 | 1014.5 |
| 20260904040043 | 27 | 88 | 6.4 | 9.7 | 0.00 | 0.00 | 0.00 | 67 | 1014.5 |
| 20260904035941 | 27 | 88 | 4.8 | 9.7 | 0.00 | 0.00 | 0.00 | 68 | 1014.5 |
| 20260904035859 | 27 | 88 | 6.4 | 9.7 | 0.00 | 0.00 | 0.00 | 68 | 1014.5 |
| 20260904035736 | 27 | 88 | 8.0 | 9.7 | 0.00 | 0.00 | 0.00 | 68 | 1014.7 |
| 20260904035635 | 27 | 86 | 8.0 | 9.7 | 0.00 | 0.00 | 0.00 | 68 | 1014.7 |
| 20260904035533 | 27 | 88 | 8.0 | 9.7 | 0.00 | 0.00 | 0.00 | 67 | 1014.7 |
| 20260904035436 | 27 | 88 | 6.4 | 9.7 | 0.00 | 0.00 | 0.00 | 67 | 1014.7 |
| 20260904035335 | 27 | 88 | 8.0 | 9.7 | 0.00 | 0.00 | 0.00 | 67 | 1014.7 |
| 20260904035254 | 27 | 90 | 8.0 | 9.7 | 0.00 | 0.00 | 0.00 | 67 | 1014.7 |
| 20260904035131 | 27 | 103 | 8.0 | 9.7 | 0.00 | 0.00 | 0.00 | 67 | 1014.7 |
| 20260904035029 | 26 | 117 | 8.0 | 9.7 | 0.00 | 0.00 | 0.00 | 68 | 1014.7 |
| 20260904034926 | 26 | 143 | 8.0 | 9.7 | 0.00 | 0.00 | 0.00 | 68 | 1014.7 |
| 20260904034843 | 26 | 143 | 8.0 | 9.7 | 0.00 | 0.00 | 0.00 | 68 | 1014.7 |
| 20260904034743 | 26 | 144 | 6.4 | 8.0 | 0.00 | 0.00 | 0.00 | 68 | 1014.7 |
| 20260904034713 | 26 | 144 | 6.4 | 8.0 | 0.00 | 0.00 | 0.00 | 69 | 1014.7 |
| 20260904034554 | 26 | 145 | 6.4 | 8.0 | 0.00 | 0.00 | 0.00 | 69 | 1014.7 |
| 20260904034431 | 26 | 144 | 4.8 | 8.0 | 0.00 | 0.00 | 0.00 | 69 | 1014.7 |
| 20260904034329 | 26 | 143 | 6.4 | 8.0 | 0.00 | 0.00 | 0.00 | 69 | 1014.7 |
| 20260904034227 | 26 | 141 | 4.8 | 8.0 | 0.00 | 0.00 | 0.00 | 69 | 1014.8 |
| 20260904034125 | 26 | 144 | 4.8 | 8.0 | 0.00 | 0.00 | 0.00 | 69 | 1014.8 |
| 20260904034043 | 26 | 144 | 4.8 | 8.0 | 0.00 | 0.00 | 0.00 | 68 | 1014.8 |
| 20260904033941 | 26 | 144 | 6.4 | 9.7 | 0.00 | 0.00 | 0.00 | 68 | 1014.8 |
| 20260904033839 | 26 | 144 | 4.8 | 9.7 | 0.00 | 0.00 | 0.00 | 69 | 1014.8 |
| 20260904033742 | 26 | 141 | 4.8 | 9.7 | 0.00 | 0.00 | 0.00 | 69 | 1014.8 |
| 20260904033640 | 26 | 144 | 4.8 | 9.7 | 0.00 | 0.00 | 0.00 | 69 | 1014.8 |
| 20260904033535 | 26 | 143 | 4.8 | 9.7 | 0.00 | 0.00 | 0.00 | 69 | 1014.8 |
| 20260904033454 | 26 | 144 | 6.4 | 9.7 | 0.00 | 0.00 | 0.00 | 68 | 1014.8 |
| 20260904033332 | 26 | 144 | 6.4 | 9.7 | 0.00 | 0.00 | 0.00 | 68 | 1014.8 |
| 20260904033250 | 26 | 147 | 6.4 | 9.7 | 0.00 | 0.00 | 0.00 | 68 | 1014.8 |
| 20260904033200 | 26 | 148 | 6.4 | 9.7 | 0.00 | 0.00 | 0.00 | 68 | 1014.8 |
| 20260904033038 | 26 | 150 | 8.0 | 9.7 | 0.00 | 0.00 | 0.00 | 68 | 1014.8 |
| 20260904032941 | 26 | 150 | 6.4 | 9.7 | 0.00 | 0.00 | 0.00 | 69 | 1014.8 |
| 20260904032841 | 27 | 151 | 6.4 | 8.0 | 0.00 | 0.00 | 0.00 | 69 | 1014.8 |
| 20260904032720 | 27 | 151 | 4.8 | 8.0 | 0.00 | 0.00 | 0.00 | 70 | 1014.9 |
| 20260904032642 | 27 | 151 | 6.4 | 8.0 | 0.00 | 0.00 | 0.00 | 70 | 1014.9 |
| 20260904032540 | 27 | 151 | 8.0 | 8.0 | 0.00 | 0.00 | 0.00 | 70 | 1014.9 |
| 20260904032439 | 27 | 151 | 6.4 | 8.0 | 0.00 | 0.00 | 0.00 | 71 | 1014.9 |
| 20260904032359 | 27 | 154 | 4.8 | 8.0 | 0.00 | 0.00 | 0.00 | 71 | 1014.9 |
| 20260904032242 | 27 | 154 | 4.8 | 8.0 | 0.00 | 0.00 | 0.00 | 71 | 1014.9 |
| 20260904032140 | 27 | 155 | 6.4 | 8.0 | 0.00 | 0.00 | 0.00 | 71 | 1014.9 |
| 20260904032039 | 27 | 154 | 6.4 | 8.0 | 0.00 | 0.00 | 0.00 | 71 | 1014.9 |
| 20260904031957 | 27 | 152 | 6.4 | 8.0 | 0.00 | 0.00 | 0.00 | 70 | 1014.9 |
| 20260904031854 | 27 | 155 | 3.2 | 8.0 | 0.00 | 0.00 | 0.00 | 70 | 1014.9 |
| 20260904031753 | 27 | 152 | 3.2 | 8.0 | 0.00 | 0.00 | 0.00 | 71 | 1014.9 |
| 20260904031701 | 27 | 155 | 4.8 | 8.0 | 0.00 | 0.00 | 0.00 | 71 | 1014.9 |
| 20260904031540 | 27 | 155 | 4.8 | 8.0 | 0.00 | 0.00 | 0.00 | 70 | 1014.9 |
| 20260904031438 | 27 | 161 | 3.2 | 8.0 | 0.00 | 0.00 | 0.00 | 71 | 1014.9 |
| 20260904031341 | 27 | 162 | 4.8 | 8.0 | 0.00 | 0.00 | 0.00 | 71 | 1014.9 |
| 20260904031239 | 27 | 162 | 4.8 | 8.0 | 0.00 | 0.00 | 0.00 | 71 | 1014.0 |
| 20260904031137 | 27 | 162 | 4.8 | 8.0 | 0.00 | 0.00 | 0.00 | 70 | 1014.0 |
| 20260904031036 | 27 | 162 | 3.2 | 8.0 | 0.00 | 0.00 | 0.00 | 70 | 1014.0 |
| 20260904030934 | 27 | 161 | 3.2 | 8.0 | 0.00 | 0.00 | 0.00 | 70 | 1014.0 |
| 20260904030832 | 27 | 162 | 3.2 | 8.0 | 0.00 | 0.00 | 0.00 | 70 | 1014.0 |
| 20260904030734 | 27 | 161 | 3.2 | 8.0 | 0.00 | 0.00 | 0.00 | 70 | 1014.0 |
| 20260904030634 | 27 | 162 | 4.8 | 8.0 | 0.00 | 0.00 | 0.00 | 70 | 1014.0 |
| 20260904030553 | 27 | 162 | 4.8 | 8.0 | 0.00 | 0.00 | 0.00 | 71 | 1014.0 |
| 20260904030429 | 27 | 162 | 3.2 | 8.0 | 0.00 | 0.00 | 0.00 | 70 | 1014.0 |
| 20260904030329 | 27 | 162 | 4.8 | 8.0 | 0.00 | 0.00 | 0.00 | 70 | 1014.0 |
| 20260904030239 | 27 | 162 | 4.8 | 8.0 | 0.00 | 0.00 | 0.00 | 71 | 1014.0 |
| 20260904030150 | 27 | 164 | 4.8 | 8.0 | 0.00 | 0.00 | 0.00 | 70 | 1014.0 |
| 20260904030026 | 27 | 165 | 4.8 | 8.0 | 0.00 | 0.00 | 0.00 | 70 | 1014.0 |
| 20260904025930 | 27 | 162 | 4.8 | 8.0 | 0.00 | 0.00 | 0.00 | 70 | 1014.0 |
| 20260904025830 | 27 | 161 | 4.8 | 8.0 | 0.00 | 0.00 | 0.00 | 70 | 1014.0 |
| 20260904025728 | 27 | 164 | 4.8 | 8.0 | 0.00 | 0.00 | 0.00 | 70 | 1014.0 |
| 20260904025646 | 27 | 164 | 4.8 | 8.0 | 0.00 | 0.00 | 0.00 | 70 | 1014.0 |
| 20260904025605 | 27 | 165 | 4.8 | 8.0 | 0.00 | 0.00 | 0.00 | 70 | 1014.0 |
| 20260904025442 | 27 | 164 | 4.8 | 8.0 | 0.00 | 0.00 | 0.00 | 70 | 1014.0 |
| 20260904025340 | 27 | 164 | 4.8 | 8.0 | 0.00 | 0.00 | 0.00 | 70 | 1014.0 |
| 20260904025224 | 27 | 164 | 4.8 | 8.0 | 0.00 | 0.00 | 0.00 | 70 | 1014.0 |
| 20260904025142 | 27 | 162 | 4.8 | 8.0 | 0.00 | 0.00 | 0.00 | 70 | 1014.0 |
| 20260904025039 | 27 | 164 | 4.8 | 8.0 | 0.00 | 0.00 | 0.00 | 70 | 1014.0 |
| 20260904024937 | 27 | 162 | 4.8 | 8.0 | 0.00 | 0.00 | 0.00 | 70 | 1014.0 |
| 20260904024836 | 27 | 165 | 6.4 | 8.0 | 0.00 | 0.00 | 0.00 | 70 | 1014.0 |